<?xml version='1.0' encoding='UTF-8'?><gpx version="1.1" creator="JPX - https://github.com/jenetics/jpx" xmlns="http://www.topografix.com/GPX/1/1"><trk><trkseg><trkpt lat="45.1407645" lon="7.561015"><ele>288.00000000000006</ele><time>2026-03-29T13:19:44.83Z</time></trkpt><trkpt lat="45.1406961" lon="7.5610316"><ele>288.0</ele><time>2026-03-29T13:19:52.83Z</time></trkpt><trkpt lat="45.1406292" lon="7.5610189"><ele>288.0</ele><time>2026-03-29T13:20:02.85Z</time></trkpt><trkpt lat="45.1406729" lon="7.5610833"><ele>288.0</ele><time>2026-03-29T13:24:04.797Z</time></trkpt><trkpt lat="45.1407453" lon="7.5611001"><ele>288.0</ele><time>2026-03-29T13:24:09.784Z</time></trkpt><trkpt lat="45.1408107" lon="7.5611174"><ele>288.00000000000006</ele><time>2026-03-29T13:24:14.838Z</time></trkpt><trkpt lat="45.1408829" lon="7.5611152"><ele>288.0</ele><time>2026-03-29T13:24:20.775Z</time></trkpt><trkpt lat="45.1409245" lon="7.561047"><ele>288.0</ele><time>2026-03-29T13:24:28.786Z</time></trkpt><trkpt lat="45.1409748" lon="7.560971"><ele>288.0</ele><time>2026-03-29T13:30:16.796Z</time></trkpt><trkpt lat="45.1409787" lon="7.5608806"><ele>288.0</ele><time>2026-03-29T13:30:20.844Z</time></trkpt><trkpt lat="45.1409596" lon="7.5607686"><ele>288.0</ele><time>2026-03-29T13:30:23.802Z</time></trkpt><trkpt lat="45.140949" lon="7.5606513"><ele>288.0</ele><time>2026-03-29T13:30:26.799Z</time></trkpt><trkpt lat="45.1409621" lon="7.5605219"><ele>288.0</ele><time>2026-03-29T13:30:29.792Z</time></trkpt><trkpt lat="45.1409694" lon="7.5604285"><ele>288.3333333333333</ele><time>2026-03-29T13:30:31.784Z</time></trkpt><trkpt lat="45.1409719" lon="7.5603136"><ele>288.6666666666667</ele><time>2026-03-29T13:30:33.794Z</time></trkpt><trkpt lat="45.1409634" lon="7.5601912"><ele>289.0</ele><time>2026-03-29T13:30:35.794Z</time></trkpt><trkpt lat="45.1409601" lon="7.5600941"><ele>289.33333333333337</ele><time>2026-03-29T13:30:37.789Z</time></trkpt><trkpt lat="45.1409566" lon="7.5599616"><ele>289.6666666666667</ele><time>2026-03-29T13:30:40.774Z</time></trkpt><trkpt lat="45.1409522" lon="7.5598419"><ele>290.0</ele><time>2026-03-29T13:30:43.796Z</time></trkpt><trkpt lat="45.1409426" lon="7.5597299"><ele>290.0</ele><time>2026-03-29T13:30:46.799Z</time></trkpt><trkpt lat="45.1408959" lon="7.5598119"><ele>290.0</ele><time>2026-03-29T13:31:00.812Z</time></trkpt><trkpt lat="45.1408772" lon="7.5598989"><ele>290.0</ele><time>2026-03-29T13:31:03.712Z</time></trkpt><trkpt lat="45.14096" lon="7.5600717"><ele>290.0</ele><time>2026-03-29T13:31:04.79Z</time></trkpt><trkpt lat="45.140965" lon="7.560205"><ele>290.0</ele><time>2026-03-29T13:31:07.846Z</time></trkpt><trkpt lat="45.1409617" lon="7.5603467"><ele>289.6</ele><time>2026-03-29T13:31:10.8Z</time></trkpt><trkpt lat="45.1409633" lon="7.5604383"><ele>289.2</ele><time>2026-03-29T13:31:12.794Z</time></trkpt><trkpt lat="45.1409667" lon="7.5606067"><ele>288.8</ele><time>2026-03-29T13:31:16.837Z</time></trkpt><trkpt lat="45.1409833" lon="7.5607833"><ele>288.4</ele><time>2026-03-29T13:31:19.8Z</time></trkpt><trkpt lat="45.14097" lon="7.5608833"><ele>288.0</ele><time>2026-03-29T13:31:22.844Z</time></trkpt><trkpt lat="45.14097" lon="7.5607583"><ele>288.0</ele><time>2026-03-29T13:32:21.818Z</time></trkpt><trkpt lat="45.1409767" lon="7.5606617"><ele>288.0</ele><time>2026-03-29T13:32:25.784Z</time></trkpt><trkpt lat="45.1409783" lon="7.560565"><ele>288.0</ele><time>2026-03-29T13:32:27.787Z</time></trkpt><trkpt lat="45.1409783" lon="7.5604667"><ele>288.0</ele><time>2026-03-29T13:32:29.788Z</time></trkpt><trkpt lat="45.1409717" lon="7.5603633"><ele>288.0</ele><time>2026-03-29T13:32:31.796Z</time></trkpt><trkpt lat="45.140965" lon="7.5601617"><ele>288.0</ele><time>2026-03-29T13:32:36.788Z</time></trkpt><trkpt lat="45.1409667" lon="7.5600717"><ele>288.3333333333333</ele><time>2026-03-29T13:32:38.851Z</time></trkpt><trkpt lat="45.1409633" lon="7.5599817"><ele>288.6666666666667</ele><time>2026-03-29T13:32:40.785Z</time></trkpt><trkpt lat="45.1409517" lon="7.5598533"><ele>289.0</ele><time>2026-03-29T13:32:43.791Z</time></trkpt><trkpt lat="45.1409417" lon="7.5597317"><ele>289.33333333333337</ele><time>2026-03-29T13:32:46.782Z</time></trkpt><trkpt lat="45.1408867" lon="7.5596333"><ele>289.6666666666667</ele><time>2026-03-29T13:33:08.879Z</time></trkpt><trkpt lat="45.1409133" lon="7.5597733"><ele>290.0</ele><time>2026-03-29T13:33:22.782Z</time></trkpt><trkpt lat="45.1409283" lon="7.5598783"><ele>290.0</ele><time>2026-03-29T13:33:24.794Z</time></trkpt><trkpt lat="45.140935" lon="7.55998"><ele>290.0</ele><time>2026-03-29T13:33:26.841Z</time></trkpt><trkpt lat="45.140935" lon="7.560085"><ele>290.0</ele><time>2026-03-29T13:33:28.782Z</time></trkpt><trkpt lat="45.1409383" lon="7.5602017"><ele>290.0</ele><time>2026-03-29T13:33:30.784Z</time></trkpt><trkpt lat="45.1409367" lon="7.5603117"><ele>290.0</ele><time>2026-03-29T13:33:32.868Z</time></trkpt><trkpt lat="45.1409317" lon="7.56043"><ele>290.0</ele><time>2026-03-29T13:33:34.781Z</time></trkpt><trkpt lat="45.1409333" lon="7.5605317"><ele>289.7142857142857</ele><time>2026-03-29T13:33:36.787Z</time></trkpt><trkpt lat="45.1409467" lon="7.5606417"><ele>289.42857142857144</ele><time>2026-03-29T13:33:39.787Z</time></trkpt><trkpt lat="45.1409817" lon="7.56073"><ele>289.14285714285717</ele><time>2026-03-29T13:35:18.796Z</time></trkpt><trkpt lat="45.1409467" lon="7.5608167"><ele>288.8571428571429</ele><time>2026-03-29T13:35:22.779Z</time></trkpt><trkpt lat="45.14093" lon="7.5609217"><ele>288.57142857142856</ele><time>2026-03-29T13:35:27.863Z</time></trkpt><trkpt lat="45.14091" lon="7.5610083"><ele>288.28571428571433</ele><time>2026-03-29T13:35:33.789Z</time></trkpt><trkpt lat="45.1409067" lon="7.5611017"><ele>288.0</ele><time>2026-03-29T13:53:22.808Z</time></trkpt><trkpt lat="45.1409083" lon="7.5609833"><ele>288.0</ele><time>2026-03-29T13:54:44.871Z</time></trkpt><trkpt lat="45.1409283" lon="7.560855"><ele>288.0</ele><time>2026-03-29T13:54:48.815Z</time></trkpt><trkpt lat="45.14096" lon="7.5607767"><ele>288.0</ele><time>2026-03-29T13:54:50.953Z</time></trkpt><trkpt lat="45.14098" lon="7.560685"><ele>288.0</ele><time>2026-03-29T13:54:52.785Z</time></trkpt><trkpt lat="45.1409933" lon="7.5605567"><ele>288.0</ele><time>2026-03-29T13:54:55.788Z</time></trkpt><trkpt lat="45.141005" lon="7.5604467"><ele>288.0</ele><time>2026-03-29T13:54:58.785Z</time></trkpt><trkpt lat="45.1410033" lon="7.5603333"><ele>288.3333333333333</ele><time>2026-03-29T13:55:00.791Z</time></trkpt><trkpt lat="45.141" lon="7.5602283"><ele>288.6666666666667</ele><time>2026-03-29T13:55:02.867Z</time></trkpt><trkpt lat="45.1409933" lon="7.5601067"><ele>289.0</ele><time>2026-03-29T13:55:04.78Z</time></trkpt><trkpt lat="45.1409867" lon="7.559985"><ele>289.33333333333337</ele><time>2026-03-29T13:55:06.784Z</time></trkpt><trkpt lat="45.1409817" lon="7.5598833"><ele>289.6666666666667</ele><time>2026-03-29T13:55:08.847Z</time></trkpt><trkpt lat="45.1409683" lon="7.5597783"><ele>290.0</ele><time>2026-03-29T13:55:10.784Z</time></trkpt><trkpt lat="45.14096" lon="7.55968"><ele>290.0</ele><time>2026-03-29T13:55:12.78Z</time></trkpt><trkpt lat="45.1409217" lon="7.5595617"><ele>290.0</ele><time>2026-03-29T13:55:15.797Z</time></trkpt><trkpt lat="45.140895" lon="7.5594767"><ele>290.0</ele><time>2026-03-29T13:55:17.797Z</time></trkpt><trkpt lat="45.14087" lon="7.5593817"><ele>290.0</ele><time>2026-03-29T13:55:19.788Z</time></trkpt><trkpt lat="45.1408517" lon="7.5592767"><ele>290.0</ele><time>2026-03-29T13:55:21.783Z</time></trkpt><trkpt lat="45.140825" lon="7.5591783"><ele>290.0</ele><time>2026-03-29T13:55:23.788Z</time></trkpt><trkpt lat="45.1407983" lon="7.55905"><ele>290.0</ele><time>2026-03-29T13:55:26.856Z</time></trkpt><trkpt lat="45.1407667" lon="7.5589383"><ele>290.0</ele><time>2026-03-29T13:55:29.792Z</time></trkpt><trkpt lat="45.140745" lon="7.5588517"><ele>290.0</ele><time>2026-03-29T13:55:31.785Z</time></trkpt><trkpt lat="45.1407167" lon="7.5587267"><ele>290.0</ele><time>2026-03-29T13:55:34.781Z</time></trkpt><trkpt lat="45.1406983" lon="7.5586317"><ele>290.0</ele><time>2026-03-29T13:55:36.79Z</time></trkpt><trkpt lat="45.1406883" lon="7.5585317"><ele>290.0</ele><time>2026-03-29T13:55:38.853Z</time></trkpt><trkpt lat="45.14068" lon="7.5584417"><ele>290.0</ele><time>2026-03-29T13:55:40.807Z</time></trkpt><trkpt lat="45.1406117" lon="7.5583617"><ele>290.5</ele><time>2026-03-29T13:55:44.867Z</time></trkpt><trkpt lat="45.1405417" lon="7.5583217"><ele>291.0</ele><time>2026-03-29T13:55:46.782Z</time></trkpt><trkpt lat="45.140465" lon="7.5582917"><ele>291.5</ele><time>2026-03-29T13:55:48.79Z</time></trkpt><trkpt lat="45.1403967" lon="7.5582833"><ele>292.0</ele><time>2026-03-29T13:55:50.861Z</time></trkpt><trkpt lat="45.1403233" lon="7.5582883"><ele>292.5</ele><time>2026-03-29T13:55:52.795Z</time></trkpt><trkpt lat="45.1402467" lon="7.5583117"><ele>293.0</ele><time>2026-03-29T13:55:54.792Z</time></trkpt><trkpt lat="45.1401683" lon="7.5583333"><ele>292.99999999999994</ele><time>2026-03-29T13:55:56.865Z</time></trkpt><trkpt lat="45.1401" lon="7.5583517"><ele>293.0</ele><time>2026-03-29T13:55:58.786Z</time></trkpt><trkpt lat="45.1400367" lon="7.5583683"><ele>293.0</ele><time>2026-03-29T13:56:00.785Z</time></trkpt><trkpt lat="45.13997" lon="7.5583917"><ele>293.0</ele><time>2026-03-29T13:56:02.861Z</time></trkpt><trkpt lat="45.1399" lon="7.5584167"><ele>293.0</ele><time>2026-03-29T13:56:04.785Z</time></trkpt><trkpt lat="45.1398317" lon="7.55844"><ele>292.99999999999994</ele><time>2026-03-29T13:56:06.781Z</time></trkpt><trkpt lat="45.1397567" lon="7.5584567"><ele>293.0</ele><time>2026-03-29T13:56:08.841Z</time></trkpt><trkpt lat="45.1396833" lon="7.5584767"><ele>294.4285714285714</ele><time>2026-03-29T13:56:10.783Z</time></trkpt><trkpt lat="45.1395833" lon="7.5584983"><ele>295.85714285714283</ele><time>2026-03-29T13:56:13.786Z</time></trkpt><trkpt lat="45.139515" lon="7.5585017"><ele>297.2857142857143</ele><time>2026-03-29T13:56:15.786Z</time></trkpt><trkpt lat="45.1394517" lon="7.5584933"><ele>298.71428571428567</ele><time>2026-03-29T13:56:17.789Z</time></trkpt><trkpt lat="45.1393867" lon="7.5584733"><ele>300.1428571428571</ele><time>2026-03-29T13:56:19.783Z</time></trkpt><trkpt lat="45.1393267" lon="7.5584267"><ele>301.57142857142856</ele><time>2026-03-29T13:56:21.784Z</time></trkpt><trkpt lat="45.1392717" lon="7.558355"><ele>303.0</ele><time>2026-03-29T13:56:23.793Z</time></trkpt><trkpt lat="45.1392333" lon="7.558275"><ele>303.0</ele><time>2026-03-29T13:56:25.782Z</time></trkpt><trkpt lat="45.1391767" lon="7.5581733"><ele>303.0</ele><time>2026-03-29T13:56:28.787Z</time></trkpt><trkpt lat="45.139125" lon="7.5580933"><ele>303.0</ele><time>2026-03-29T13:56:30.786Z</time></trkpt><trkpt lat="45.1390783" lon="7.5580167"><ele>303.0</ele><time>2026-03-29T13:56:32.862Z</time></trkpt><trkpt lat="45.1390433" lon="7.5579333"><ele>303.0</ele><time>2026-03-29T13:56:34.783Z</time></trkpt><trkpt lat="45.1390067" lon="7.55784"><ele>303.0</ele><time>2026-03-29T13:56:36.786Z</time></trkpt><trkpt lat="45.1389767" lon="7.5577433"><ele>304.5</ele><time>2026-03-29T13:56:38.842Z</time></trkpt><trkpt lat="45.138935" lon="7.5576483"><ele>306.0</ele><time>2026-03-29T13:56:40.783Z</time></trkpt><trkpt lat="45.1388983" lon="7.5575567"><ele>307.5</ele><time>2026-03-29T13:56:42.783Z</time></trkpt><trkpt lat="45.13886" lon="7.557465"><ele>309.0</ele><time>2026-03-29T13:56:44.85Z</time></trkpt><trkpt lat="45.1388217" lon="7.5573733"><ele>310.5</ele><time>2026-03-29T13:56:46.784Z</time></trkpt><trkpt lat="45.1387867" lon="7.5572767"><ele>312.0</ele><time>2026-03-29T13:56:48.791Z</time></trkpt><trkpt lat="45.138755" lon="7.5571783"><ele>312.0</ele><time>2026-03-29T13:56:50.84Z</time></trkpt><trkpt lat="45.1387133" lon="7.5570933"><ele>312.0</ele><time>2026-03-29T13:56:52.783Z</time></trkpt><trkpt lat="45.138655" lon="7.5570233"><ele>312.0</ele><time>2026-03-29T13:56:54.781Z</time></trkpt><trkpt lat="45.1386017" lon="7.556955"><ele>312.0</ele><time>2026-03-29T13:56:56.876Z</time></trkpt><trkpt lat="45.138545" lon="7.5569017"><ele>312.0</ele><time>2026-03-29T13:56:58.782Z</time></trkpt><trkpt lat="45.1384567" lon="7.556875"><ele>312.0</ele><time>2026-03-29T13:57:01.787Z</time></trkpt><trkpt lat="45.1383933" lon="7.5568367"><ele>312.0</ele><time>2026-03-29T13:57:04.784Z</time></trkpt><trkpt lat="45.1383283" lon="7.5568117"><ele>312.0</ele><time>2026-03-29T13:57:07.784Z</time></trkpt><trkpt lat="45.1382567" lon="7.556755"><ele>312.0</ele><time>2026-03-29T13:57:10.788Z</time></trkpt><trkpt lat="45.13818" lon="7.5567067"><ele>312.0</ele><time>2026-03-29T13:57:13.796Z</time></trkpt><trkpt lat="45.1381" lon="7.5566767"><ele>312.0</ele><time>2026-03-29T13:57:16.797Z</time></trkpt><trkpt lat="45.1380167" lon="7.5566433"><ele>312.0</ele><time>2026-03-29T13:57:19.782Z</time></trkpt><trkpt lat="45.13796" lon="7.5565583"><ele>312.0</ele><time>2026-03-29T13:57:22.786Z</time></trkpt><trkpt lat="45.13792" lon="7.5564867"><ele>312.0</ele><time>2026-03-29T13:57:24.784Z</time></trkpt><trkpt lat="45.1378833" lon="7.5564083"><ele>312.0</ele><time>2026-03-29T13:57:26.886Z</time></trkpt><trkpt lat="45.1378533" lon="7.5562917"><ele>312.0</ele><time>2026-03-29T13:57:28.788Z</time></trkpt><trkpt lat="45.137815" lon="7.55618"><ele>312.0</ele><time>2026-03-29T13:57:30.787Z</time></trkpt><trkpt lat="45.1377567" lon="7.5560883"><ele>312.0</ele><time>2026-03-29T13:57:33.78Z</time></trkpt><trkpt lat="45.1377133" lon="7.55601"><ele>312.0</ele><time>2026-03-29T13:57:35.795Z</time></trkpt><trkpt lat="45.13765" lon="7.5559"><ele>311.8333333333333</ele><time>2026-03-29T13:57:38.858Z</time></trkpt><trkpt lat="45.13761" lon="7.5558233"><ele>311.6666666666667</ele><time>2026-03-29T13:57:40.785Z</time></trkpt><trkpt lat="45.1375733" lon="7.555745"><ele>311.5</ele><time>2026-03-29T13:57:42.787Z</time></trkpt><trkpt lat="45.13753" lon="7.55567"><ele>311.33333333333337</ele><time>2026-03-29T13:57:44.842Z</time></trkpt><trkpt lat="45.1374917" lon="7.5555867"><ele>311.1666666666667</ele><time>2026-03-29T13:57:46.795Z</time></trkpt><trkpt lat="45.1374167" lon="7.5554117"><ele>311.0</ele><time>2026-03-29T13:57:50.898Z</time></trkpt><trkpt lat="45.1373917" lon="7.5553183"><ele>311.33333333333337</ele><time>2026-03-29T13:57:52.855Z</time></trkpt><trkpt lat="45.13738" lon="7.5552083"><ele>311.6666666666667</ele><time>2026-03-29T13:57:54.827Z</time></trkpt><trkpt lat="45.13736" lon="7.5551033"><ele>312.0</ele><time>2026-03-29T13:57:56.889Z</time></trkpt><trkpt lat="45.1373367" lon="7.554985"><ele>312.3333333333333</ele><time>2026-03-29T13:57:59.883Z</time></trkpt><trkpt lat="45.1373217" lon="7.5548917"><ele>312.66666666666663</ele><time>2026-03-29T13:58:01.89Z</time></trkpt><trkpt lat="45.1373067" lon="7.5547433"><ele>313.0</ele><time>2026-03-29T13:58:04.824Z</time></trkpt><trkpt lat="45.1372967" lon="7.554635"><ele>313.0</ele><time>2026-03-29T13:58:06.843Z</time></trkpt><trkpt lat="45.1372867" lon="7.5545317"><ele>313.0</ele><time>2026-03-29T13:58:08.902Z</time></trkpt><trkpt lat="45.1372733" lon="7.5544383"><ele>313.0</ele><time>2026-03-29T13:58:10.827Z</time></trkpt><trkpt lat="45.1372533" lon="7.55431"><ele>313.0</ele><time>2026-03-29T13:58:13.844Z</time></trkpt><trkpt lat="45.137245" lon="7.5542017"><ele>313.0</ele><time>2026-03-29T13:58:15.836Z</time></trkpt><trkpt lat="45.1372383" lon="7.5540967"><ele>313.0</ele><time>2026-03-29T13:58:17.825Z</time></trkpt><trkpt lat="45.1372267" lon="7.55399"><ele>313.0</ele><time>2026-03-29T13:58:19.897Z</time></trkpt><trkpt lat="45.1371967" lon="7.5538317"><ele>313.0</ele><time>2026-03-29T13:58:22.874Z</time></trkpt><trkpt lat="45.13718" lon="7.553735"><ele>313.0</ele><time>2026-03-29T13:58:24.875Z</time></trkpt><trkpt lat="45.1371733" lon="7.5536267"><ele>313.0</ele><time>2026-03-29T13:58:26.898Z</time></trkpt><trkpt lat="45.1371717" lon="7.5535183"><ele>313.0</ele><time>2026-03-29T13:58:28.842Z</time></trkpt><trkpt lat="45.137165" lon="7.5534183"><ele>313.0</ele><time>2026-03-29T13:58:30.825Z</time></trkpt><trkpt lat="45.1371567" lon="7.5533233"><ele>312.8333333333333</ele><time>2026-03-29T13:58:32.899Z</time></trkpt><trkpt lat="45.1371367" lon="7.5532217"><ele>312.66666666666663</ele><time>2026-03-29T13:58:34.812Z</time></trkpt><trkpt lat="45.13712" lon="7.5531133"><ele>312.5</ele><time>2026-03-29T13:58:36.894Z</time></trkpt><trkpt lat="45.1371133" lon="7.5529983"><ele>312.3333333333333</ele><time>2026-03-29T13:58:38.852Z</time></trkpt><trkpt lat="45.1371017" lon="7.552895"><ele>312.1666666666667</ele><time>2026-03-29T13:58:40.842Z</time></trkpt><trkpt lat="45.13709" lon="7.5527883"><ele>312.0</ele><time>2026-03-29T13:58:42.847Z</time></trkpt><trkpt lat="45.137085" lon="7.5526817"><ele>312.2857142857143</ele><time>2026-03-29T13:58:44.962Z</time></trkpt><trkpt lat="45.1370833" lon="7.5525817"><ele>312.57142857142856</ele><time>2026-03-29T13:58:46.837Z</time></trkpt><trkpt lat="45.13708" lon="7.55249"><ele>312.85714285714283</ele><time>2026-03-29T13:58:48.832Z</time></trkpt><trkpt lat="45.1370717" lon="7.55235"><ele>313.1428571428571</ele><time>2026-03-29T13:58:51.848Z</time></trkpt><trkpt lat="45.1370567" lon="7.5522567"><ele>313.42857142857144</ele><time>2026-03-29T13:58:53.849Z</time></trkpt><trkpt lat="45.1370383" lon="7.552165"><ele>313.71428571428567</ele><time>2026-03-29T13:58:55.844Z</time></trkpt><trkpt lat="45.137015" lon="7.5520633"><ele>314.0</ele><time>2026-03-29T13:58:57.855Z</time></trkpt><trkpt lat="45.1369917" lon="7.5519767"><ele>314.2857142857143</ele><time>2026-03-29T13:58:59.831Z</time></trkpt><trkpt lat="45.1369667" lon="7.5518883"><ele>314.57142857142856</ele><time>2026-03-29T13:59:01.862Z</time></trkpt><trkpt lat="45.136945" lon="7.5518033"><ele>314.8571428571429</ele><time>2026-03-29T13:59:03.824Z</time></trkpt><trkpt lat="45.1369083" lon="7.55171"><ele>315.1428571428571</ele><time>2026-03-29T13:59:06.843Z</time></trkpt><trkpt lat="45.1368633" lon="7.55159"><ele>315.42857142857144</ele><time>2026-03-29T13:59:09.831Z</time></trkpt><trkpt lat="45.1368267" lon="7.5515"><ele>315.7142857142857</ele><time>2026-03-29T13:59:11.852Z</time></trkpt><trkpt lat="45.1367767" lon="7.55143"><ele>316.0</ele><time>2026-03-29T13:59:13.793Z</time></trkpt><trkpt lat="45.1367267" lon="7.5513483"><ele>316.00000000000006</ele><time>2026-03-29T13:59:16.808Z</time></trkpt><trkpt lat="45.136705" lon="7.551255"><ele>316.0</ele><time>2026-03-29T13:59:19.839Z</time></trkpt><trkpt lat="45.136665" lon="7.5511667"><ele>316.0</ele><time>2026-03-29T13:59:22.842Z</time></trkpt><trkpt lat="45.1366117" lon="7.5510567"><ele>316.0</ele><time>2026-03-29T13:59:25.829Z</time></trkpt><trkpt lat="45.1365583" lon="7.55099"><ele>316.0</ele><time>2026-03-29T13:59:27.841Z</time></trkpt><trkpt lat="45.136495" lon="7.5509433"><ele>316.00000000000006</ele><time>2026-03-29T13:59:29.856Z</time></trkpt><trkpt lat="45.1364317" lon="7.5509033"><ele>316.0</ele><time>2026-03-29T13:59:31.805Z</time></trkpt><trkpt lat="45.1363467" lon="7.5508667"><ele>316.00000000000006</ele><time>2026-03-29T13:59:34.854Z</time></trkpt><trkpt lat="45.136275" lon="7.5507783"><ele>316.0</ele><time>2026-03-29T13:59:37.804Z</time></trkpt><trkpt lat="45.13623" lon="7.5507133"><ele>316.0</ele><time>2026-03-29T13:59:39.806Z</time></trkpt><trkpt lat="45.1362017" lon="7.5506233"><ele>316.0</ele><time>2026-03-29T13:59:41.781Z</time></trkpt><trkpt lat="45.1361717" lon="7.55054"><ele>316.0</ele><time>2026-03-29T13:59:43.796Z</time></trkpt><trkpt lat="45.1361367" lon="7.5504567"><ele>316.00000000000006</ele><time>2026-03-29T13:59:45.789Z</time></trkpt><trkpt lat="45.1360983" lon="7.5503633"><ele>316.0</ele><time>2026-03-29T13:59:47.793Z</time></trkpt><trkpt lat="45.1360567" lon="7.5502783"><ele>316.00000000000006</ele><time>2026-03-29T13:59:49.814Z</time></trkpt><trkpt lat="45.1360167" lon="7.5501983"><ele>316.0</ele><time>2026-03-29T13:59:51.799Z</time></trkpt><trkpt lat="45.13597" lon="7.5500933"><ele>316.0</ele><time>2026-03-29T13:59:54.787Z</time></trkpt><trkpt lat="45.1359317" lon="7.55002"><ele>316.0</ele><time>2026-03-29T13:59:56.856Z</time></trkpt><trkpt lat="45.1358817" lon="7.549935"><ele>316.0</ele><time>2026-03-29T13:59:58.784Z</time></trkpt><trkpt lat="45.1358367" lon="7.549855"><ele>316.00000000000006</ele><time>2026-03-29T14:00:00.811Z</time></trkpt><trkpt lat="45.1357967" lon="7.5497733"><ele>316.0</ele><time>2026-03-29T14:00:02.861Z</time></trkpt><trkpt lat="45.1357633" lon="7.54969"><ele>316.0</ele><time>2026-03-29T14:00:04.789Z</time></trkpt><trkpt lat="45.13573" lon="7.549605"><ele>316.0</ele><time>2026-03-29T14:00:06.787Z</time></trkpt><trkpt lat="45.1356917" lon="7.5495083"><ele>316.0</ele><time>2026-03-29T14:00:08.795Z</time></trkpt><trkpt lat="45.1356517" lon="7.5494167"><ele>316.0</ele><time>2026-03-29T14:00:10.786Z</time></trkpt><trkpt lat="45.1356033" lon="7.5493117"><ele>316.0</ele><time>2026-03-29T14:00:13.781Z</time></trkpt><trkpt lat="45.1355633" lon="7.54922"><ele>316.0</ele><time>2026-03-29T14:00:16.786Z</time></trkpt><trkpt lat="45.135515" lon="7.5491183"><ele>315.8571428571429</ele><time>2026-03-29T14:00:19.79Z</time></trkpt><trkpt lat="45.1354817" lon="7.5490417"><ele>315.7142857142857</ele><time>2026-03-29T14:00:21.791Z</time></trkpt><trkpt lat="45.13545" lon="7.5489617"><ele>315.57142857142856</ele><time>2026-03-29T14:00:23.798Z</time></trkpt><trkpt lat="45.1354117" lon="7.5488883"><ele>315.42857142857144</ele><time>2026-03-29T14:00:25.802Z</time></trkpt><trkpt lat="45.1353667" lon="7.548785"><ele>315.2857142857143</ele><time>2026-03-29T14:00:28.797Z</time></trkpt><trkpt lat="45.13533" lon="7.5486833"><ele>315.14285714285717</ele><time>2026-03-29T14:00:31.792Z</time></trkpt><trkpt lat="45.1352867" lon="7.548605"><ele>315.0</ele><time>2026-03-29T14:00:34.786Z</time></trkpt><trkpt lat="45.1352183" lon="7.54855"><ele>315.0</ele><time>2026-03-29T14:00:37.791Z</time></trkpt><trkpt lat="45.1351433" lon="7.54853"><ele>315.0</ele><time>2026-03-29T14:00:40.814Z</time></trkpt><trkpt lat="45.1350583" lon="7.5485417"><ele>315.0</ele><time>2026-03-29T14:00:43.79Z</time></trkpt><trkpt lat="45.134995" lon="7.5485517"><ele>315.0</ele><time>2026-03-29T14:00:45.807Z</time></trkpt><trkpt lat="45.1349317" lon="7.54857"><ele>315.0</ele><time>2026-03-29T14:00:47.779Z</time></trkpt><trkpt lat="45.1348683" lon="7.54856"><ele>315.0</ele><time>2026-03-29T14:00:50.79Z</time></trkpt><trkpt lat="45.134845" lon="7.5484433"><ele>315.0</ele><time>2026-03-29T14:00:53.796Z</time></trkpt><trkpt lat="45.1348167" lon="7.5483167"><ele>315.0</ele><time>2026-03-29T14:00:56.851Z</time></trkpt><trkpt lat="45.1347983" lon="7.5482017"><ele>315.0</ele><time>2026-03-29T14:00:59.786Z</time></trkpt><trkpt lat="45.1347683" lon="7.5480867"><ele>315.0</ele><time>2026-03-29T14:01:03.8Z</time></trkpt><trkpt lat="45.13473" lon="7.547965"><ele>315.0</ele><time>2026-03-29T14:01:06.778Z</time></trkpt><trkpt lat="45.1347067" lon="7.547875"><ele>315.0</ele><time>2026-03-29T14:01:08.792Z</time></trkpt><trkpt lat="45.1346817" lon="7.5477683"><ele>315.0</ele><time>2026-03-29T14:01:11.795Z</time></trkpt><trkpt lat="45.1346767" lon="7.5476567"><ele>315.14285714285717</ele><time>2026-03-29T14:01:14.802Z</time></trkpt><trkpt lat="45.1346567" lon="7.5475683"><ele>315.2857142857143</ele><time>2026-03-29T14:01:16.788Z</time></trkpt><trkpt lat="45.1346333" lon="7.54747"><ele>315.42857142857144</ele><time>2026-03-29T14:01:18.801Z</time></trkpt><trkpt lat="45.1346" lon="7.547375"><ele>315.57142857142856</ele><time>2026-03-29T14:01:20.819Z</time></trkpt><trkpt lat="45.134565" lon="7.5472883"><ele>315.7142857142857</ele><time>2026-03-29T14:01:22.785Z</time></trkpt><trkpt lat="45.134535" lon="7.5472017"><ele>315.8571428571429</ele><time>2026-03-29T14:01:24.786Z</time></trkpt><trkpt lat="45.1345" lon="7.5471167"><ele>316.0</ele><time>2026-03-29T14:01:26.882Z</time></trkpt><trkpt lat="45.1344767" lon="7.5470067"><ele>316.16666666666663</ele><time>2026-03-29T14:01:28.786Z</time></trkpt><trkpt lat="45.13445" lon="7.5469217"><ele>316.3333333333333</ele><time>2026-03-29T14:01:30.809Z</time></trkpt><trkpt lat="45.134425" lon="7.5468017"><ele>316.5</ele><time>2026-03-29T14:01:33.794Z</time></trkpt><trkpt lat="45.1344" lon="7.54668"><ele>316.6666666666667</ele><time>2026-03-29T14:01:36.8Z</time></trkpt><trkpt lat="45.1343817" lon="7.5465933"><ele>316.83333333333337</ele><time>2026-03-29T14:01:38.829Z</time></trkpt><trkpt lat="45.134365" lon="7.5464683"><ele>317.0</ele><time>2026-03-29T14:01:41.791Z</time></trkpt><trkpt lat="45.1343467" lon="7.5463383"><ele>317.2857142857143</ele><time>2026-03-29T14:01:44.829Z</time></trkpt><trkpt lat="45.13434" lon="7.5462083"><ele>317.57142857142856</ele><time>2026-03-29T14:01:47.805Z</time></trkpt><trkpt lat="45.1343333" lon="7.5461183"><ele>317.8571428571429</ele><time>2026-03-29T14:01:49.789Z</time></trkpt><trkpt lat="45.134325" lon="7.546025"><ele>318.1428571428571</ele><time>2026-03-29T14:01:51.795Z</time></trkpt><trkpt lat="45.1343183" lon="7.5459017"><ele>318.4285714285714</ele><time>2026-03-29T14:01:54.803Z</time></trkpt><trkpt lat="45.134305" lon="7.5458133"><ele>318.7142857142857</ele><time>2026-03-29T14:01:56.848Z</time></trkpt><trkpt lat="45.1342917" lon="7.545725"><ele>319.0</ele><time>2026-03-29T14:01:58.79Z</time></trkpt><trkpt lat="45.13426" lon="7.5456283"><ele>319.0</ele><time>2026-03-29T14:02:01.787Z</time></trkpt><trkpt lat="45.13422" lon="7.54554"><ele>319.0</ele><time>2026-03-29T14:02:04.788Z</time></trkpt><trkpt lat="45.134195" lon="7.5454167"><ele>319.0</ele><time>2026-03-29T14:02:07.784Z</time></trkpt><trkpt lat="45.134185" lon="7.5453267"><ele>319.0</ele><time>2026-03-29T14:02:09.788Z</time></trkpt><trkpt lat="45.1341717" lon="7.5451933"><ele>319.0</ele><time>2026-03-29T14:02:12.785Z</time></trkpt><trkpt lat="45.1341583" lon="7.54506"><ele>319.0</ele><time>2026-03-29T14:02:15.784Z</time></trkpt><trkpt lat="45.1341483" lon="7.5449717"><ele>319.0</ele><time>2026-03-29T14:02:17.786Z</time></trkpt><trkpt lat="45.1341367" lon="7.54488"><ele>319.0</ele><time>2026-03-29T14:02:19.812Z</time></trkpt><trkpt lat="45.1341167" lon="7.5447717"><ele>319.0</ele><time>2026-03-29T14:02:22.803Z</time></trkpt><trkpt lat="45.1340933" lon="7.5446517"><ele>319.0</ele><time>2026-03-29T14:02:25.788Z</time></trkpt><trkpt lat="45.1340933" lon="7.54453"><ele>319.0</ele><time>2026-03-29T14:02:28.788Z</time></trkpt><trkpt lat="45.1340683" lon="7.5444083"><ele>319.0</ele><time>2026-03-29T14:02:31.779Z</time></trkpt><trkpt lat="45.13402" lon="7.5443317"><ele>319.0</ele><time>2026-03-29T14:02:34.786Z</time></trkpt><trkpt lat="45.1339483" lon="7.5443333"><ele>319.0</ele><time>2026-03-29T14:02:37.787Z</time></trkpt><trkpt lat="45.13387" lon="7.5443817"><ele>319.0</ele><time>2026-03-29T14:02:40.787Z</time></trkpt><trkpt lat="45.133795" lon="7.5444433"><ele>319.0</ele><time>2026-03-29T14:02:43.795Z</time></trkpt><trkpt lat="45.1337233" lon="7.5444833"><ele>319.0</ele><time>2026-03-29T14:02:46.786Z</time></trkpt><trkpt lat="45.1336567" lon="7.544545"><ele>319.0</ele><time>2026-03-29T14:02:49.788Z</time></trkpt><trkpt lat="45.1336317" lon="7.544655"><ele>318.8333333333333</ele><time>2026-03-29T14:02:52.795Z</time></trkpt><trkpt lat="45.13361" lon="7.5447683"><ele>318.66666666666663</ele><time>2026-03-29T14:02:55.79Z</time></trkpt><trkpt lat="45.1336033" lon="7.5448733"><ele>318.5</ele><time>2026-03-29T14:02:58.785Z</time></trkpt><trkpt lat="45.133585" lon="7.5449833"><ele>318.3333333333333</ele><time>2026-03-29T14:03:01.85Z</time></trkpt><trkpt lat="45.1335167" lon="7.545065"><ele>318.1666666666667</ele><time>2026-03-29T14:03:04.845Z</time></trkpt><trkpt lat="45.1334567" lon="7.54512"><ele>318.0</ele><time>2026-03-29T14:03:06.826Z</time></trkpt><trkpt lat="45.13338" lon="7.5451817"><ele>318.0</ele><time>2026-03-29T14:03:09.824Z</time></trkpt><trkpt lat="45.1333017" lon="7.5452333"><ele>318.0</ele><time>2026-03-29T14:03:12.841Z</time></trkpt><trkpt lat="45.133225" lon="7.5452867"><ele>318.0</ele><time>2026-03-29T14:03:15.838Z</time></trkpt><trkpt lat="45.1331683" lon="7.54533"><ele>318.0</ele><time>2026-03-29T14:03:18.99Z</time></trkpt><trkpt lat="45.13308" lon="7.5454033"><ele>318.0</ele><time>2026-03-29T14:03:23.846Z</time></trkpt><trkpt lat="45.1330067" lon="7.54546"><ele>318.0</ele><time>2026-03-29T14:03:26.888Z</time></trkpt><trkpt lat="45.13294" lon="7.545505"><ele>318.1666666666667</ele><time>2026-03-29T14:03:29.797Z</time></trkpt><trkpt lat="45.13287" lon="7.5455617"><ele>318.3333333333333</ele><time>2026-03-29T14:03:32.899Z</time></trkpt><trkpt lat="45.1328067" lon="7.5456117"><ele>318.5</ele><time>2026-03-29T14:03:35.798Z</time></trkpt><trkpt lat="45.1327383" lon="7.54565"><ele>318.66666666666663</ele><time>2026-03-29T14:03:38.889Z</time></trkpt><trkpt lat="45.1326733" lon="7.545705"><ele>318.8333333333333</ele><time>2026-03-29T14:03:41.869Z</time></trkpt><trkpt lat="45.132605" lon="7.5457533"><ele>319.0</ele><time>2026-03-29T14:03:44.889Z</time></trkpt><trkpt lat="45.1325367" lon="7.5458"><ele>319.0</ele><time>2026-03-29T14:03:47.858Z</time></trkpt><trkpt lat="45.1324733" lon="7.54585"><ele>319.0</ele><time>2026-03-29T14:03:50.878Z</time></trkpt><trkpt lat="45.132415" lon="7.5458883"><ele>319.0</ele><time>2026-03-29T14:03:52.823Z</time></trkpt><trkpt lat="45.132345" lon="7.5459383"><ele>319.0</ele><time>2026-03-29T14:03:55.83Z</time></trkpt><trkpt lat="45.1322833" lon="7.5459967"><ele>319.0</ele><time>2026-03-29T14:03:58.829Z</time></trkpt><trkpt lat="45.1322017" lon="7.54602"><ele>319.0</ele><time>2026-03-29T14:04:01.788Z</time></trkpt><trkpt lat="45.132145" lon="7.5459417"><ele>318.8333333333333</ele><time>2026-03-29T14:04:05.841Z</time></trkpt><trkpt lat="45.1321183" lon="7.5458383"><ele>318.66666666666663</ele><time>2026-03-29T14:04:08.854Z</time></trkpt><trkpt lat="45.1320867" lon="7.5457383"><ele>318.5</ele><time>2026-03-29T14:04:11.843Z</time></trkpt><trkpt lat="45.1320567" lon="7.5456267"><ele>318.3333333333333</ele><time>2026-03-29T14:04:14.838Z</time></trkpt><trkpt lat="45.1320367" lon="7.5455133"><ele>318.1666666666667</ele><time>2026-03-29T14:04:17.849Z</time></trkpt><trkpt lat="45.1320267" lon="7.5454217"><ele>318.0</ele><time>2026-03-29T14:04:20.85Z</time></trkpt><trkpt lat="45.1320017" lon="7.5453383"><ele>318.0</ele><time>2026-03-29T14:04:23.837Z</time></trkpt><trkpt lat="45.131975" lon="7.5452317"><ele>318.0</ele><time>2026-03-29T14:04:26.898Z</time></trkpt><trkpt lat="45.1319467" lon="7.545135"><ele>318.0</ele><time>2026-03-29T14:04:30.856Z</time></trkpt><trkpt lat="45.1319233" lon="7.5450433"><ele>318.0</ele><time>2026-03-29T14:04:38.832Z</time></trkpt><trkpt lat="45.1319" lon="7.544945"><ele>318.0</ele><time>2026-03-29T14:04:41.798Z</time></trkpt><trkpt lat="45.1318717" lon="7.54485"><ele>318.0</ele><time>2026-03-29T14:04:44.827Z</time></trkpt><trkpt lat="45.1318433" lon="7.5447583"><ele>318.0</ele><time>2026-03-29T14:04:47.845Z</time></trkpt><trkpt lat="45.1318167" lon="7.544675"><ele>318.0</ele><time>2026-03-29T14:04:52.865Z</time></trkpt><trkpt lat="45.1317867" lon="7.544575"><ele>318.0</ele><time>2026-03-29T14:04:56.859Z</time></trkpt><trkpt lat="45.1317667" lon="7.5444867"><ele>318.0</ele><time>2026-03-29T14:04:59.8Z</time></trkpt><trkpt lat="45.1317483" lon="7.5443983"><ele>318.0</ele><time>2026-03-29T14:05:02.893Z</time></trkpt><trkpt lat="45.1317183" lon="7.5443067"><ele>318.0</ele><time>2026-03-29T14:05:05.842Z</time></trkpt><trkpt lat="45.13168" lon="7.54422"><ele>318.0</ele><time>2026-03-29T14:05:08.845Z</time></trkpt><trkpt lat="45.1316533" lon="7.5441133"><ele>318.0</ele><time>2026-03-29T14:05:11.816Z</time></trkpt><trkpt lat="45.13163" lon="7.5440183"><ele>318.0</ele><time>2026-03-29T14:05:14.849Z</time></trkpt><trkpt lat="45.1316" lon="7.5439367"><ele>318.0</ele><time>2026-03-29T14:05:17.866Z</time></trkpt><trkpt lat="45.13156" lon="7.5438433"><ele>318.0</ele><time>2026-03-29T14:05:20.873Z</time></trkpt><trkpt lat="45.1315217" lon="7.5437683"><ele>318.0</ele><time>2026-03-29T14:05:24.827Z</time></trkpt><trkpt lat="45.13148" lon="7.5436867"><ele>318.0</ele><time>2026-03-29T14:05:30.835Z</time></trkpt><trkpt lat="45.1314433" lon="7.5436083"><ele>318.0</ele><time>2026-03-29T14:05:33.877Z</time></trkpt><trkpt lat="45.1313883" lon="7.543525"><ele>318.0</ele><time>2026-03-29T14:05:36.87Z</time></trkpt><trkpt lat="45.1313317" lon="7.5434367"><ele>318.2</ele><time>2026-03-29T14:05:39.887Z</time></trkpt><trkpt lat="45.1312817" lon="7.5433283"><ele>318.4</ele><time>2026-03-29T14:05:42.909Z</time></trkpt><trkpt lat="45.131215" lon="7.543185"><ele>318.59999999999997</ele><time>2026-03-29T14:05:46.921Z</time></trkpt><trkpt lat="45.13115" lon="7.5430867"><ele>318.8</ele><time>2026-03-29T14:05:50.896Z</time></trkpt><trkpt lat="45.1311167" lon="7.543"><ele>319.0</ele><time>2026-03-29T14:05:54.028Z</time></trkpt><trkpt lat="45.1310733" lon="7.542905"><ele>319.0</ele><time>2026-03-29T14:05:56.979Z</time></trkpt><trkpt lat="45.13102" lon="7.5428167"><ele>319.0</ele><time>2026-03-29T14:05:59.986Z</time></trkpt><trkpt lat="45.13097" lon="7.5427133"><ele>319.0</ele><time>2026-03-29T14:06:02.962Z</time></trkpt><trkpt lat="45.1309017" lon="7.5425683"><ele>319.0</ele><time>2026-03-29T14:06:06.848Z</time></trkpt><trkpt lat="45.13086" lon="7.5424717"><ele>319.0</ele><time>2026-03-29T14:06:09.874Z</time></trkpt><trkpt lat="45.1308167" lon="7.5423783"><ele>319.0</ele><time>2026-03-29T14:06:12.906Z</time></trkpt><trkpt lat="45.1307817" lon="7.5423033"><ele>319.0</ele><time>2026-03-29T14:06:14.958Z</time></trkpt><trkpt lat="45.130735" lon="7.542205"><ele>319.0</ele><time>2026-03-29T14:06:17.962Z</time></trkpt><trkpt lat="45.1306933" lon="7.542115"><ele>319.0</ele><time>2026-03-29T14:06:20.891Z</time></trkpt><trkpt lat="45.130645" lon="7.5420083"><ele>319.0</ele><time>2026-03-29T14:06:23.878Z</time></trkpt><trkpt lat="45.1305967" lon="7.5419"><ele>319.0</ele><time>2026-03-29T14:06:26.982Z</time></trkpt><trkpt lat="45.13055" lon="7.541815"><ele>319.3333333333333</ele><time>2026-03-29T14:06:29.874Z</time></trkpt><trkpt lat="45.130505" lon="7.541715"><ele>319.66666666666663</ele><time>2026-03-29T14:06:32.95Z</time></trkpt><trkpt lat="45.1304383" lon="7.541655"><ele>320.0</ele><time>2026-03-29T14:06:36.853Z</time></trkpt><trkpt lat="45.1303667" lon="7.5417133"><ele>320.3333333333333</ele><time>2026-03-29T14:06:40.885Z</time></trkpt><trkpt lat="45.130295" lon="7.541775"><ele>320.6666666666667</ele><time>2026-03-29T14:06:43.82Z</time></trkpt><trkpt lat="45.1302367" lon="7.5418467"><ele>321.0</ele><time>2026-03-29T14:06:45.819Z</time></trkpt><trkpt lat="45.1301767" lon="7.5418967"><ele>320.99999999999994</ele><time>2026-03-29T14:06:47.837Z</time></trkpt><trkpt lat="45.130115" lon="7.5419417"><ele>321.0</ele><time>2026-03-29T14:06:49.834Z</time></trkpt><trkpt lat="45.130055" lon="7.5419883"><ele>321.0</ele><time>2026-03-29T14:06:51.845Z</time></trkpt><trkpt lat="45.129995" lon="7.54204"><ele>321.0</ele><time>2026-03-29T14:06:53.852Z</time></trkpt><trkpt lat="45.1299317" lon="7.5420867"><ele>321.0</ele><time>2026-03-29T14:06:55.835Z</time></trkpt><trkpt lat="45.129875" lon="7.5421283"><ele>320.99999999999994</ele><time>2026-03-29T14:06:57.842Z</time></trkpt><trkpt lat="45.1298017" lon="7.542185"><ele>321.0</ele><time>2026-03-29T14:07:00.852Z</time></trkpt><trkpt lat="45.129725" lon="7.5422567"><ele>320.5</ele><time>2026-03-29T14:07:03.842Z</time></trkpt><trkpt lat="45.1296433" lon="7.5423083"><ele>320.0</ele><time>2026-03-29T14:07:06.885Z</time></trkpt><trkpt lat="45.1295667" lon="7.5423667"><ele>319.5</ele><time>2026-03-29T14:07:09.814Z</time></trkpt><trkpt lat="45.12949" lon="7.5424167"><ele>319.0</ele><time>2026-03-29T14:07:12.819Z</time></trkpt><trkpt lat="45.12941" lon="7.5424533"><ele>318.5</ele><time>2026-03-29T14:07:15.844Z</time></trkpt><trkpt lat="45.1293333" lon="7.5425067"><ele>318.0</ele><time>2026-03-29T14:07:18.803Z</time></trkpt><trkpt lat="45.1292783" lon="7.5425583"><ele>318.0</ele><time>2026-03-29T14:07:20.865Z</time></trkpt><trkpt lat="45.1292033" lon="7.5426267"><ele>318.0</ele><time>2026-03-29T14:07:23.803Z</time></trkpt><trkpt lat="45.1291233" lon="7.5426733"><ele>318.0</ele><time>2026-03-29T14:07:26.858Z</time></trkpt><trkpt lat="45.1290517" lon="7.5427267"><ele>318.0</ele><time>2026-03-29T14:07:29.848Z</time></trkpt><trkpt lat="45.128985" lon="7.542745"><ele>318.0</ele><time>2026-03-29T14:07:31.859Z</time></trkpt><trkpt lat="45.12891" lon="7.542765"><ele>318.0</ele><time>2026-03-29T14:07:34.824Z</time></trkpt><trkpt lat="45.1288267" lon="7.5428033"><ele>318.5</ele><time>2026-03-29T14:07:37.827Z</time></trkpt><trkpt lat="45.1287633" lon="7.5428433"><ele>319.0</ele><time>2026-03-29T14:07:39.829Z</time></trkpt><trkpt lat="45.1286983" lon="7.5428933"><ele>319.5</ele><time>2026-03-29T14:07:41.813Z</time></trkpt><trkpt lat="45.1286333" lon="7.5429283"><ele>320.0</ele><time>2026-03-29T14:07:43.822Z</time></trkpt><trkpt lat="45.1285517" lon="7.54297"><ele>320.5</ele><time>2026-03-29T14:07:46.792Z</time></trkpt><trkpt lat="45.1284767" lon="7.5430217"><ele>321.0</ele><time>2026-03-29T14:07:49.838Z</time></trkpt><trkpt lat="45.1284133" lon="7.543075"><ele>320.99999999999994</ele><time>2026-03-29T14:07:51.846Z</time></trkpt><trkpt lat="45.1283283" lon="7.5431333"><ele>321.0</ele><time>2026-03-29T14:07:54.815Z</time></trkpt><trkpt lat="45.128265" lon="7.5431783"><ele>321.0</ele><time>2026-03-29T14:07:56.975Z</time></trkpt><trkpt lat="45.128205" lon="7.5432217"><ele>321.0</ele><time>2026-03-29T14:07:58.794Z</time></trkpt><trkpt lat="45.1281383" lon="7.5432683"><ele>321.0</ele><time>2026-03-29T14:08:00.828Z</time></trkpt><trkpt lat="45.1280767" lon="7.5433133"><ele>320.99999999999994</ele><time>2026-03-29T14:08:02.936Z</time></trkpt><trkpt lat="45.128015" lon="7.5433467"><ele>321.0</ele><time>2026-03-29T14:08:04.841Z</time></trkpt><trkpt lat="45.1279533" lon="7.5433883"><ele>320.71428571428567</ele><time>2026-03-29T14:08:06.824Z</time></trkpt><trkpt lat="45.1278917" lon="7.5434317"><ele>320.42857142857144</ele><time>2026-03-29T14:08:08.858Z</time></trkpt><trkpt lat="45.1278333" lon="7.5434783"><ele>320.1428571428571</ele><time>2026-03-29T14:08:10.819Z</time></trkpt><trkpt lat="45.1277683" lon="7.5435183"><ele>319.85714285714283</ele><time>2026-03-29T14:08:12.83Z</time></trkpt><trkpt lat="45.1277017" lon="7.5435583"><ele>319.57142857142856</ele><time>2026-03-29T14:08:14.87Z</time></trkpt><trkpt lat="45.127635" lon="7.543605"><ele>319.2857142857143</ele><time>2026-03-29T14:08:16.837Z</time></trkpt><trkpt lat="45.1275683" lon="7.54365"><ele>319.0</ele><time>2026-03-29T14:08:18.831Z</time></trkpt><trkpt lat="45.1275067" lon="7.5436933"><ele>318.8571428571429</ele><time>2026-03-29T14:08:20.884Z</time></trkpt><trkpt lat="45.127445" lon="7.5437283"><ele>318.71428571428567</ele><time>2026-03-29T14:08:22.826Z</time></trkpt><trkpt lat="45.1273883" lon="7.5437717"><ele>318.57142857142856</ele><time>2026-03-29T14:08:24.805Z</time></trkpt><trkpt lat="45.12732" lon="7.5438433"><ele>318.42857142857144</ele><time>2026-03-29T14:08:27.849Z</time></trkpt><trkpt lat="45.1272833" lon="7.5439167"><ele>318.28571428571433</ele><time>2026-03-29T14:08:32.891Z</time></trkpt><trkpt lat="45.12729" lon="7.5440133"><ele>318.1428571428571</ele><time>2026-03-29T14:08:40.959Z</time></trkpt><trkpt lat="45.12732" lon="7.5440967"><ele>318.0</ele><time>2026-03-29T14:08:45.869Z</time></trkpt><trkpt lat="45.12736" lon="7.5441683"><ele>318.0</ele><time>2026-03-29T14:09:30.855Z</time></trkpt><trkpt lat="45.12738" lon="7.544275"><ele>318.0</ele><time>2026-03-29T14:09:33.827Z</time></trkpt><trkpt lat="45.127405" lon="7.5444"><ele>318.0</ele><time>2026-03-29T14:09:36.826Z</time></trkpt><trkpt lat="45.12744" lon="7.544505"><ele>318.0</ele><time>2026-03-29T14:09:39.84Z</time></trkpt><trkpt lat="45.1274783" lon="7.54461"><ele>318.0</ele><time>2026-03-29T14:09:42.846Z</time></trkpt><trkpt lat="45.1275267" lon="7.5447167"><ele>318.0</ele><time>2026-03-29T14:09:45.791Z</time></trkpt><trkpt lat="45.1275717" lon="7.5448233"><ele>318.1428571428571</ele><time>2026-03-29T14:09:48.811Z</time></trkpt><trkpt lat="45.12761" lon="7.544935"><ele>318.28571428571433</ele><time>2026-03-29T14:09:51.817Z</time></trkpt><trkpt lat="45.1276383" lon="7.5450167"><ele>318.42857142857144</ele><time>2026-03-29T14:09:53.831Z</time></trkpt><trkpt lat="45.127665" lon="7.545105"><ele>318.57142857142856</ele><time>2026-03-29T14:09:55.831Z</time></trkpt><trkpt lat="45.1276933" lon="7.5451917"><ele>318.71428571428567</ele><time>2026-03-29T14:09:57.852Z</time></trkpt><trkpt lat="45.12772" lon="7.545285"><ele>318.8571428571429</ele><time>2026-03-29T14:09:59.856Z</time></trkpt><trkpt lat="45.1277483" lon="7.5453833"><ele>319.0</ele><time>2026-03-29T14:10:01.826Z</time></trkpt><trkpt lat="45.12778" lon="7.54547"><ele>318.5</ele><time>2026-03-29T14:10:03.811Z</time></trkpt><trkpt lat="45.1278033" lon="7.5455533"><ele>318.0</ele><time>2026-03-29T14:10:05.915Z</time></trkpt><trkpt lat="45.1278283" lon="7.5456417"><ele>317.5</ele><time>2026-03-29T14:10:07.847Z</time></trkpt><trkpt lat="45.12786" lon="7.5457267"><ele>317.0</ele><time>2026-03-29T14:10:09.867Z</time></trkpt><trkpt lat="45.1278983" lon="7.5458433"><ele>316.5</ele><time>2026-03-29T14:10:12.841Z</time></trkpt><trkpt lat="45.1279333" lon="7.5459467"><ele>316.0</ele><time>2026-03-29T14:10:15.837Z</time></trkpt><trkpt lat="45.1279617" lon="7.54606"><ele>316.0</ele><time>2026-03-29T14:10:18.819Z</time></trkpt><trkpt lat="45.12799" lon="7.546175"><ele>316.0</ele><time>2026-03-29T14:10:21.819Z</time></trkpt><trkpt lat="45.1280267" lon="7.54628"><ele>316.0</ele><time>2026-03-29T14:10:24.867Z</time></trkpt><trkpt lat="45.12806" lon="7.5463683"><ele>316.0</ele><time>2026-03-29T14:10:27.83Z</time></trkpt><trkpt lat="45.12809" lon="7.5464533"><ele>316.0</ele><time>2026-03-29T14:10:31.913Z</time></trkpt><trkpt lat="45.1281233" lon="7.5465533"><ele>316.0</ele><time>2026-03-29T14:10:34.801Z</time></trkpt><trkpt lat="45.128145" lon="7.54665"><ele>316.16666666666663</ele><time>2026-03-29T14:10:37.822Z</time></trkpt><trkpt lat="45.1281317" lon="7.5467467"><ele>316.3333333333333</ele><time>2026-03-29T14:10:42.838Z</time></trkpt><trkpt lat="45.1280733" lon="7.5467883"><ele>316.5</ele><time>2026-03-29T14:10:46.819Z</time></trkpt><trkpt lat="45.12798" lon="7.54686"><ele>316.6666666666667</ele><time>2026-03-29T14:11:05.842Z</time></trkpt><trkpt lat="45.1278967" lon="7.5468967"><ele>316.83333333333337</ele><time>2026-03-29T14:11:08.849Z</time></trkpt><trkpt lat="45.1278183" lon="7.5469467"><ele>317.0</ele><time>2026-03-29T14:11:11.831Z</time></trkpt><trkpt lat="45.1277533" lon="7.54699"><ele>317.0</ele><time>2026-03-29T14:11:14.855Z</time></trkpt><trkpt lat="45.127695" lon="7.54704"><ele>317.0</ele><time>2026-03-29T14:11:17.829Z</time></trkpt><trkpt lat="45.1276383" lon="7.54708"><ele>317.0</ele><time>2026-03-29T14:11:20.883Z</time></trkpt><trkpt lat="45.1275783" lon="7.54712"><ele>317.0</ele><time>2026-03-29T14:11:24.836Z</time></trkpt><trkpt lat="45.1274983" lon="7.5471717"><ele>317.0</ele><time>2026-03-29T14:11:28.823Z</time></trkpt><trkpt lat="45.1274417" lon="7.5472133"><ele>317.0</ele><time>2026-03-29T14:11:30.843Z</time></trkpt><trkpt lat="45.1273717" lon="7.547265"><ele>317.0</ele><time>2026-03-29T14:11:33.839Z</time></trkpt><trkpt lat="45.1272933" lon="7.547315"><ele>316.33333333333337</ele><time>2026-03-29T14:11:36.87Z</time></trkpt><trkpt lat="45.1272133" lon="7.5473617"><ele>315.6666666666667</ele><time>2026-03-29T14:11:39.855Z</time></trkpt><trkpt lat="45.1271033" lon="7.5474267"><ele>315.0</ele><time>2026-03-29T14:11:44.858Z</time></trkpt><trkpt lat="45.1270417" lon="7.5474617"><ele>314.3333333333333</ele><time>2026-03-29T14:11:47.788Z</time></trkpt><trkpt lat="45.1269667" lon="7.5475067"><ele>313.66666666666663</ele><time>2026-03-29T14:11:50.866Z</time></trkpt><trkpt lat="45.1268817" lon="7.547555"><ele>313.0</ele><time>2026-03-29T14:11:53.834Z</time></trkpt><trkpt lat="45.1268233" lon="7.547595"><ele>313.0</ele><time>2026-03-29T14:11:55.837Z</time></trkpt><trkpt lat="45.12674" lon="7.5476517"><ele>313.0</ele><time>2026-03-29T14:11:58.827Z</time></trkpt><trkpt lat="45.12668" lon="7.5476883"><ele>313.0</ele><time>2026-03-29T14:12:00.819Z</time></trkpt><trkpt lat="45.1266217" lon="7.5477267"><ele>313.0</ele><time>2026-03-29T14:12:02.918Z</time></trkpt><trkpt lat="45.1265617" lon="7.5477667"><ele>313.0</ele><time>2026-03-29T14:12:04.825Z</time></trkpt><trkpt lat="45.126505" lon="7.5478067"><ele>313.0</ele><time>2026-03-29T14:12:06.812Z</time></trkpt><trkpt lat="45.1264133" lon="7.5478617"><ele>312.3333333333333</ele><time>2026-03-29T14:12:09.844Z</time></trkpt><trkpt lat="45.1263517" lon="7.5478933"><ele>311.66666666666663</ele><time>2026-03-29T14:12:11.795Z</time></trkpt><trkpt lat="45.1262733" lon="7.5479417"><ele>311.0</ele><time>2026-03-29T14:12:14.833Z</time></trkpt><trkpt lat="45.1261917" lon="7.5480067"><ele>310.3333333333333</ele><time>2026-03-29T14:12:17.801Z</time></trkpt><trkpt lat="45.1261083" lon="7.5480633"><ele>309.6666666666667</ele><time>2026-03-29T14:12:20.867Z</time></trkpt><trkpt lat="45.12603" lon="7.5481183"><ele>309.0</ele><time>2026-03-29T14:12:23.865Z</time></trkpt><trkpt lat="45.125945" lon="7.5481767"><ele>309.0</ele><time>2026-03-29T14:12:26.897Z</time></trkpt><trkpt lat="45.1258717" lon="7.54823"><ele>309.0</ele><time>2026-03-29T14:12:29.837Z</time></trkpt><trkpt lat="45.1257967" lon="7.5482833"><ele>309.0</ele><time>2026-03-29T14:12:32.88Z</time></trkpt><trkpt lat="45.1257283" lon="7.5483267"><ele>309.0</ele><time>2026-03-29T14:12:35.838Z</time></trkpt><trkpt lat="45.1256583" lon="7.5483717"><ele>309.0</ele><time>2026-03-29T14:12:38.879Z</time></trkpt><trkpt lat="45.1255917" lon="7.5484233"><ele>309.0</ele><time>2026-03-29T14:12:41.835Z</time></trkpt><trkpt lat="45.12552" lon="7.5484717"><ele>309.0</ele><time>2026-03-29T14:12:44.892Z</time></trkpt><trkpt lat="45.1254583" lon="7.548515"><ele>309.0</ele><time>2026-03-29T14:12:47.802Z</time></trkpt><trkpt lat="45.12538" lon="7.548565"><ele>309.0</ele><time>2026-03-29T14:12:50.878Z</time></trkpt><trkpt lat="45.125305" lon="7.5486117"><ele>309.0</ele><time>2026-03-29T14:12:53.839Z</time></trkpt><trkpt lat="45.125235" lon="7.5486617"><ele>309.0</ele><time>2026-03-29T14:12:56.842Z</time></trkpt><trkpt lat="45.125165" lon="7.54871"><ele>309.0</ele><time>2026-03-29T14:12:59.841Z</time></trkpt><trkpt lat="45.125095" lon="7.5487683"><ele>309.0</ele><time>2026-03-29T14:13:02.879Z</time></trkpt><trkpt lat="45.1250317" lon="7.5488167"><ele>309.0</ele><time>2026-03-29T14:13:05.785Z</time></trkpt><trkpt lat="45.1249567" lon="7.5488533"><ele>309.0</ele><time>2026-03-29T14:13:08.883Z</time></trkpt><trkpt lat="45.124885" lon="7.5488883"><ele>309.0</ele><time>2026-03-29T14:13:11.81Z</time></trkpt><trkpt lat="45.1248083" lon="7.5489283"><ele>309.0</ele><time>2026-03-29T14:13:14.939Z</time></trkpt><trkpt lat="45.1247333" lon="7.5489733"><ele>309.0</ele><time>2026-03-29T14:13:17.825Z</time></trkpt><trkpt lat="45.124675" lon="7.5490183"><ele>309.5</ele><time>2026-03-29T14:13:20.9Z</time></trkpt><trkpt lat="45.12461" lon="7.5490733"><ele>310.0</ele><time>2026-03-29T14:13:23.837Z</time></trkpt><trkpt lat="45.1245283" lon="7.549135"><ele>310.5</ele><time>2026-03-29T14:13:26.899Z</time></trkpt><trkpt lat="45.124465" lon="7.5491617"><ele>311.0</ele><time>2026-03-29T14:13:29.847Z</time></trkpt><trkpt lat="45.1243867" lon="7.5492267"><ele>311.5</ele><time>2026-03-29T14:13:32.898Z</time></trkpt><trkpt lat="45.12431" lon="7.5492783"><ele>312.0</ele><time>2026-03-29T14:13:35.824Z</time></trkpt><trkpt lat="45.124235" lon="7.5493233"><ele>312.0</ele><time>2026-03-29T14:13:38.87Z</time></trkpt><trkpt lat="45.1241733" lon="7.5493517"><ele>312.0</ele><time>2026-03-29T14:13:41.825Z</time></trkpt><trkpt lat="45.124095" lon="7.5493933"><ele>312.0</ele><time>2026-03-29T14:13:44.946Z</time></trkpt><trkpt lat="45.1240517" lon="7.54946"><ele>312.0</ele><time>2026-03-29T14:13:46.924Z</time></trkpt><trkpt lat="45.1239767" lon="7.5495183"><ele>312.0</ele><time>2026-03-29T14:13:49.907Z</time></trkpt><trkpt lat="45.12391" lon="7.549535"><ele>312.0</ele><time>2026-03-29T14:13:52.865Z</time></trkpt><trkpt lat="45.1238417" lon="7.5495733"><ele>312.0</ele><time>2026-03-29T14:13:55.882Z</time></trkpt><trkpt lat="45.1237783" lon="7.5495733"><ele>311.6666666666667</ele><time>2026-03-29T14:14:04.908Z</time></trkpt><trkpt lat="45.123745" lon="7.54949"><ele>311.3333333333333</ele><time>2026-03-29T14:14:11.85Z</time></trkpt><trkpt lat="45.1237567" lon="7.5493733"><ele>311.0</ele><time>2026-03-29T14:14:15.858Z</time></trkpt><trkpt lat="45.12379" lon="7.549235"><ele>310.66666666666663</ele><time>2026-03-29T14:14:19.911Z</time></trkpt><trkpt lat="45.1238133" lon="7.54915"><ele>310.3333333333333</ele><time>2026-03-29T14:14:21.793Z</time></trkpt><trkpt lat="45.12384" lon="7.54906"><ele>310.0</ele><time>2026-03-29T14:14:24.826Z</time></trkpt><trkpt lat="45.1238667" lon="7.5489533"><ele>310.0</ele><time>2026-03-29T14:14:27.881Z</time></trkpt><trkpt lat="45.12389" lon="7.54884"><ele>310.0</ele><time>2026-03-29T14:14:30.832Z</time></trkpt><trkpt lat="45.1239167" lon="7.5487317"><ele>310.0</ele><time>2026-03-29T14:14:33.834Z</time></trkpt><trkpt lat="45.1239367" lon="7.5486217"><ele>310.0</ele><time>2026-03-29T14:14:36.845Z</time></trkpt><trkpt lat="45.1239417" lon="7.5485"><ele>310.0</ele><time>2026-03-29T14:14:39.836Z</time></trkpt><trkpt lat="45.1239467" lon="7.5483967"><ele>310.0</ele><time>2026-03-29T14:14:41.838Z</time></trkpt><trkpt lat="45.1239617" lon="7.5482683"><ele>309.8333333333333</ele><time>2026-03-29T14:14:44.928Z</time></trkpt><trkpt lat="45.1239683" lon="7.5481733"><ele>309.66666666666663</ele><time>2026-03-29T14:14:46.951Z</time></trkpt><trkpt lat="45.123965" lon="7.5480733"><ele>309.5</ele><time>2026-03-29T14:14:48.851Z</time></trkpt><trkpt lat="45.1239667" lon="7.5479367"><ele>309.3333333333333</ele><time>2026-03-29T14:14:51.832Z</time></trkpt><trkpt lat="45.1239633" lon="7.547805"><ele>309.1666666666667</ele><time>2026-03-29T14:14:54.801Z</time></trkpt><trkpt lat="45.1239717" lon="7.5476817"><ele>309.0</ele><time>2026-03-29T14:14:57.802Z</time></trkpt><trkpt lat="45.1239817" lon="7.5475883"><ele>309.5</ele><time>2026-03-29T14:14:59.815Z</time></trkpt><trkpt lat="45.1239817" lon="7.5474583"><ele>310.0</ele><time>2026-03-29T14:15:02.859Z</time></trkpt><trkpt lat="45.123975" lon="7.547365"><ele>310.5</ele><time>2026-03-29T14:15:04.817Z</time></trkpt><trkpt lat="45.1239667" lon="7.5472733"><ele>311.0</ele><time>2026-03-29T14:15:06.785Z</time></trkpt><trkpt lat="45.123955" lon="7.5471367"><ele>311.5</ele><time>2026-03-29T14:15:09.792Z</time></trkpt><trkpt lat="45.1239433" lon="7.5470417"><ele>312.0</ele><time>2026-03-29T14:15:11.841Z</time></trkpt><trkpt lat="45.1239333" lon="7.54691"><ele>312.1666666666667</ele><time>2026-03-29T14:15:14.879Z</time></trkpt><trkpt lat="45.123935" lon="7.5468133"><ele>312.3333333333333</ele><time>2026-03-29T14:15:16.824Z</time></trkpt><trkpt lat="45.1239317" lon="7.5467217"><ele>312.5</ele><time>2026-03-29T14:15:18.8Z</time></trkpt><trkpt lat="45.123915" lon="7.5465917"><ele>312.66666666666663</ele><time>2026-03-29T14:15:21.834Z</time></trkpt><trkpt lat="45.1238867" lon="7.5464667"><ele>312.8333333333333</ele><time>2026-03-29T14:15:24.848Z</time></trkpt><trkpt lat="45.12387" lon="7.5463717"><ele>313.0</ele><time>2026-03-29T14:15:26.864Z</time></trkpt><trkpt lat="45.1238517" lon="7.546245"><ele>313.2857142857143</ele><time>2026-03-29T14:15:29.837Z</time></trkpt><trkpt lat="45.123835" lon="7.546155"><ele>313.57142857142856</ele><time>2026-03-29T14:15:31.815Z</time></trkpt><trkpt lat="45.1238133" lon="7.5460633"><ele>313.8571428571429</ele><time>2026-03-29T14:15:33.849Z</time></trkpt><trkpt lat="45.1237917" lon="7.5459783"><ele>314.1428571428571</ele><time>2026-03-29T14:15:35.83Z</time></trkpt><trkpt lat="45.1237733" lon="7.545885"><ele>314.42857142857144</ele><time>2026-03-29T14:15:37.825Z</time></trkpt><trkpt lat="45.1237483" lon="7.545795"><ele>314.7142857142857</ele><time>2026-03-29T14:15:39.849Z</time></trkpt><trkpt lat="45.123715" lon="7.5457067"><ele>315.0</ele><time>2026-03-29T14:15:41.827Z</time></trkpt><trkpt lat="45.1236917" lon="7.5456233"><ele>315.0</ele><time>2026-03-29T14:15:43.844Z</time></trkpt><trkpt lat="45.1236533" lon="7.54551"><ele>315.0</ele><time>2026-03-29T14:15:46.832Z</time></trkpt><trkpt lat="45.1236" lon="7.5454"><ele>315.0</ele><time>2026-03-29T14:15:49.837Z</time></trkpt><trkpt lat="45.1235233" lon="7.5453483"><ele>315.0</ele><time>2026-03-29T14:15:52.819Z</time></trkpt><trkpt lat="45.12343" lon="7.54536"><ele>315.0</ele><time>2026-03-29T14:15:55.79Z</time></trkpt><trkpt lat="45.1233683" lon="7.5453883"><ele>315.0</ele><time>2026-03-29T14:15:57.836Z</time></trkpt><trkpt lat="45.123285" lon="7.5454467"><ele>314.85714285714283</ele><time>2026-03-29T14:16:00.793Z</time></trkpt><trkpt lat="45.1232217" lon="7.54549"><ele>314.7142857142857</ele><time>2026-03-29T14:16:02.846Z</time></trkpt><trkpt lat="45.12315" lon="7.5455517"><ele>314.57142857142856</ele><time>2026-03-29T14:16:05.829Z</time></trkpt><trkpt lat="45.1231" lon="7.5456317"><ele>314.42857142857144</ele><time>2026-03-29T14:16:07.783Z</time></trkpt><trkpt lat="45.1230533" lon="7.5456917"><ele>314.2857142857143</ele><time>2026-03-29T14:16:09.879Z</time></trkpt><trkpt lat="45.1229833" lon="7.5457533"><ele>314.1428571428571</ele><time>2026-03-29T14:16:12.86Z</time></trkpt><trkpt lat="45.12292" lon="7.5458"><ele>314.0</ele><time>2026-03-29T14:16:15.831Z</time></trkpt><trkpt lat="45.1228567" lon="7.54585"><ele>314.0</ele><time>2026-03-29T14:16:19.826Z</time></trkpt><trkpt lat="45.1227833" lon="7.54589"><ele>314.0</ele><time>2026-03-29T14:16:23.839Z</time></trkpt><trkpt lat="45.1227133" lon="7.5459217"><ele>314.0</ele><time>2026-03-29T14:16:27.045Z</time></trkpt><trkpt lat="45.1226267" lon="7.5459567"><ele>314.0</ele><time>2026-03-29T14:16:29.834Z</time></trkpt><trkpt lat="45.12255" lon="7.546015"><ele>314.0</ele><time>2026-03-29T14:16:32.871Z</time></trkpt><trkpt lat="45.122465" lon="7.5460683"><ele>314.0</ele><time>2026-03-29T14:16:35.822Z</time></trkpt><trkpt lat="45.1223767" lon="7.5461183"><ele>314.1666666666667</ele><time>2026-03-29T14:16:38.867Z</time></trkpt><trkpt lat="45.122315" lon="7.5461533"><ele>314.33333333333337</ele><time>2026-03-29T14:16:40.825Z</time></trkpt><trkpt lat="45.1222283" lon="7.54621"><ele>314.5</ele><time>2026-03-29T14:16:43.857Z</time></trkpt><trkpt lat="45.1221433" lon="7.54627"><ele>314.6666666666667</ele><time>2026-03-29T14:16:46.809Z</time></trkpt><trkpt lat="45.122085" lon="7.54631"><ele>314.8333333333333</ele><time>2026-03-29T14:16:48.836Z</time></trkpt><trkpt lat="45.1220283" lon="7.5463517"><ele>315.0</ele><time>2026-03-29T14:16:50.861Z</time></trkpt><trkpt lat="45.1219433" lon="7.5464017"><ele>315.0</ele><time>2026-03-29T14:16:53.839Z</time></trkpt><trkpt lat="45.1218817" lon="7.5464267"><ele>315.0</ele><time>2026-03-29T14:16:55.857Z</time></trkpt><trkpt lat="45.1218" lon="7.54647"><ele>315.0</ele><time>2026-03-29T14:16:58.816Z</time></trkpt><trkpt lat="45.12174" lon="7.5465083"><ele>315.0</ele><time>2026-03-29T14:17:00.846Z</time></trkpt><trkpt lat="45.1216833" lon="7.5465483"><ele>315.0</ele><time>2026-03-29T14:17:02.869Z</time></trkpt><trkpt lat="45.1216233" lon="7.5465833"><ele>315.0</ele><time>2026-03-29T14:17:04.843Z</time></trkpt><trkpt lat="45.121565" lon="7.54662"><ele>315.0</ele><time>2026-03-29T14:17:06.811Z</time></trkpt><trkpt lat="45.121505" lon="7.5466567"><ele>315.0</ele><time>2026-03-29T14:17:08.859Z</time></trkpt><trkpt lat="45.1214183" lon="7.5467033"><ele>315.0</ele><time>2026-03-29T14:17:11.84Z</time></trkpt><trkpt lat="45.1213367" lon="7.5467467"><ele>315.0</ele><time>2026-03-29T14:17:14.875Z</time></trkpt><trkpt lat="45.1212533" lon="7.5467867"><ele>315.0</ele><time>2026-03-29T14:17:17.896Z</time></trkpt><trkpt lat="45.121175" lon="7.5468217"><ele>315.0</ele><time>2026-03-29T14:17:20.887Z</time></trkpt><trkpt lat="45.121085" lon="7.5468617"><ele>315.0</ele><time>2026-03-29T14:17:23.966Z</time></trkpt><trkpt lat="45.1210017" lon="7.546905"><ele>315.0</ele><time>2026-03-29T14:17:26.898Z</time></trkpt><trkpt lat="45.1209417" lon="7.5469433"><ele>315.0</ele><time>2026-03-29T14:17:28.848Z</time></trkpt><trkpt lat="45.1208467" lon="7.546995"><ele>315.0</ele><time>2026-03-29T14:17:31.839Z</time></trkpt><trkpt lat="45.1207883" lon="7.5470317"><ele>315.0</ele><time>2026-03-29T14:17:33.835Z</time></trkpt><trkpt lat="45.1207283" lon="7.547065"><ele>315.0</ele><time>2026-03-29T14:17:35.857Z</time></trkpt><trkpt lat="45.1206467" lon="7.5470317"><ele>315.0</ele><time>2026-03-29T14:17:38.881Z</time></trkpt><trkpt lat="45.120625" lon="7.5469433"><ele>315.0</ele><time>2026-03-29T14:17:41.839Z</time></trkpt><trkpt lat="45.1206017" lon="7.5468467"><ele>315.0</ele><time>2026-03-29T14:17:44.88Z</time></trkpt><trkpt lat="45.12057" lon="7.546745"><ele>315.0</ele><time>2026-03-29T14:17:47.871Z</time></trkpt><trkpt lat="45.12053" lon="7.5466333"><ele>315.0</ele><time>2026-03-29T14:17:50.869Z</time></trkpt><trkpt lat="45.1204967" lon="7.5465283"><ele>315.0</ele><time>2026-03-29T14:17:53.806Z</time></trkpt><trkpt lat="45.120465" lon="7.54643"><ele>315.0</ele><time>2026-03-29T14:17:56.881Z</time></trkpt><trkpt lat="45.1204267" lon="7.5463183"><ele>315.0</ele><time>2026-03-29T14:17:59.82Z</time></trkpt><trkpt lat="45.1203783" lon="7.5462133"><ele>315.3333333333333</ele><time>2026-03-29T14:18:02.869Z</time></trkpt><trkpt lat="45.120335" lon="7.54611"><ele>315.6666666666667</ele><time>2026-03-29T14:18:05.831Z</time></trkpt><trkpt lat="45.1203133" lon="7.5459983"><ele>316.0</ele><time>2026-03-29T14:18:08.877Z</time></trkpt><trkpt lat="45.1203033" lon="7.5458817"><ele>316.33333333333337</ele><time>2026-03-29T14:18:11.862Z</time></trkpt><trkpt lat="45.120345" lon="7.5457983"><ele>316.6666666666667</ele><time>2026-03-29T14:18:14.872Z</time></trkpt><trkpt lat="45.1204233" lon="7.5457483"><ele>317.0</ele><time>2026-03-29T14:18:17.809Z</time></trkpt><trkpt lat="45.12049" lon="7.5456783"><ele>317.0</ele><time>2026-03-29T14:18:20.853Z</time></trkpt><trkpt lat="45.1205717" lon="7.545635"><ele>317.0</ele><time>2026-03-29T14:18:23.846Z</time></trkpt><trkpt lat="45.1206233" lon="7.5455517"><ele>317.0</ele><time>2026-03-29T14:18:26.869Z</time></trkpt><trkpt lat="45.120605" lon="7.5454383"><ele>317.0</ele><time>2026-03-29T14:18:30.822Z</time></trkpt><trkpt lat="45.1205733" lon="7.545335"><ele>317.0</ele><time>2026-03-29T14:18:33.789Z</time></trkpt><trkpt lat="45.120535" lon="7.5452383"><ele>317.0</ele><time>2026-03-29T14:18:36.817Z</time></trkpt><trkpt lat="45.1204967" lon="7.5451367"><ele>317.1666666666667</ele><time>2026-03-29T14:18:39.84Z</time></trkpt><trkpt lat="45.1204583" lon="7.5450433"><ele>317.33333333333337</ele><time>2026-03-29T14:18:42.858Z</time></trkpt><trkpt lat="45.120425" lon="7.544945"><ele>317.5</ele><time>2026-03-29T14:18:45.839Z</time></trkpt><trkpt lat="45.1203867" lon="7.5448367"><ele>317.6666666666667</ele><time>2026-03-29T14:18:48.857Z</time></trkpt><trkpt lat="45.12034" lon="7.5447383"><ele>317.8333333333333</ele><time>2026-03-29T14:18:51.819Z</time></trkpt><trkpt lat="45.1203033" lon="7.54462"><ele>318.0</ele><time>2026-03-29T14:18:54.827Z</time></trkpt><trkpt lat="45.12026" lon="7.5445267"><ele>318.0</ele><time>2026-03-29T14:18:57.829Z</time></trkpt><trkpt lat="45.1202117" lon="7.5444167"><ele>318.0</ele><time>2026-03-29T14:19:00.82Z</time></trkpt><trkpt lat="45.1201767" lon="7.54433"><ele>318.0</ele><time>2026-03-29T14:19:02.9Z</time></trkpt><trkpt lat="45.12015" lon="7.544245"><ele>318.0</ele><time>2026-03-29T14:19:04.837Z</time></trkpt><trkpt lat="45.120125" lon="7.5441467"><ele>318.0</ele><time>2026-03-29T14:19:07.846Z</time></trkpt><trkpt lat="45.120095" lon="7.544055"><ele>318.0</ele><time>2026-03-29T14:19:10.874Z</time></trkpt><trkpt lat="45.1200533" lon="7.5439417"><ele>318.0</ele><time>2026-03-29T14:19:13.819Z</time></trkpt><trkpt lat="45.1200217" lon="7.5438633"><ele>318.0</ele><time>2026-03-29T14:19:15.826Z</time></trkpt><trkpt lat="45.1199867" lon="7.5437833"><ele>318.0</ele><time>2026-03-29T14:19:17.795Z</time></trkpt><trkpt lat="45.1199517" lon="7.5437"><ele>318.0</ele><time>2026-03-29T14:19:19.826Z</time></trkpt><trkpt lat="45.1199167" lon="7.54362"><ele>318.0</ele><time>2026-03-29T14:19:21.838Z</time></trkpt><trkpt lat="45.1198833" lon="7.543535"><ele>318.0</ele><time>2026-03-29T14:19:23.856Z</time></trkpt><trkpt lat="45.1198517" lon="7.5434533"><ele>318.0</ele><time>2026-03-29T14:19:25.798Z</time></trkpt><trkpt lat="45.1198233" lon="7.5433717"><ele>318.1666666666667</ele><time>2026-03-29T14:19:27.831Z</time></trkpt><trkpt lat="45.1197917" lon="7.543285"><ele>318.3333333333333</ele><time>2026-03-29T14:19:29.825Z</time></trkpt><trkpt lat="45.11977" lon="7.5431983"><ele>318.5</ele><time>2026-03-29T14:19:31.852Z</time></trkpt><trkpt lat="45.1197283" lon="7.54309"><ele>318.66666666666663</ele><time>2026-03-29T14:19:34.889Z</time></trkpt><trkpt lat="45.1196883" lon="7.54301"><ele>318.8333333333333</ele><time>2026-03-29T14:19:37.83Z</time></trkpt><trkpt lat="45.1196383" lon="7.5429117"><ele>319.0</ele><time>2026-03-29T14:19:40.819Z</time></trkpt><trkpt lat="45.1195967" lon="7.542815"><ele>319.0</ele><time>2026-03-29T14:19:44.89Z</time></trkpt><trkpt lat="45.1195683" lon="7.542715"><ele>319.0</ele><time>2026-03-29T14:19:47.836Z</time></trkpt><trkpt lat="45.11956" lon="7.5426183"><ele>319.0</ele><time>2026-03-29T14:19:50.872Z</time></trkpt><trkpt lat="45.11954" lon="7.542515"><ele>319.0</ele><time>2026-03-29T14:19:54.835Z</time></trkpt><trkpt lat="45.1194883" lon="7.5424483"><ele>319.0</ele><time>2026-03-29T14:19:58.811Z</time></trkpt><trkpt lat="45.1194267" lon="7.5424217"><ele>319.0</ele><time>2026-03-29T14:20:01.833Z</time></trkpt><trkpt lat="45.1193617" lon="7.542395"><ele>319.0</ele><time>2026-03-29T14:20:07.814Z</time></trkpt><trkpt lat="45.1193567" lon="7.5422983"><ele>319.0</ele><time>2026-03-29T14:20:13.8Z</time></trkpt><trkpt lat="45.119365" lon="7.5421883"><ele>319.0</ele><time>2026-03-29T14:20:17.813Z</time></trkpt><trkpt lat="45.1193083" lon="7.5421317"><ele>319.0</ele><time>2026-03-29T14:20:21.811Z</time></trkpt><trkpt lat="45.11924" lon="7.5421617"><ele>319.0</ele><time>2026-03-29T14:20:24.837Z</time></trkpt><trkpt lat="45.1191533" lon="7.5421733"><ele>319.0</ele><time>2026-03-29T14:20:27.836Z</time></trkpt><trkpt lat="45.1190667" lon="7.542205"><ele>319.0</ele><time>2026-03-29T14:20:30.845Z</time></trkpt><trkpt lat="45.1189833" lon="7.5422367"><ele>319.3333333333333</ele><time>2026-03-29T14:20:33.854Z</time></trkpt><trkpt lat="45.1189" lon="7.54228"><ele>319.66666666666663</ele><time>2026-03-29T14:20:36.834Z</time></trkpt><trkpt lat="45.118815" lon="7.5423133"><ele>320.0</ele><time>2026-03-29T14:20:39.833Z</time></trkpt><trkpt lat="45.118735" lon="7.542365"><ele>320.3333333333333</ele><time>2026-03-29T14:20:42.871Z</time></trkpt><trkpt lat="45.1186517" lon="7.54242"><ele>320.6666666666667</ele><time>2026-03-29T14:20:45.876Z</time></trkpt><trkpt lat="45.1185933" lon="7.5424567"><ele>321.0</ele><time>2026-03-29T14:20:47.813Z</time></trkpt><trkpt lat="45.1185233" lon="7.5424833"><ele>321.0</ele><time>2026-03-29T14:20:50.869Z</time></trkpt><trkpt lat="45.1184533" lon="7.54245"><ele>321.0</ele><time>2026-03-29T14:20:54.814Z</time></trkpt><trkpt lat="45.1184417" lon="7.5423567"><ele>321.0</ele><time>2026-03-29T14:20:57.84Z</time></trkpt><trkpt lat="45.1184333" lon="7.5422667"><ele>321.0</ele><time>2026-03-29T14:21:00.887Z</time></trkpt><trkpt lat="45.1183983" lon="7.5421483"><ele>321.0</ele><time>2026-03-29T14:21:04.876Z</time></trkpt><trkpt lat="45.1183533" lon="7.542065"><ele>321.0</ele><time>2026-03-29T14:21:06.849Z</time></trkpt><trkpt lat="45.11828" lon="7.5419783"><ele>321.3333333333333</ele><time>2026-03-29T14:21:08.922Z</time></trkpt><trkpt lat="45.1182133" lon="7.5419533"><ele>321.6666666666667</ele><time>2026-03-29T14:21:11.834Z</time></trkpt><trkpt lat="45.1181283" lon="7.54195"><ele>322.0</ele><time>2026-03-29T14:21:15.846Z</time></trkpt><trkpt lat="45.1180633" lon="7.5419733"><ele>322.33333333333337</ele><time>2026-03-29T14:21:17.863Z</time></trkpt><trkpt lat="45.117965" lon="7.54201"><ele>322.6666666666667</ele><time>2026-03-29T14:21:20.974Z</time></trkpt><trkpt lat="45.1178967" lon="7.5420433"><ele>323.0</ele><time>2026-03-29T14:21:22.814Z</time></trkpt><trkpt lat="45.1178383" lon="7.54208"><ele>323.0</ele><time>2026-03-29T14:21:24.835Z</time></trkpt><trkpt lat="45.117775" lon="7.5421383"><ele>323.0</ele><time>2026-03-29T14:21:26.921Z</time></trkpt><trkpt lat="45.1177183" lon="7.54219"><ele>323.0</ele><time>2026-03-29T14:21:28.835Z</time></trkpt><trkpt lat="45.117665" lon="7.5422383"><ele>323.0</ele><time>2026-03-29T14:21:30.812Z</time></trkpt><trkpt lat="45.1175833" lon="7.5423017"><ele>323.0</ele><time>2026-03-29T14:21:33.869Z</time></trkpt><trkpt lat="45.1175" lon="7.5423533"><ele>323.0</ele><time>2026-03-29T14:21:36.861Z</time></trkpt><trkpt lat="45.1174133" lon="7.5423967"><ele>322.83333333333337</ele><time>2026-03-29T14:21:39.869Z</time></trkpt><trkpt lat="45.1173233" lon="7.542445"><ele>322.6666666666667</ele><time>2026-03-29T14:21:42.794Z</time></trkpt><trkpt lat="45.1172633" lon="7.5424883"><ele>322.5</ele><time>2026-03-29T14:21:44.879Z</time></trkpt><trkpt lat="45.117205" lon="7.5425267"><ele>322.3333333333333</ele><time>2026-03-29T14:21:46.811Z</time></trkpt><trkpt lat="45.1171367" lon="7.5425583"><ele>322.16666666666663</ele><time>2026-03-29T14:21:48.816Z</time></trkpt><trkpt lat="45.1170767" lon="7.5425967"><ele>322.0</ele><time>2026-03-29T14:21:50.883Z</time></trkpt><trkpt lat="45.1169933" lon="7.5426517"><ele>322.0</ele><time>2026-03-29T14:21:53.836Z</time></trkpt><trkpt lat="45.1169333" lon="7.5427017"><ele>322.0</ele><time>2026-03-29T14:21:55.852Z</time></trkpt><trkpt lat="45.116875" lon="7.5427517"><ele>322.0</ele><time>2026-03-29T14:21:57.84Z</time></trkpt><trkpt lat="45.116815" lon="7.542805"><ele>322.0</ele><time>2026-03-29T14:21:59.824Z</time></trkpt><trkpt lat="45.1167567" lon="7.5428567"><ele>322.0</ele><time>2026-03-29T14:22:01.833Z</time></trkpt><trkpt lat="45.1167017" lon="7.5429017"><ele>322.0</ele><time>2026-03-29T14:22:03.829Z</time></trkpt><trkpt lat="45.11664" lon="7.5429467"><ele>322.0</ele><time>2026-03-29T14:22:05.83Z</time></trkpt><trkpt lat="45.1165733" lon="7.5429783"><ele>322.0</ele><time>2026-03-29T14:22:07.818Z</time></trkpt><trkpt lat="45.1165017" lon="7.5430067"><ele>322.0</ele><time>2026-03-29T14:22:09.839Z</time></trkpt><trkpt lat="45.1164433" lon="7.54305"><ele>322.0</ele><time>2026-03-29T14:22:11.897Z</time></trkpt><trkpt lat="45.11636" lon="7.543095"><ele>322.0</ele><time>2026-03-29T14:22:14.876Z</time></trkpt><trkpt lat="45.1162767" lon="7.543085"><ele>322.0</ele><time>2026-03-29T14:22:17.845Z</time></trkpt><trkpt lat="45.1162183" lon="7.5430467"><ele>322.0</ele><time>2026-03-29T14:22:19.828Z</time></trkpt><trkpt lat="45.1161517" lon="7.5430267"><ele>322.0</ele><time>2026-03-29T14:22:21.875Z</time></trkpt><trkpt lat="45.1160867" lon="7.5429967"><ele>322.0</ele><time>2026-03-29T14:22:23.824Z</time></trkpt><trkpt lat="45.11602" lon="7.5429483"><ele>322.0</ele><time>2026-03-29T14:22:25.841Z</time></trkpt><trkpt lat="45.115965" lon="7.5428917"><ele>322.0</ele><time>2026-03-29T14:22:27.829Z</time></trkpt><trkpt lat="45.11591" lon="7.5428367"><ele>322.0</ele><time>2026-03-29T14:22:29.815Z</time></trkpt><trkpt lat="45.1158567" lon="7.5427867"><ele>322.0</ele><time>2026-03-29T14:22:31.819Z</time></trkpt><trkpt lat="45.115805" lon="7.542735"><ele>322.0</ele><time>2026-03-29T14:22:33.844Z</time></trkpt><trkpt lat="45.11574" lon="7.5426733"><ele>322.0</ele><time>2026-03-29T14:22:36.814Z</time></trkpt><trkpt lat="45.11567" lon="7.542645"><ele>322.16666666666663</ele><time>2026-03-29T14:22:39.855Z</time></trkpt><trkpt lat="45.1155917" lon="7.54259"><ele>322.3333333333333</ele><time>2026-03-29T14:22:42.836Z</time></trkpt><trkpt lat="45.1155283" lon="7.54252"><ele>322.5</ele><time>2026-03-29T14:22:45.843Z</time></trkpt><trkpt lat="45.1154683" lon="7.5424483"><ele>322.6666666666667</ele><time>2026-03-29T14:22:48.804Z</time></trkpt><trkpt lat="45.1154033" lon="7.5424383"><ele>322.83333333333337</ele><time>2026-03-29T14:22:51.81Z</time></trkpt><trkpt lat="45.115325" lon="7.5425083"><ele>323.0</ele><time>2026-03-29T14:22:54.86Z</time></trkpt><trkpt lat="45.1152933" lon="7.5426133"><ele>323.0</ele><time>2026-03-29T14:22:57.843Z</time></trkpt><trkpt lat="45.11527" lon="7.5426983"><ele>323.0</ele><time>2026-03-29T14:22:59.838Z</time></trkpt><trkpt lat="45.1152333" lon="7.5428"><ele>323.0</ele><time>2026-03-29T14:23:02.862Z</time></trkpt><trkpt lat="45.1152" lon="7.542895"><ele>323.0</ele><time>2026-03-29T14:23:05.843Z</time></trkpt><trkpt lat="45.1151567" lon="7.5429833"><ele>323.0</ele><time>2026-03-29T14:23:08.879Z</time></trkpt><trkpt lat="45.1151167" lon="7.5430917"><ele>323.0</ele><time>2026-03-29T14:23:11.846Z</time></trkpt><trkpt lat="45.1150733" lon="7.5431917"><ele>322.83333333333337</ele><time>2026-03-29T14:23:15.03Z</time></trkpt><trkpt lat="45.115025" lon="7.5432883"><ele>322.6666666666667</ele><time>2026-03-29T14:23:17.841Z</time></trkpt><trkpt lat="45.114975" lon="7.543395"><ele>322.5</ele><time>2026-03-29T14:23:20.95Z</time></trkpt><trkpt lat="45.1149433" lon="7.543505"><ele>322.3333333333333</ele><time>2026-03-29T14:23:23.838Z</time></trkpt><trkpt lat="45.114915" lon="7.5436183"><ele>322.16666666666663</ele><time>2026-03-29T14:23:26.858Z</time></trkpt><trkpt lat="45.1148733" lon="7.5437233"><ele>322.0</ele><time>2026-03-29T14:23:29.823Z</time></trkpt><trkpt lat="45.1148317" lon="7.5437967"><ele>322.0</ele><time>2026-03-29T14:23:31.833Z</time></trkpt><trkpt lat="45.1147817" lon="7.5438517"><ele>322.0</ele><time>2026-03-29T14:23:33.863Z</time></trkpt><trkpt lat="45.114735" lon="7.5439267"><ele>322.0</ele><time>2026-03-29T14:23:35.841Z</time></trkpt><trkpt lat="45.1146933" lon="7.5439967"><ele>322.0</ele><time>2026-03-29T14:23:38.906Z</time></trkpt><trkpt lat="45.1146217" lon="7.5440133"><ele>322.0</ele><time>2026-03-29T14:23:43.812Z</time></trkpt><trkpt lat="45.114535" lon="7.5440383"><ele>322.0</ele><time>2026-03-29T14:23:46.843Z</time></trkpt><trkpt lat="45.1144633" lon="7.54404"><ele>322.0</ele><time>2026-03-29T14:23:49.849Z</time></trkpt><trkpt lat="45.1144033" lon="7.5439833"><ele>322.0</ele><time>2026-03-29T14:23:52.879Z</time></trkpt><trkpt lat="45.1143683" lon="7.5438917"><ele>322.0</ele><time>2026-03-29T14:23:55.839Z</time></trkpt><trkpt lat="45.114335" lon="7.5437867"><ele>322.0</ele><time>2026-03-29T14:23:58.818Z</time></trkpt><trkpt lat="45.1142983" lon="7.54368"><ele>322.0</ele><time>2026-03-29T14:24:01.849Z</time></trkpt><trkpt lat="45.11425" lon="7.5435717"><ele>322.0</ele><time>2026-03-29T14:24:04.839Z</time></trkpt><trkpt lat="45.1142183" lon="7.5434633"><ele>322.0</ele><time>2026-03-29T14:24:07.843Z</time></trkpt><trkpt lat="45.114235" lon="7.54335"><ele>322.0</ele><time>2026-03-29T14:24:11.817Z</time></trkpt><trkpt lat="45.11418" lon="7.5432833"><ele>322.0</ele><time>2026-03-29T14:24:15.802Z</time></trkpt><trkpt lat="45.1141117" lon="7.543295"><ele>322.0</ele><time>2026-03-29T14:24:18.838Z</time></trkpt><trkpt lat="45.1140433" lon="7.5432617"><ele>322.0</ele><time>2026-03-29T14:24:22.839Z</time></trkpt><trkpt lat="45.1140017" lon="7.5431867"><ele>322.0</ele><time>2026-03-29T14:24:25.849Z</time></trkpt><trkpt lat="45.11396" lon="7.5431117"><ele>322.0</ele><time>2026-03-29T14:24:28.819Z</time></trkpt><trkpt lat="45.1139083" lon="7.5430267"><ele>322.0</ele><time>2026-03-29T14:24:32.88Z</time></trkpt><trkpt lat="45.1138567" lon="7.5429367"><ele>322.3333333333333</ele><time>2026-03-29T14:24:35.818Z</time></trkpt><trkpt lat="45.1138033" lon="7.5428467"><ele>322.66666666666663</ele><time>2026-03-29T14:24:38.904Z</time></trkpt><trkpt lat="45.1137533" lon="7.5427467"><ele>323.0</ele><time>2026-03-29T14:24:41.843Z</time></trkpt><trkpt lat="45.113705" lon="7.5426583"><ele>323.3333333333333</ele><time>2026-03-29T14:24:44.884Z</time></trkpt><trkpt lat="45.1136583" lon="7.5425617"><ele>323.6666666666667</ele><time>2026-03-29T14:24:47.826Z</time></trkpt><trkpt lat="45.11361" lon="7.5425033"><ele>324.0</ele><time>2026-03-29T14:24:49.807Z</time></trkpt><trkpt lat="45.11355" lon="7.5424217"><ele>324.0</ele><time>2026-03-29T14:24:52.819Z</time></trkpt><trkpt lat="45.1134983" lon="7.54235"><ele>324.0</ele><time>2026-03-29T14:24:55.838Z</time></trkpt><trkpt lat="45.1134517" lon="7.54227"><ele>324.0</ele><time>2026-03-29T14:25:01.85Z</time></trkpt><trkpt lat="45.1134133" lon="7.5421567"><ele>324.0</ele><time>2026-03-29T14:25:04.87Z</time></trkpt><trkpt lat="45.1133283" lon="7.542135"><ele>324.0</ele><time>2026-03-29T14:25:07.87Z</time></trkpt><trkpt lat="45.1132633" lon="7.54218"><ele>324.0</ele><time>2026-03-29T14:25:09.811Z</time></trkpt><trkpt lat="45.1131967" lon="7.5422483"><ele>324.2857142857143</ele><time>2026-03-29T14:25:11.786Z</time></trkpt><trkpt lat="45.1131417" lon="7.542305"><ele>324.57142857142856</ele><time>2026-03-29T14:25:13.797Z</time></trkpt><trkpt lat="45.11308" lon="7.542335"><ele>324.8571428571429</ele><time>2026-03-29T14:25:15.792Z</time></trkpt><trkpt lat="45.1130067" lon="7.5423817"><ele>325.1428571428571</ele><time>2026-03-29T14:25:18.801Z</time></trkpt><trkpt lat="45.1129383" lon="7.5424383"><ele>325.4285714285714</ele><time>2026-03-29T14:25:21.796Z</time></trkpt><trkpt lat="45.1128883" lon="7.5425017"><ele>325.7142857142857</ele><time>2026-03-29T14:25:24.78Z</time></trkpt><trkpt lat="45.1128133" lon="7.5425467"><ele>326.0</ele><time>2026-03-29T14:25:28.781Z</time></trkpt><trkpt lat="45.1127467" lon="7.5426033"><ele>326.0</ele><time>2026-03-29T14:25:31.783Z</time></trkpt><trkpt lat="45.1126867" lon="7.5426583"><ele>326.0</ele><time>2026-03-29T14:25:34.787Z</time></trkpt><trkpt lat="45.1126267" lon="7.5427067"><ele>326.0</ele><time>2026-03-29T14:25:37.786Z</time></trkpt><trkpt lat="45.112565" lon="7.5427717"><ele>326.0</ele><time>2026-03-29T14:25:40.788Z</time></trkpt><trkpt lat="45.1125067" lon="7.5428183"><ele>326.0</ele><time>2026-03-29T14:25:43.792Z</time></trkpt><trkpt lat="45.112445" lon="7.542895"><ele>326.0</ele><time>2026-03-29T14:25:48.817Z</time></trkpt><trkpt lat="45.112385" lon="7.5429367"><ele>326.0</ele><time>2026-03-29T14:25:54.797Z</time></trkpt><trkpt lat="45.11233" lon="7.5429967"><ele>325.83333333333337</ele><time>2026-03-29T14:25:58.782Z</time></trkpt><trkpt lat="45.1122633" lon="7.5430383"><ele>325.6666666666667</ele><time>2026-03-29T14:26:01.796Z</time></trkpt><trkpt lat="45.1122083" lon="7.5431083"><ele>325.5</ele><time>2026-03-29T14:26:04.811Z</time></trkpt><trkpt lat="45.1121467" lon="7.5431917"><ele>325.3333333333333</ele><time>2026-03-29T14:26:08.847Z</time></trkpt><trkpt lat="45.1120783" lon="7.543235"><ele>325.16666666666663</ele><time>2026-03-29T14:26:11.801Z</time></trkpt><trkpt lat="45.11202" lon="7.5432983"><ele>325.0</ele><time>2026-03-29T14:26:14.842Z</time></trkpt><trkpt lat="45.1119617" lon="7.54336"><ele>325.0</ele><time>2026-03-29T14:26:17.798Z</time></trkpt><trkpt lat="45.1118967" lon="7.5434267"><ele>325.0</ele><time>2026-03-29T14:26:20.84Z</time></trkpt><trkpt lat="45.1118433" lon="7.543495"><ele>325.0</ele><time>2026-03-29T14:26:23.793Z</time></trkpt><trkpt lat="45.1117817" lon="7.543565"><ele>325.0</ele><time>2026-03-29T14:26:26.831Z</time></trkpt><trkpt lat="45.1117067" lon="7.5436267"><ele>325.0</ele><time>2026-03-29T14:26:29.805Z</time></trkpt><trkpt lat="45.11164" lon="7.5436867"><ele>325.0</ele><time>2026-03-29T14:26:32.833Z</time></trkpt><trkpt lat="45.1115867" lon="7.5437533"><ele>325.5</ele><time>2026-03-29T14:26:34.791Z</time></trkpt><trkpt lat="45.1115183" lon="7.5438333"><ele>326.0</ele><time>2026-03-29T14:26:37.797Z</time></trkpt><trkpt lat="45.1114383" lon="7.5439"><ele>326.5</ele><time>2026-03-29T14:26:40.791Z</time></trkpt><trkpt lat="45.1113767" lon="7.5439983"><ele>327.0</ele><time>2026-03-29T14:26:43.887Z</time></trkpt><trkpt lat="45.111325" lon="7.5440567"><ele>327.5</ele><time>2026-03-29T14:26:45.851Z</time></trkpt><trkpt lat="45.111255" lon="7.544125"><ele>328.0</ele><time>2026-03-29T14:26:48.839Z</time></trkpt><trkpt lat="45.1111833" lon="7.5441867"><ele>328.0</ele><time>2026-03-29T14:26:51.867Z</time></trkpt><trkpt lat="45.111115" lon="7.5442517"><ele>328.0</ele><time>2026-03-29T14:26:54.829Z</time></trkpt><trkpt lat="45.1110117" lon="7.544355"><ele>328.0</ele><time>2026-03-29T14:26:58.816Z</time></trkpt><trkpt lat="45.110955" lon="7.5444017"><ele>328.0</ele><time>2026-03-29T14:27:00.814Z</time></trkpt><trkpt lat="45.1109017" lon="7.544455"><ele>328.0</ele><time>2026-03-29T14:27:02.927Z</time></trkpt><trkpt lat="45.1108417" lon="7.5445367"><ele>328.0</ele><time>2026-03-29T14:27:04.816Z</time></trkpt><trkpt lat="45.1107833" lon="7.5446"><ele>327.5</ele><time>2026-03-29T14:27:06.834Z</time></trkpt><trkpt lat="45.1107283" lon="7.5446533"><ele>327.0</ele><time>2026-03-29T14:27:08.902Z</time></trkpt><trkpt lat="45.11066" lon="7.5447367"><ele>326.5</ele><time>2026-03-29T14:27:11.862Z</time></trkpt><trkpt lat="45.110585" lon="7.5447983"><ele>326.0</ele><time>2026-03-29T14:27:14.886Z</time></trkpt><trkpt lat="45.1105167" lon="7.5448683"><ele>325.5</ele><time>2026-03-29T14:27:17.856Z</time></trkpt><trkpt lat="45.1104467" lon="7.5449433"><ele>325.0</ele><time>2026-03-29T14:27:20.867Z</time></trkpt><trkpt lat="45.11038" lon="7.5450167"><ele>325.0</ele><time>2026-03-29T14:27:23.841Z</time></trkpt><trkpt lat="45.1103217" lon="7.5450683"><ele>325.0</ele><time>2026-03-29T14:27:26.925Z</time></trkpt><trkpt lat="45.110265" lon="7.5451333"><ele>325.0</ele><time>2026-03-29T14:27:29.843Z</time></trkpt><trkpt lat="45.1102083" lon="7.545185"><ele>325.0</ele><time>2026-03-29T14:27:32.91Z</time></trkpt><trkpt lat="45.1101483" lon="7.5452333"><ele>325.0</ele><time>2026-03-29T14:27:35.839Z</time></trkpt><trkpt lat="45.1100867" lon="7.54529"><ele>325.0</ele><time>2026-03-29T14:27:38.93Z</time></trkpt><trkpt lat="45.11003" lon="7.5453567"><ele>325.0</ele><time>2026-03-29T14:27:41.83Z</time></trkpt><trkpt lat="45.10997" lon="7.5454117"><ele>325.0</ele><time>2026-03-29T14:27:44.9Z</time></trkpt><trkpt lat="45.1099167" lon="7.545475"><ele>325.0</ele><time>2026-03-29T14:27:48.826Z</time></trkpt><trkpt lat="45.109855" lon="7.545525"><ele>325.0</ele><time>2026-03-29T14:27:51.828Z</time></trkpt><trkpt lat="45.1097867" lon="7.5455767"><ele>325.0</ele><time>2026-03-29T14:27:55.83Z</time></trkpt><trkpt lat="45.1097333" lon="7.5456383"><ele>325.0</ele><time>2026-03-29T14:28:00.848Z</time></trkpt><trkpt lat="45.10968" lon="7.54572"><ele>325.0</ele><time>2026-03-29T14:28:04.859Z</time></trkpt><trkpt lat="45.1096333" lon="7.5457833"><ele>325.0</ele><time>2026-03-29T14:28:07.848Z</time></trkpt><trkpt lat="45.1095633" lon="7.5458133"><ele>325.0</ele><time>2026-03-29T14:28:12.839Z</time></trkpt><trkpt lat="45.109495" lon="7.5458067"><ele>325.0</ele><time>2026-03-29T14:28:16.819Z</time></trkpt><trkpt lat="45.1094267" lon="7.5457567"><ele>325.0</ele><time>2026-03-29T14:28:25.821Z</time></trkpt><trkpt lat="45.1093683" lon="7.5457967"><ele>325.0</ele><time>2026-03-29T14:28:28.833Z</time></trkpt><trkpt lat="45.109325" lon="7.5458867"><ele>325.0</ele><time>2026-03-29T14:28:32.837Z</time></trkpt><trkpt lat="45.109255" lon="7.545925"><ele>325.0</ele><time>2026-03-29T14:28:36.815Z</time></trkpt><trkpt lat="45.1091717" lon="7.5459533"><ele>325.0</ele><time>2026-03-29T14:28:39.824Z</time></trkpt><trkpt lat="45.1090933" lon="7.5459967"><ele>325.3333333333333</ele><time>2026-03-29T14:28:42.813Z</time></trkpt><trkpt lat="45.10903" lon="7.546015"><ele>325.66666666666663</ele><time>2026-03-29T14:28:44.884Z</time></trkpt><trkpt lat="45.108945" lon="7.5460267"><ele>326.0</ele><time>2026-03-29T14:28:47.851Z</time></trkpt><trkpt lat="45.1088817" lon="7.54606"><ele>326.3333333333333</ele><time>2026-03-29T14:28:49.91Z</time></trkpt><trkpt lat="45.1088017" lon="7.5460967"><ele>326.6666666666667</ele><time>2026-03-29T14:28:52.821Z</time></trkpt><trkpt lat="45.1087183" lon="7.5461333"><ele>327.0</ele><time>2026-03-29T14:28:55.803Z</time></trkpt><trkpt lat="45.1086367" lon="7.5461467"><ele>327.0</ele><time>2026-03-29T14:28:59.786Z</time></trkpt><trkpt lat="45.1085667" lon="7.5461683"><ele>327.0</ele><time>2026-03-29T14:29:02.838Z</time></trkpt><trkpt lat="45.108495" lon="7.5461567"><ele>327.0</ele><time>2026-03-29T14:29:05.794Z</time></trkpt><trkpt lat="45.10841" lon="7.5461683"><ele>327.0</ele><time>2026-03-29T14:29:08.841Z</time></trkpt><trkpt lat="45.1083417" lon="7.54618"><ele>327.0</ele><time>2026-03-29T14:29:10.782Z</time></trkpt><trkpt lat="45.1082717" lon="7.5461867"><ele>327.0</ele><time>2026-03-29T14:29:12.785Z</time></trkpt><trkpt lat="45.1082067" lon="7.5461933"><ele>327.0</ele><time>2026-03-29T14:29:14.838Z</time></trkpt><trkpt lat="45.1081133" lon="7.5462117"><ele>326.8333333333333</ele><time>2026-03-29T14:29:17.794Z</time></trkpt><trkpt lat="45.10805" lon="7.5462233"><ele>326.6666666666667</ele><time>2026-03-29T14:29:19.781Z</time></trkpt><trkpt lat="45.10798" lon="7.546235"><ele>326.5</ele><time>2026-03-29T14:29:21.793Z</time></trkpt><trkpt lat="45.10791" lon="7.546235"><ele>326.33333333333337</ele><time>2026-03-29T14:29:24.789Z</time></trkpt><trkpt lat="45.1078183" lon="7.5462417"><ele>326.1666666666667</ele><time>2026-03-29T14:29:27.781Z</time></trkpt><trkpt lat="45.1077417" lon="7.5462433"><ele>326.0</ele><time>2026-03-29T14:29:30.778Z</time></trkpt><trkpt lat="45.1076633" lon="7.546255"><ele>326.0</ele><time>2026-03-29T14:29:32.835Z</time></trkpt><trkpt lat="45.1075983" lon="7.5462733"><ele>326.0</ele><time>2026-03-29T14:29:34.791Z</time></trkpt><trkpt lat="45.1075067" lon="7.54629"><ele>326.0</ele><time>2026-03-29T14:29:37.888Z</time></trkpt><trkpt lat="45.1074433" lon="7.5463033"><ele>326.0</ele><time>2026-03-29T14:29:39.842Z</time></trkpt><trkpt lat="45.1073633" lon="7.5463217"><ele>326.0</ele><time>2026-03-29T14:29:42.833Z</time></trkpt><trkpt lat="45.107275" lon="7.54631"><ele>326.0</ele><time>2026-03-29T14:29:45.843Z</time></trkpt><trkpt lat="45.1071983" lon="7.5462817"><ele>325.83333333333337</ele><time>2026-03-29T14:29:48.824Z</time></trkpt><trkpt lat="45.1071067" lon="7.546285"><ele>325.6666666666667</ele><time>2026-03-29T14:29:51.836Z</time></trkpt><trkpt lat="45.1070233" lon="7.5462883"><ele>325.5</ele><time>2026-03-29T14:29:54.84Z</time></trkpt><trkpt lat="45.1069467" lon="7.54631"><ele>325.3333333333333</ele><time>2026-03-29T14:29:57.838Z</time></trkpt><trkpt lat="45.1068817" lon="7.5462817"><ele>325.16666666666663</ele><time>2026-03-29T14:30:00.832Z</time></trkpt><trkpt lat="45.1068083" lon="7.5462667"><ele>325.0</ele><time>2026-03-29T14:30:04.818Z</time></trkpt><trkpt lat="45.1067267" lon="7.546265"><ele>325.0</ele><time>2026-03-29T14:30:09.845Z</time></trkpt><trkpt lat="45.106655" lon="7.54625"><ele>325.0</ele><time>2026-03-29T14:30:13.848Z</time></trkpt><trkpt lat="45.1065733" lon="7.5462633"><ele>325.0</ele><time>2026-03-29T14:30:17.848Z</time></trkpt><trkpt lat="45.1065083" lon="7.5462517"><ele>325.0</ele><time>2026-03-29T14:30:20.889Z</time></trkpt><trkpt lat="45.1064383" lon="7.54622"><ele>325.0</ele><time>2026-03-29T14:30:23.831Z</time></trkpt><trkpt lat="45.106375" lon="7.5462033"><ele>325.0</ele><time>2026-03-29T14:30:26.886Z</time></trkpt><trkpt lat="45.106295" lon="7.5461817"><ele>325.0</ele><time>2026-03-29T14:30:29.832Z</time></trkpt><trkpt lat="45.1062117" lon="7.5461883"><ele>325.5</ele><time>2026-03-29T14:30:32.881Z</time></trkpt><trkpt lat="45.1061267" lon="7.5461717"><ele>326.0</ele><time>2026-03-29T14:30:35.826Z</time></trkpt><trkpt lat="45.1060483" lon="7.5461533"><ele>326.5</ele><time>2026-03-29T14:30:38.897Z</time></trkpt><trkpt lat="45.1059717" lon="7.5461367"><ele>327.0</ele><time>2026-03-29T14:30:41.858Z</time></trkpt><trkpt lat="45.1059033" lon="7.546145"><ele>327.5</ele><time>2026-03-29T14:30:44.912Z</time></trkpt><trkpt lat="45.1058183" lon="7.5461183"><ele>328.0</ele><time>2026-03-29T14:30:48.841Z</time></trkpt><trkpt lat="45.1057517" lon="7.546115"><ele>328.0</ele><time>2026-03-29T14:30:50.888Z</time></trkpt><trkpt lat="45.1056833" lon="7.5461233"><ele>328.0</ele><time>2026-03-29T14:30:53.788Z</time></trkpt><trkpt lat="45.1055983" lon="7.5461683"><ele>328.0</ele><time>2026-03-29T14:30:56.865Z</time></trkpt><trkpt lat="45.1055283" lon="7.5461783"><ele>328.0</ele><time>2026-03-29T14:30:59.836Z</time></trkpt><trkpt lat="45.1054433" lon="7.5461817"><ele>328.0</ele><time>2026-03-29T14:31:02.904Z</time></trkpt><trkpt lat="45.1053733" lon="7.5461983"><ele>328.0</ele><time>2026-03-29T14:31:05.841Z</time></trkpt><trkpt lat="45.10529" lon="7.54625"><ele>328.0</ele><time>2026-03-29T14:31:08.943Z</time></trkpt><trkpt lat="45.105215" lon="7.5462983"><ele>328.0</ele><time>2026-03-29T14:31:12.849Z</time></trkpt><trkpt lat="45.1051383" lon="7.5463133"><ele>328.0</ele><time>2026-03-29T14:31:16.83Z</time></trkpt><trkpt lat="45.10507" lon="7.5463433"><ele>328.0</ele><time>2026-03-29T14:31:19.818Z</time></trkpt><trkpt lat="45.1049983" lon="7.5463767"><ele>328.0</ele><time>2026-03-29T14:31:22.854Z</time></trkpt><trkpt lat="45.1049283" lon="7.5464083"><ele>328.0</ele><time>2026-03-29T14:31:25.817Z</time></trkpt><trkpt lat="45.1048583" lon="7.54643"><ele>328.0</ele><time>2026-03-29T14:31:28.826Z</time></trkpt><trkpt lat="45.1047767" lon="7.5464883"><ele>328.0</ele><time>2026-03-29T14:31:31.81Z</time></trkpt><trkpt lat="45.10471" lon="7.5465283"><ele>328.0</ele><time>2026-03-29T14:31:34.8Z</time></trkpt><trkpt lat="45.1046217" lon="7.54655"><ele>328.0</ele><time>2026-03-29T14:31:37.8Z</time></trkpt><trkpt lat="45.1045317" lon="7.5465883"><ele>328.0</ele><time>2026-03-29T14:31:40.818Z</time></trkpt><trkpt lat="45.1044567" lon="7.546655"><ele>328.0</ele><time>2026-03-29T14:31:43.845Z</time></trkpt><trkpt lat="45.1043767" lon="7.54672"><ele>327.99999999999994</ele><time>2026-03-29T14:31:46.842Z</time></trkpt><trkpt lat="45.1043267" lon="7.5467867"><ele>328.0</ele><time>2026-03-29T14:31:49.81Z</time></trkpt><trkpt lat="45.104265" lon="7.54681"><ele>328.0</ele><time>2026-03-29T14:31:52.81Z</time></trkpt><trkpt lat="45.1041733" lon="7.54684"><ele>328.0</ele><time>2026-03-29T14:31:55.819Z</time></trkpt><trkpt lat="45.10411" lon="7.5468767"><ele>328.0</ele><time>2026-03-29T14:31:57.832Z</time></trkpt><trkpt lat="45.10405" lon="7.5469117"><ele>327.99999999999994</ele><time>2026-03-29T14:31:59.83Z</time></trkpt><trkpt lat="45.1039733" lon="7.5469467"><ele>328.0</ele><time>2026-03-29T14:32:02.887Z</time></trkpt><trkpt lat="45.10392" lon="7.5469967"><ele>328.0</ele><time>2026-03-29T14:32:04.827Z</time></trkpt><trkpt lat="45.1038383" lon="7.5470483"><ele>328.0</ele><time>2026-03-29T14:32:07.818Z</time></trkpt><trkpt lat="45.1037633" lon="7.5470867"><ele>328.0</ele><time>2026-03-29T14:32:10.815Z</time></trkpt><trkpt lat="45.1036883" lon="7.5471367"><ele>328.0</ele><time>2026-03-29T14:32:13.819Z</time></trkpt><trkpt lat="45.10362" lon="7.5472217"><ele>328.0</ele><time>2026-03-29T14:32:16.81Z</time></trkpt><trkpt lat="45.103565" lon="7.5472783"><ele>328.0</ele><time>2026-03-29T14:32:19.821Z</time></trkpt><trkpt lat="45.1034983" lon="7.547275"><ele>327.99999999999994</ele><time>2026-03-29T14:32:23.834Z</time></trkpt><trkpt lat="45.1034333" lon="7.5472817"><ele>328.0</ele><time>2026-03-29T14:32:26.92Z</time></trkpt><trkpt lat="45.1033683" lon="7.547295"><ele>328.0</ele><time>2026-03-29T14:32:29.841Z</time></trkpt><trkpt lat="45.1032983" lon="7.5473033"><ele>328.0</ele><time>2026-03-29T14:32:32.891Z</time></trkpt><trkpt lat="45.1032317" lon="7.5473167"><ele>328.0</ele><time>2026-03-29T14:32:37.83Z</time></trkpt><trkpt lat="45.1031283" lon="7.5473333"><ele>327.99999999999994</ele><time>2026-03-29T14:33:27.859Z</time></trkpt><trkpt lat="45.1030617" lon="7.5473483"><ele>328.0</ele><time>2026-03-29T14:33:30.853Z</time></trkpt><trkpt lat="45.10304" lon="7.5472367"><ele>328.0</ele><time>2026-03-29T14:33:34.886Z</time></trkpt><trkpt lat="45.103045" lon="7.5471283"><ele>328.0</ele><time>2026-03-29T14:33:37.838Z</time></trkpt><trkpt lat="45.103045" lon="7.5470183"><ele>328.0</ele><time>2026-03-29T14:33:41.833Z</time></trkpt><trkpt lat="45.10305" lon="7.5469117"><ele>328.0</ele><time>2026-03-29T14:33:45.836Z</time></trkpt><trkpt lat="45.1030583" lon="7.5467983"><ele>328.0</ele><time>2026-03-29T14:33:48.838Z</time></trkpt><trkpt lat="45.103075" lon="7.54671"><ele>328.0</ele><time>2026-03-29T14:33:51.823Z</time></trkpt><trkpt lat="45.1030883" lon="7.5466"><ele>327.99999999999994</ele><time>2026-03-29T14:33:55.812Z</time></trkpt><trkpt lat="45.1030817" lon="7.546485"><ele>328.0</ele><time>2026-03-29T14:33:59.823Z</time></trkpt><trkpt lat="45.1030767" lon="7.546365"><ele>328.0</ele><time>2026-03-29T14:34:02.871Z</time></trkpt><trkpt lat="45.1030833" lon="7.54625"><ele>328.0</ele><time>2026-03-29T14:34:05.84Z</time></trkpt><trkpt lat="45.10308" lon="7.5461567"><ele>328.0</ele><time>2026-03-29T14:34:08.879Z</time></trkpt><trkpt lat="45.10303" lon="7.5460983"><ele>327.99999999999994</ele><time>2026-03-29T14:34:17.826Z</time></trkpt><trkpt lat="45.102985" lon="7.54603"><ele>328.0</ele><time>2026-03-29T14:34:26.972Z</time></trkpt><trkpt lat="45.1030483" lon="7.54597"><ele>328.4285714285714</ele><time>2026-03-29T14:34:58.833Z</time></trkpt><trkpt lat="45.10308" lon="7.545875"><ele>328.85714285714283</ele><time>2026-03-29T14:35:04.846Z</time></trkpt><trkpt lat="45.1030817" lon="7.5457667"><ele>329.2857142857143</ele><time>2026-03-29T14:35:07.826Z</time></trkpt><trkpt lat="45.1030833" lon="7.5456567"><ele>329.71428571428567</ele><time>2026-03-29T14:35:13.789Z</time></trkpt><trkpt lat="45.10309" lon="7.5455533"><ele>330.1428571428571</ele><time>2026-03-29T14:35:17.828Z</time></trkpt><trkpt lat="45.1030883" lon="7.5454633"><ele>330.57142857142856</ele><time>2026-03-29T14:35:22.804Z</time></trkpt><trkpt lat="45.10309" lon="7.54536"><ele>331.0</ele><time>2026-03-29T14:35:28.901Z</time></trkpt><trkpt lat="45.1031133" lon="7.5452433"><ele>331.3333333333333</ele><time>2026-03-29T14:35:46.835Z</time></trkpt><trkpt lat="45.1031083" lon="7.5451317"><ele>331.66666666666663</ele><time>2026-03-29T14:35:50.914Z</time></trkpt><trkpt lat="45.103105" lon="7.5450083"><ele>332.0</ele><time>2026-03-29T14:35:53.838Z</time></trkpt><trkpt lat="45.1031083" lon="7.5448933"><ele>332.3333333333333</ele><time>2026-03-29T14:35:56.872Z</time></trkpt><trkpt lat="45.1031017" lon="7.5447933"><ele>332.6666666666667</ele><time>2026-03-29T14:35:59.855Z</time></trkpt><trkpt lat="45.1031083" lon="7.5446933"><ele>333.0</ele><time>2026-03-29T14:36:03.919Z</time></trkpt><trkpt lat="45.1031033" lon="7.5445983"><ele>332.6666666666667</ele><time>2026-03-29T14:36:06.815Z</time></trkpt><trkpt lat="45.1031" lon="7.5445033"><ele>332.3333333333333</ele><time>2026-03-29T14:36:11.864Z</time></trkpt><trkpt lat="45.1031167" lon="7.5444033"><ele>332.0</ele><time>2026-03-29T14:36:15.824Z</time></trkpt><trkpt lat="45.1031183" lon="7.54429"><ele>331.66666666666663</ele><time>2026-03-29T14:36:18.808Z</time></trkpt><trkpt lat="45.10312" lon="7.5441683"><ele>331.3333333333333</ele><time>2026-03-29T14:36:21.838Z</time></trkpt><trkpt lat="45.1031233" lon="7.5440783"><ele>331.0</ele><time>2026-03-29T14:36:23.825Z</time></trkpt><trkpt lat="45.1031267" lon="7.5439467"><ele>331.0</ele><time>2026-03-29T14:36:26.927Z</time></trkpt><trkpt lat="45.1031333" lon="7.5438233"><ele>331.0</ele><time>2026-03-29T14:36:29.8Z</time></trkpt><trkpt lat="45.1031317" lon="7.5437017"><ele>331.0</ele><time>2026-03-29T14:36:32.836Z</time></trkpt><trkpt lat="45.103135" lon="7.5435767"><ele>331.0</ele><time>2026-03-29T14:36:35.83Z</time></trkpt><trkpt lat="45.103135" lon="7.5434433"><ele>331.0</ele><time>2026-03-29T14:36:38.834Z</time></trkpt><trkpt lat="45.1031367" lon="7.54332"><ele>331.0</ele><time>2026-03-29T14:36:41.881Z</time></trkpt><trkpt lat="45.1031517" lon="7.5432233"><ele>331.16666666666663</ele><time>2026-03-29T14:36:43.85Z</time></trkpt><trkpt lat="45.1031583" lon="7.5431233"><ele>331.3333333333333</ele><time>2026-03-29T14:36:45.85Z</time></trkpt><trkpt lat="45.1031667" lon="7.54303"><ele>331.5</ele><time>2026-03-29T14:36:47.832Z</time></trkpt><trkpt lat="45.1031717" lon="7.5429017"><ele>331.6666666666667</ele><time>2026-03-29T14:36:50.868Z</time></trkpt><trkpt lat="45.10317" lon="7.54277"><ele>331.83333333333337</ele><time>2026-03-29T14:36:53.807Z</time></trkpt><trkpt lat="45.10317" lon="7.5426633"><ele>332.0</ele><time>2026-03-29T14:36:56.856Z</time></trkpt><trkpt lat="45.10315" lon="7.54256"><ele>332.1666666666667</ele><time>2026-03-29T14:37:01.815Z</time></trkpt><trkpt lat="45.10315" lon="7.5424633"><ele>332.33333333333337</ele><time>2026-03-29T14:37:05.833Z</time></trkpt><trkpt lat="45.1031633" lon="7.5423583"><ele>332.5</ele><time>2026-03-29T14:37:09.859Z</time></trkpt><trkpt lat="45.1031733" lon="7.5422283"><ele>332.6666666666667</ele><time>2026-03-29T14:37:13.843Z</time></trkpt><trkpt lat="45.103175" lon="7.5421067"><ele>332.8333333333333</ele><time>2026-03-29T14:37:16.833Z</time></trkpt><trkpt lat="45.1031817" lon="7.5419967"><ele>333.0</ele><time>2026-03-29T14:37:19.83Z</time></trkpt><trkpt lat="45.10318" lon="7.541855"><ele>333.1666666666667</ele><time>2026-03-29T14:37:22.842Z</time></trkpt><trkpt lat="45.1031867" lon="7.5417383"><ele>333.3333333333333</ele><time>2026-03-29T14:37:25.798Z</time></trkpt><trkpt lat="45.1031867" lon="7.5416133"><ele>333.5</ele><time>2026-03-29T14:37:28.856Z</time></trkpt><trkpt lat="45.1031833" lon="7.541505"><ele>333.66666666666663</ele><time>2026-03-29T14:37:31.825Z</time></trkpt><trkpt lat="45.1031867" lon="7.5414083"><ele>333.8333333333333</ele><time>2026-03-29T14:37:35.875Z</time></trkpt><trkpt lat="45.1032083" lon="7.5413183"><ele>334.0</ele><time>2026-03-29T14:37:39.821Z</time></trkpt><trkpt lat="45.103225" lon="7.5412133"><ele>333.66666666666663</ele><time>2026-03-29T14:37:42.835Z</time></trkpt><trkpt lat="45.103235" lon="7.5410967"><ele>333.3333333333333</ele><time>2026-03-29T14:37:45.843Z</time></trkpt><trkpt lat="45.1032333" lon="7.54097"><ele>333.0</ele><time>2026-03-29T14:37:48.853Z</time></trkpt><trkpt lat="45.1032183" lon="7.5408733"><ele>332.6666666666667</ele><time>2026-03-29T14:37:50.858Z</time></trkpt><trkpt lat="45.103205" lon="7.5407483"><ele>332.33333333333337</ele><time>2026-03-29T14:37:53.856Z</time></trkpt><trkpt lat="45.1032017" lon="7.5406317"><ele>332.0</ele><time>2026-03-29T14:37:56.878Z</time></trkpt><trkpt lat="45.1031983" lon="7.5405417"><ele>332.0</ele><time>2026-03-29T14:38:00.848Z</time></trkpt><trkpt lat="45.1031717" lon="7.54044"><ele>332.0</ele><time>2026-03-29T14:38:04.804Z</time></trkpt><trkpt lat="45.103185" lon="7.5403517"><ele>332.0</ele><time>2026-03-29T14:38:08.909Z</time></trkpt><trkpt lat="45.103195" lon="7.540255"><ele>332.0</ele><time>2026-03-29T14:38:12.813Z</time></trkpt><trkpt lat="45.1031917" lon="7.5401333"><ele>332.0</ele><time>2026-03-29T14:38:15.853Z</time></trkpt><trkpt lat="45.1031883" lon="7.5400117"><ele>332.0</ele><time>2026-03-29T14:38:18.827Z</time></trkpt><trkpt lat="45.10319" lon="7.5398917"><ele>331.1666666666667</ele><time>2026-03-29T14:38:21.852Z</time></trkpt><trkpt lat="45.10319" lon="7.5397967"><ele>330.33333333333337</ele><time>2026-03-29T14:38:23.807Z</time></trkpt><trkpt lat="45.10319" lon="7.5396967"><ele>329.5</ele><time>2026-03-29T14:38:25.83Z</time></trkpt><trkpt lat="45.1031967" lon="7.5395183"><ele>328.6666666666667</ele><time>2026-03-29T14:38:28.858Z</time></trkpt><trkpt lat="45.1032083" lon="7.5393933"><ele>327.8333333333333</ele><time>2026-03-29T14:38:30.856Z</time></trkpt><trkpt lat="45.1032183" lon="7.539265"><ele>327.0</ele><time>2026-03-29T14:38:32.873Z</time></trkpt><trkpt lat="45.1032167" lon="7.5391467"><ele>326.1666666666667</ele><time>2026-03-29T14:38:34.798Z</time></trkpt><trkpt lat="45.1032217" lon="7.5390517"><ele>325.3333333333333</ele><time>2026-03-29T14:38:36.815Z</time></trkpt><trkpt lat="45.1032217" lon="7.5389617"><ele>324.5</ele><time>2026-03-29T14:38:38.889Z</time></trkpt><trkpt lat="45.10321" lon="7.5388317"><ele>323.66666666666663</ele><time>2026-03-29T14:38:41.823Z</time></trkpt><trkpt lat="45.103215" lon="7.5387"><ele>322.8333333333333</ele><time>2026-03-29T14:38:44.871Z</time></trkpt><trkpt lat="45.10323" lon="7.5386083"><ele>322.0</ele><time>2026-03-29T14:38:47.819Z</time></trkpt><trkpt lat="45.103235" lon="7.53849"><ele>322.0</ele><time>2026-03-29T14:38:51.848Z</time></trkpt><trkpt lat="45.1032267" lon="7.538395"><ele>322.0</ele><time>2026-03-29T14:38:56.879Z</time></trkpt><trkpt lat="45.1031617" lon="7.53843"><ele>322.0</ele><time>2026-03-29T14:39:02.908Z</time></trkpt><trkpt lat="45.1031133" lon="7.5384883"><ele>322.0</ele><time>2026-03-29T14:39:05.858Z</time></trkpt><trkpt lat="45.1030583" lon="7.5385367"><ele>322.0</ele><time>2026-03-29T14:39:07.842Z</time></trkpt><trkpt lat="45.103" lon="7.5386083"><ele>322.0</ele><time>2026-03-29T14:39:09.858Z</time></trkpt><trkpt lat="45.1029283" lon="7.5386817"><ele>322.0</ele><time>2026-03-29T14:39:11.835Z</time></trkpt><trkpt lat="45.1028633" lon="7.538765"><ele>322.0</ele><time>2026-03-29T14:39:13.828Z</time></trkpt><trkpt lat="45.1028117" lon="7.538835"><ele>322.0</ele><time>2026-03-29T14:39:15.832Z</time></trkpt><trkpt lat="45.102765" lon="7.5388967"><ele>322.0</ele><time>2026-03-29T14:39:17.865Z</time></trkpt><trkpt lat="45.10269" lon="7.5389733"><ele>322.0</ele><time>2026-03-29T14:39:20.877Z</time></trkpt><trkpt lat="45.1026233" lon="7.5390517"><ele>322.0</ele><time>2026-03-29T14:39:23.841Z</time></trkpt><trkpt lat="45.10255" lon="7.5391283"><ele>322.0</ele><time>2026-03-29T14:39:26.837Z</time></trkpt><trkpt lat="45.1024983" lon="7.539185"><ele>322.0</ele><time>2026-03-29T14:39:28.839Z</time></trkpt><trkpt lat="45.1024433" lon="7.53924"><ele>322.0</ele><time>2026-03-29T14:39:30.874Z</time></trkpt><trkpt lat="45.10238" lon="7.5393017"><ele>322.0</ele><time>2026-03-29T14:39:32.869Z</time></trkpt><trkpt lat="45.1023233" lon="7.53936"><ele>322.0</ele><time>2026-03-29T14:39:34.797Z</time></trkpt><trkpt lat="45.102275" lon="7.5394183"><ele>322.0</ele><time>2026-03-29T14:39:36.827Z</time></trkpt><trkpt lat="45.1022183" lon="7.5394717"><ele>322.0</ele><time>2026-03-29T14:39:38.884Z</time></trkpt><trkpt lat="45.10216" lon="7.5395267"><ele>322.0</ele><time>2026-03-29T14:39:40.823Z</time></trkpt><trkpt lat="45.1021067" lon="7.5395883"><ele>322.16666666666663</ele><time>2026-03-29T14:39:42.819Z</time></trkpt><trkpt lat="45.1020533" lon="7.53965"><ele>322.3333333333333</ele><time>2026-03-29T14:39:44.899Z</time></trkpt><trkpt lat="45.1019967" lon="7.5397"><ele>322.5</ele><time>2026-03-29T14:39:46.839Z</time></trkpt><trkpt lat="45.10192" lon="7.5397683"><ele>322.6666666666667</ele><time>2026-03-29T14:39:49.823Z</time></trkpt><trkpt lat="45.1018417" lon="7.5398383"><ele>322.83333333333337</ele><time>2026-03-29T14:39:52.81Z</time></trkpt><trkpt lat="45.1017733" lon="7.539915"><ele>323.0</ele><time>2026-03-29T14:39:55.808Z</time></trkpt><trkpt lat="45.10172" lon="7.5399767"><ele>323.00000000000006</ele><time>2026-03-29T14:39:57.851Z</time></trkpt><trkpt lat="45.101665" lon="7.54003"><ele>323.0</ele><time>2026-03-29T14:39:59.822Z</time></trkpt><trkpt lat="45.1016083" lon="7.5400883"><ele>323.0</ele><time>2026-03-29T14:40:01.823Z</time></trkpt><trkpt lat="45.1015533" lon="7.54014"><ele>323.0</ele><time>2026-03-29T14:40:03.826Z</time></trkpt><trkpt lat="45.1014967" lon="7.5401983"><ele>323.0</ele><time>2026-03-29T14:40:05.837Z</time></trkpt><trkpt lat="45.1014267" lon="7.54028"><ele>323.00000000000006</ele><time>2026-03-29T14:40:08.86Z</time></trkpt><trkpt lat="45.10137" lon="7.54034"><ele>323.0</ele><time>2026-03-29T14:40:10.823Z</time></trkpt><trkpt lat="45.1013233" lon="7.5404017"><ele>323.1666666666667</ele><time>2026-03-29T14:40:12.829Z</time></trkpt><trkpt lat="45.1012667" lon="7.5404633"><ele>323.33333333333337</ele><time>2026-03-29T14:40:14.87Z</time></trkpt><trkpt lat="45.1012" lon="7.5405317"><ele>323.5</ele><time>2026-03-29T14:40:17.822Z</time></trkpt><trkpt lat="45.10113" lon="7.5406133"><ele>323.6666666666667</ele><time>2026-03-29T14:40:20.903Z</time></trkpt><trkpt lat="45.1010683" lon="7.540685"><ele>323.8333333333333</ele><time>2026-03-29T14:40:23.905Z</time></trkpt><trkpt lat="45.1009933" lon="7.5407583"><ele>324.0</ele><time>2026-03-29T14:40:26.906Z</time></trkpt><trkpt lat="45.1009167" lon="7.54083"><ele>324.0</ele><time>2026-03-29T14:40:29.825Z</time></trkpt><trkpt lat="45.1008517" lon="7.54085"><ele>324.0</ele><time>2026-03-29T14:40:32.895Z</time></trkpt><trkpt lat="45.100795" lon="7.5407817"><ele>324.0</ele><time>2026-03-29T14:40:37.856Z</time></trkpt><trkpt lat="45.1007983" lon="7.5406567"><ele>324.0</ele><time>2026-03-29T14:40:41.801Z</time></trkpt><trkpt lat="45.100805" lon="7.5405517"><ele>324.0</ele><time>2026-03-29T14:40:45.787Z</time></trkpt><trkpt lat="45.1008033" lon="7.5404617"><ele>324.0</ele><time>2026-03-29T14:40:48.797Z</time></trkpt><trkpt lat="45.1008017" lon="7.5403667"><ele>324.0</ele><time>2026-03-29T14:40:51.796Z</time></trkpt><trkpt lat="45.1008033" lon="7.54026"><ele>323.5</ele><time>2026-03-29T14:40:54.789Z</time></trkpt><trkpt lat="45.1008033" lon="7.54015"><ele>323.0</ele><time>2026-03-29T14:40:57.779Z</time></trkpt><trkpt lat="45.1008133" lon="7.540035"><ele>322.5</ele><time>2026-03-29T14:41:01.78Z</time></trkpt><trkpt lat="45.10083" lon="7.5399417"><ele>322.0</ele><time>2026-03-29T14:41:06.793Z</time></trkpt><trkpt lat="45.100815" lon="7.5398383"><ele>321.5</ele><time>2026-03-29T14:41:13.783Z</time></trkpt><trkpt lat="45.1008117" lon="7.539705"><ele>321.0</ele><time>2026-03-29T14:41:16.78Z</time></trkpt><trkpt lat="45.100815" lon="7.5395883"><ele>320.71428571428567</ele><time>2026-03-29T14:41:19.787Z</time></trkpt><trkpt lat="45.100825" lon="7.53947"><ele>320.42857142857144</ele><time>2026-03-29T14:41:22.785Z</time></trkpt><trkpt lat="45.10083" lon="7.539375"><ele>320.1428571428571</ele><time>2026-03-29T14:41:24.786Z</time></trkpt><trkpt lat="45.100835" lon="7.53927"><ele>319.85714285714283</ele><time>2026-03-29T14:41:26.845Z</time></trkpt><trkpt lat="45.1008417" lon="7.53917"><ele>319.57142857142856</ele><time>2026-03-29T14:41:28.794Z</time></trkpt><trkpt lat="45.1008483" lon="7.5390683"><ele>319.2857142857143</ele><time>2026-03-29T14:41:30.785Z</time></trkpt><trkpt lat="45.1008533" lon="7.5389667"><ele>319.0</ele><time>2026-03-29T14:41:32.837Z</time></trkpt><trkpt lat="45.10086" lon="7.538855"><ele>319.0</ele><time>2026-03-29T14:41:34.786Z</time></trkpt><trkpt lat="45.1008667" lon="7.53874"><ele>319.0</ele><time>2026-03-29T14:41:36.789Z</time></trkpt><trkpt lat="45.10087" lon="7.5386217"><ele>319.0</ele><time>2026-03-29T14:41:38.857Z</time></trkpt><trkpt lat="45.100875" lon="7.5384983"><ele>319.0</ele><time>2026-03-29T14:41:40.783Z</time></trkpt><trkpt lat="45.10088" lon="7.53838"><ele>319.0</ele><time>2026-03-29T14:41:42.787Z</time></trkpt><trkpt lat="45.1008833" lon="7.53826"><ele>319.0</ele><time>2026-03-29T14:41:44.843Z</time></trkpt><trkpt lat="45.1008883" lon="7.538155"><ele>319.0</ele><time>2026-03-29T14:41:46.786Z</time></trkpt><trkpt lat="45.10089" lon="7.53806"><ele>319.0</ele><time>2026-03-29T14:41:48.787Z</time></trkpt><trkpt lat="45.100895" lon="7.537945"><ele>319.0</ele><time>2026-03-29T14:41:50.833Z</time></trkpt><trkpt lat="45.1009033" lon="7.5378367"><ele>319.0</ele><time>2026-03-29T14:41:52.78Z</time></trkpt><trkpt lat="45.1009167" lon="7.5377233"><ele>319.0</ele><time>2026-03-29T14:41:54.786Z</time></trkpt><trkpt lat="45.1009233" lon="7.5376067"><ele>319.0</ele><time>2026-03-29T14:41:56.904Z</time></trkpt><trkpt lat="45.1009317" lon="7.5375"><ele>319.16666666666663</ele><time>2026-03-29T14:41:58.779Z</time></trkpt><trkpt lat="45.1009433" lon="7.5374"><ele>319.3333333333333</ele><time>2026-03-29T14:42:00.786Z</time></trkpt><trkpt lat="45.1009517" lon="7.5372883"><ele>319.5</ele><time>2026-03-29T14:42:02.833Z</time></trkpt><trkpt lat="45.100955" lon="7.53717"><ele>319.6666666666667</ele><time>2026-03-29T14:42:04.796Z</time></trkpt><trkpt lat="45.1009567" lon="7.5370533"><ele>319.83333333333337</ele><time>2026-03-29T14:42:06.893Z</time></trkpt><trkpt lat="45.1009567" lon="7.5369367"><ele>320.0</ele><time>2026-03-29T14:42:08.882Z</time></trkpt><trkpt lat="45.1009517" lon="7.53681"><ele>320.1666666666667</ele><time>2026-03-29T14:42:10.832Z</time></trkpt><trkpt lat="45.10095" lon="7.5366883"><ele>320.33333333333337</ele><time>2026-03-29T14:42:12.814Z</time></trkpt><trkpt lat="45.1009483" lon="7.5365817"><ele>320.5</ele><time>2026-03-29T14:42:14.894Z</time></trkpt><trkpt lat="45.1009583" lon="7.5364533"><ele>320.6666666666667</ele><time>2026-03-29T14:42:17.824Z</time></trkpt><trkpt lat="45.1009667" lon="7.5363533"><ele>320.8333333333333</ele><time>2026-03-29T14:42:19.838Z</time></trkpt><trkpt lat="45.1009733" lon="7.5362433"><ele>321.0</ele><time>2026-03-29T14:42:21.857Z</time></trkpt><trkpt lat="45.1009783" lon="7.5361417"><ele>321.0</ele><time>2026-03-29T14:42:23.827Z</time></trkpt><trkpt lat="45.1009833" lon="7.5360417"><ele>321.0</ele><time>2026-03-29T14:42:25.815Z</time></trkpt><trkpt lat="45.1009917" lon="7.5359283"><ele>321.0</ele><time>2026-03-29T14:42:27.835Z</time></trkpt><trkpt lat="45.100995" lon="7.5358367"><ele>321.0</ele><time>2026-03-29T14:42:29.844Z</time></trkpt><trkpt lat="45.1009967" lon="7.5357417"><ele>321.0</ele><time>2026-03-29T14:42:31.813Z</time></trkpt><trkpt lat="45.1010017" lon="7.535615"><ele>321.0</ele><time>2026-03-29T14:42:34.817Z</time></trkpt><trkpt lat="45.101005" lon="7.5354817"><ele>320.8333333333333</ele><time>2026-03-29T14:42:37.809Z</time></trkpt><trkpt lat="45.1010083" lon="7.5353817"><ele>320.6666666666667</ele><time>2026-03-29T14:42:39.843Z</time></trkpt><trkpt lat="45.101015" lon="7.5352683"><ele>320.5</ele><time>2026-03-29T14:42:41.829Z</time></trkpt><trkpt lat="45.101025" lon="7.53516"><ele>320.33333333333337</ele><time>2026-03-29T14:42:43.824Z</time></trkpt><trkpt lat="45.10103" lon="7.5350517"><ele>320.1666666666667</ele><time>2026-03-29T14:42:45.855Z</time></trkpt><trkpt lat="45.1010333" lon="7.534945"><ele>320.0</ele><time>2026-03-29T14:42:47.828Z</time></trkpt><trkpt lat="45.1010267" lon="7.5348433"><ele>320.0</ele><time>2026-03-29T14:42:49.837Z</time></trkpt><trkpt lat="45.101025" lon="7.53474"><ele>320.0</ele><time>2026-03-29T14:42:51.83Z</time></trkpt><trkpt lat="45.10103" lon="7.53463"><ele>320.0</ele><time>2026-03-29T14:42:53.865Z</time></trkpt><trkpt lat="45.10104" lon="7.5345183"><ele>320.0</ele><time>2026-03-29T14:42:55.918Z</time></trkpt><trkpt lat="45.101045" lon="7.5344083"><ele>320.0</ele><time>2026-03-29T14:42:57.848Z</time></trkpt><trkpt lat="45.101055" lon="7.5343083"><ele>320.0</ele><time>2026-03-29T14:42:59.831Z</time></trkpt><trkpt lat="45.101065" lon="7.5342167"><ele>320.0</ele><time>2026-03-29T14:43:01.869Z</time></trkpt><trkpt lat="45.1010683" lon="7.534115"><ele>320.1428571428571</ele><time>2026-03-29T14:43:05.862Z</time></trkpt><trkpt lat="45.1010033" lon="7.534055"><ele>320.2857142857143</ele><time>2026-03-29T14:43:16.87Z</time></trkpt><trkpt lat="45.1009417" lon="7.5340033"><ele>320.42857142857144</ele><time>2026-03-29T14:43:20.866Z</time></trkpt><trkpt lat="45.1009433" lon="7.5339017"><ele>320.57142857142856</ele><time>2026-03-29T14:43:24.844Z</time></trkpt><trkpt lat="45.1008783" lon="7.5338783"><ele>320.7142857142857</ele><time>2026-03-29T14:43:27.847Z</time></trkpt><trkpt lat="45.100805" lon="7.53392"><ele>320.85714285714283</ele><time>2026-03-29T14:43:30.894Z</time></trkpt><trkpt lat="45.1007317" lon="7.53395"><ele>321.0</ele><time>2026-03-29T14:43:33.821Z</time></trkpt><trkpt lat="45.1006683" lon="7.533985"><ele>321.0</ele><time>2026-03-29T14:43:36.835Z</time></trkpt><trkpt lat="45.1005917" lon="7.5340267"><ele>321.0</ele><time>2026-03-29T14:43:39.825Z</time></trkpt><trkpt lat="45.1005217" lon="7.534085"><ele>321.0</ele><time>2026-03-29T14:43:42.789Z</time></trkpt><trkpt lat="45.1004533" lon="7.53414"><ele>321.0</ele><time>2026-03-29T14:43:45.831Z</time></trkpt><trkpt lat="45.1003783" lon="7.5341767"><ele>321.0</ele><time>2026-03-29T14:43:48.842Z</time></trkpt><trkpt lat="45.1002883" lon="7.5342033"><ele>321.0</ele><time>2026-03-29T14:43:51.858Z</time></trkpt><trkpt lat="45.1002067" lon="7.5342567"><ele>321.0</ele><time>2026-03-29T14:43:54.846Z</time></trkpt><trkpt lat="45.1001233" lon="7.5343117"><ele>321.0</ele><time>2026-03-29T14:43:57.827Z</time></trkpt><trkpt lat="45.1000433" lon="7.5343717"><ele>321.0</ele><time>2026-03-29T14:44:00.824Z</time></trkpt><trkpt lat="45.09998" lon="7.53441"><ele>321.0</ele><time>2026-03-29T14:44:02.896Z</time></trkpt><trkpt lat="45.0999" lon="7.5344617"><ele>321.0</ele><time>2026-03-29T14:44:05.821Z</time></trkpt><trkpt lat="45.099845" lon="7.5345067"><ele>321.0</ele><time>2026-03-29T14:44:08.862Z</time></trkpt><trkpt lat="45.0998033" lon="7.5345833"><ele>320.3333333333333</ele><time>2026-03-29T14:44:13.831Z</time></trkpt><trkpt lat="45.0998" lon="7.5347033"><ele>319.6666666666667</ele><time>2026-03-29T14:44:16.801Z</time></trkpt><trkpt lat="45.09981" lon="7.534825"><ele>319.0</ele><time>2026-03-29T14:44:19.835Z</time></trkpt><trkpt lat="45.0998183" lon="7.5349433"><ele>318.33333333333337</ele><time>2026-03-29T14:44:22.813Z</time></trkpt><trkpt lat="45.0998267" lon="7.5350317"><ele>317.6666666666667</ele><time>2026-03-29T14:44:24.832Z</time></trkpt><trkpt lat="45.0998367" lon="7.5351667"><ele>317.0</ele><time>2026-03-29T14:44:27.818Z</time></trkpt><trkpt lat="45.0998517" lon="7.5352933"><ele>316.6666666666667</ele><time>2026-03-29T14:44:30.831Z</time></trkpt><trkpt lat="45.0998683" lon="7.535425"><ele>316.33333333333337</ele><time>2026-03-29T14:44:33.817Z</time></trkpt><trkpt lat="45.099875" lon="7.5355583"><ele>316.0</ele><time>2026-03-29T14:44:36.837Z</time></trkpt><trkpt lat="45.0998783" lon="7.5356817"><ele>315.6666666666667</ele><time>2026-03-29T14:44:39.826Z</time></trkpt><trkpt lat="45.0998783" lon="7.5358033"><ele>315.3333333333333</ele><time>2026-03-29T14:44:42.806Z</time></trkpt><trkpt lat="45.0998783" lon="7.5359017"><ele>315.0</ele><time>2026-03-29T14:44:44.878Z</time></trkpt><trkpt lat="45.099875" lon="7.5359933"><ele>315.0</ele><time>2026-03-29T14:44:46.837Z</time></trkpt><trkpt lat="45.0998867" lon="7.53612"><ele>315.0</ele><time>2026-03-29T14:44:49.837Z</time></trkpt><trkpt lat="45.0998967" lon="7.5362083"><ele>315.0</ele><time>2026-03-29T14:44:51.842Z</time></trkpt><trkpt lat="45.09991" lon="7.5363"><ele>315.0</ele><time>2026-03-29T14:44:53.829Z</time></trkpt><trkpt lat="45.0999217" lon="7.5364"><ele>315.0</ele><time>2026-03-29T14:44:55.797Z</time></trkpt><trkpt lat="45.099935" lon="7.5364917"><ele>315.0</ele><time>2026-03-29T14:44:57.836Z</time></trkpt><trkpt lat="45.099945" lon="7.536595"><ele>315.0</ele><time>2026-03-29T14:44:59.839Z</time></trkpt><trkpt lat="45.0999533" lon="7.53671"><ele>315.1666666666667</ele><time>2026-03-29T14:45:01.848Z</time></trkpt><trkpt lat="45.0999667" lon="7.5368333"><ele>315.3333333333333</ele><time>2026-03-29T14:45:03.824Z</time></trkpt><trkpt lat="45.09998" lon="7.5369583"><ele>315.5</ele><time>2026-03-29T14:45:05.826Z</time></trkpt><trkpt lat="45.09998" lon="7.53709"><ele>315.66666666666663</ele><time>2026-03-29T14:45:07.928Z</time></trkpt><trkpt lat="45.099955" lon="7.537215"><ele>315.8333333333333</ele><time>2026-03-29T14:45:09.858Z</time></trkpt><trkpt lat="45.099925" lon="7.5373283"><ele>316.0</ele><time>2026-03-29T14:45:11.803Z</time></trkpt><trkpt lat="45.09989" lon="7.5374433"><ele>315.16666666666663</ele><time>2026-03-29T14:45:13.84Z</time></trkpt><trkpt lat="45.0998517" lon="7.537545"><ele>314.3333333333333</ele><time>2026-03-29T14:45:15.827Z</time></trkpt><trkpt lat="45.09983" lon="7.5376483"><ele>313.5</ele><time>2026-03-29T14:45:17.825Z</time></trkpt><trkpt lat="45.099815" lon="7.5377417"><ele>312.6666666666667</ele><time>2026-03-29T14:45:19.842Z</time></trkpt><trkpt lat="45.0998033" lon="7.5378383"><ele>311.83333333333337</ele><time>2026-03-29T14:45:21.84Z</time></trkpt><trkpt lat="45.0998017" lon="7.5379333"><ele>311.0</ele><time>2026-03-29T14:45:23.877Z</time></trkpt><trkpt lat="45.0998133" lon="7.5380617"><ele>310.85714285714283</ele><time>2026-03-29T14:45:26.925Z</time></trkpt><trkpt lat="45.09982" lon="7.5382033"><ele>310.7142857142857</ele><time>2026-03-29T14:45:30.823Z</time></trkpt><trkpt lat="45.09983" lon="7.5383067"><ele>310.57142857142856</ele><time>2026-03-29T14:45:34.836Z</time></trkpt><trkpt lat="45.09984" lon="7.5383967"><ele>310.42857142857144</ele><time>2026-03-29T14:45:37.834Z</time></trkpt><trkpt lat="45.0998583" lon="7.5385"><ele>310.2857142857143</ele><time>2026-03-29T14:45:41.853Z</time></trkpt><trkpt lat="45.0998483" lon="7.53859"><ele>310.14285714285717</ele><time>2026-03-29T14:46:03.836Z</time></trkpt><trkpt lat="45.0998567" lon="7.5386867"><ele>310.0</ele><time>2026-03-29T14:46:06.839Z</time></trkpt><trkpt lat="45.0998867" lon="7.5387867"><ele>310.2857142857143</ele><time>2026-03-29T14:46:10.808Z</time></trkpt><trkpt lat="45.0999067" lon="7.5388833"><ele>310.57142857142856</ele><time>2026-03-29T14:46:14.863Z</time></trkpt><trkpt lat="45.0999267" lon="7.538975"><ele>310.8571428571429</ele><time>2026-03-29T14:46:19.813Z</time></trkpt><trkpt lat="45.0999483" lon="7.5390933"><ele>311.1428571428571</ele><time>2026-03-29T14:46:24.846Z</time></trkpt><trkpt lat="45.099965" lon="7.53918"><ele>311.4285714285714</ele><time>2026-03-29T14:46:27.86Z</time></trkpt><trkpt lat="45.0999867" lon="7.5392683"><ele>311.7142857142857</ele><time>2026-03-29T14:46:31.831Z</time></trkpt><trkpt lat="45.1000083" lon="7.5393567"><ele>312.0</ele><time>2026-03-29T14:46:34.821Z</time></trkpt><trkpt lat="45.100045" lon="7.539455"><ele>312.2857142857143</ele><time>2026-03-29T14:46:38.886Z</time></trkpt><trkpt lat="45.1000333" lon="7.5395633"><ele>312.57142857142856</ele><time>2026-03-29T14:46:44.862Z</time></trkpt><trkpt lat="45.100055" lon="7.5396533"><ele>312.85714285714283</ele><time>2026-03-29T14:46:49.814Z</time></trkpt><trkpt lat="45.10007" lon="7.5397467"><ele>313.1428571428571</ele><time>2026-03-29T14:46:56.934Z</time></trkpt><trkpt lat="45.1000867" lon="7.5398417"><ele>313.42857142857144</ele><time>2026-03-29T14:47:03.847Z</time></trkpt><trkpt lat="45.1000983" lon="7.5399383"><ele>313.71428571428567</ele><time>2026-03-29T14:47:09.83Z</time></trkpt><trkpt lat="45.1000483" lon="7.5400067"><ele>314.0</ele><time>2026-03-29T14:47:16.821Z</time></trkpt><trkpt lat="45.10001" lon="7.539925"><ele>313.99999999999994</ele><time>2026-03-29T14:47:35.806Z</time></trkpt><trkpt lat="45.0999767" lon="7.5398467"><ele>314.0</ele><time>2026-03-29T14:47:40.828Z</time></trkpt><trkpt lat="45.09995" lon="7.5397583"><ele>314.0</ele><time>2026-03-29T14:47:45.835Z</time></trkpt><trkpt lat="45.0999433" lon="7.5396567"><ele>314.0</ele><time>2026-03-29T14:47:50.9Z</time></trkpt><trkpt lat="45.0999083" lon="7.5395583"><ele>314.0</ele><time>2026-03-29T14:47:57.83Z</time></trkpt><trkpt lat="45.099865" lon="7.5394817"><ele>313.99999999999994</ele><time>2026-03-29T14:48:00.849Z</time></trkpt><trkpt lat="45.0998" lon="7.539465"><ele>314.0</ele><time>2026-03-29T14:48:05.812Z</time></trkpt><trkpt lat="45.09977" lon="7.5395517"><ele>313.99999999999994</ele><time>2026-03-29T14:48:48.836Z</time></trkpt><trkpt lat="45.0998017" lon="7.539635"><ele>314.0</ele><time>2026-03-29T14:49:00.801Z</time></trkpt><trkpt lat="45.099845" lon="7.5397133"><ele>314.0</ele><time>2026-03-29T14:49:06.826Z</time></trkpt><trkpt lat="45.0998533" lon="7.5398283"><ele>314.0</ele><time>2026-03-29T14:49:10.789Z</time></trkpt><trkpt lat="45.0998433" lon="7.5399167"><ele>314.0</ele><time>2026-03-29T14:49:22.78Z</time></trkpt><trkpt lat="45.09988" lon="7.5400083"><ele>313.99999999999994</ele><time>2026-03-29T14:49:39.787Z</time></trkpt><trkpt lat="45.0999083" lon="7.540115"><ele>314.0</ele><time>2026-03-29T14:49:43.789Z</time></trkpt><trkpt lat="45.0999433" lon="7.5402067"><ele>313.99999999999994</ele><time>2026-03-29T14:49:47.788Z</time></trkpt><trkpt lat="45.0999683" lon="7.5403"><ele>314.0</ele><time>2026-03-29T14:49:51.788Z</time></trkpt><trkpt lat="45.1000083" lon="7.5403867"><ele>314.0</ele><time>2026-03-29T14:49:54.787Z</time></trkpt><trkpt lat="45.10005" lon="7.5404717"><ele>314.0</ele><time>2026-03-29T14:49:57.784Z</time></trkpt><trkpt lat="45.1000883" lon="7.54055"><ele>314.0</ele><time>2026-03-29T14:50:00.783Z</time></trkpt><trkpt lat="45.10012" lon="7.5406467"><ele>313.99999999999994</ele><time>2026-03-29T14:50:04.782Z</time></trkpt><trkpt lat="45.1001483" lon="7.5407367"><ele>314.0</ele><time>2026-03-29T14:50:08.853Z</time></trkpt><trkpt lat="45.1001583" lon="7.5408283"><ele>313.85714285714283</ele><time>2026-03-29T14:50:18.789Z</time></trkpt><trkpt lat="45.1001533" lon="7.5409267"><ele>313.7142857142857</ele><time>2026-03-29T14:50:36.824Z</time></trkpt><trkpt lat="45.10016" lon="7.5410217"><ele>313.57142857142856</ele><time>2026-03-29T14:50:39.789Z</time></trkpt><trkpt lat="45.100165" lon="7.5411133"><ele>313.42857142857144</ele><time>2026-03-29T14:50:42.775Z</time></trkpt><trkpt lat="45.10016" lon="7.5412317"><ele>313.2857142857143</ele><time>2026-03-29T14:50:45.786Z</time></trkpt><trkpt lat="45.1001467" lon="7.5413483"><ele>313.1428571428571</ele><time>2026-03-29T14:50:48.797Z</time></trkpt><trkpt lat="45.1001367" lon="7.541445"><ele>313.0</ele><time>2026-03-29T14:50:51.78Z</time></trkpt><trkpt lat="45.1001183" lon="7.5415567"><ele>313.0</ele><time>2026-03-29T14:50:55.784Z</time></trkpt><trkpt lat="45.1000867" lon="7.5416383"><ele>313.0</ele><time>2026-03-29T14:50:58.778Z</time></trkpt><trkpt lat="45.1000633" lon="7.5417233"><ele>313.0</ele><time>2026-03-29T14:51:01.786Z</time></trkpt><trkpt lat="45.1000433" lon="7.54182"><ele>313.0</ele><time>2026-03-29T14:51:04.789Z</time></trkpt><trkpt lat="45.1000017" lon="7.5419"><ele>313.0</ele><time>2026-03-29T14:51:07.798Z</time></trkpt><trkpt lat="45.099975" lon="7.5419917"><ele>313.0</ele><time>2026-03-29T14:51:11.786Z</time></trkpt><trkpt lat="45.0999117" lon="7.5421033"><ele>313.0</ele><time>2026-03-29T14:51:16.782Z</time></trkpt><trkpt lat="45.09986" lon="7.5421783"><ele>311.66666666666663</ele><time>2026-03-29T14:51:20.85Z</time></trkpt><trkpt lat="45.0998183" lon="7.5422533"><ele>310.3333333333333</ele><time>2026-03-29T14:51:23.79Z</time></trkpt><trkpt lat="45.0997617" lon="7.5423467"><ele>309.0</ele><time>2026-03-29T14:51:26.873Z</time></trkpt><trkpt lat="45.0997017" lon="7.5423783"><ele>307.6666666666667</ele><time>2026-03-29T14:51:29.795Z</time></trkpt><trkpt lat="45.0996433" lon="7.542465"><ele>306.33333333333337</ele><time>2026-03-29T14:51:32.852Z</time></trkpt><trkpt lat="45.0995783" lon="7.54252"><ele>305.0</ele><time>2026-03-29T14:51:34.786Z</time></trkpt><trkpt lat="45.09952" lon="7.5425967"><ele>305.0</ele><time>2026-03-29T14:51:37.797Z</time></trkpt><trkpt lat="45.0994667" lon="7.5426467"><ele>305.0</ele><time>2026-03-29T14:51:40.788Z</time></trkpt><trkpt lat="45.0994117" lon="7.5426983"><ele>305.0</ele><time>2026-03-29T14:51:44.836Z</time></trkpt><trkpt lat="45.0993367" lon="7.5427417"><ele>305.0</ele><time>2026-03-29T14:51:48.801Z</time></trkpt><trkpt lat="45.0992583" lon="7.54277"><ele>305.0</ele><time>2026-03-29T14:51:52.782Z</time></trkpt><trkpt lat="45.0991817" lon="7.542745"><ele>305.0</ele><time>2026-03-29T14:51:55.792Z</time></trkpt><trkpt lat="45.0991117" lon="7.5427433"><ele>305.0</ele><time>2026-03-29T14:51:59.777Z</time></trkpt><trkpt lat="45.09903" lon="7.5427783"><ele>305.14285714285717</ele><time>2026-03-29T14:52:03.793Z</time></trkpt><trkpt lat="45.0989467" lon="7.5427933"><ele>305.2857142857143</ele><time>2026-03-29T14:52:07.858Z</time></trkpt><trkpt lat="45.0988817" lon="7.5427883"><ele>305.42857142857144</ele><time>2026-03-29T14:52:10.833Z</time></trkpt><trkpt lat="45.0988083" lon="7.5428133"><ele>305.57142857142856</ele><time>2026-03-29T14:52:13.838Z</time></trkpt><trkpt lat="45.0987467" lon="7.54288"><ele>305.7142857142857</ele><time>2026-03-29T14:52:17.806Z</time></trkpt><trkpt lat="45.0986817" lon="7.5428917"><ele>305.85714285714283</ele><time>2026-03-29T14:52:21.839Z</time></trkpt><trkpt lat="45.0986067" lon="7.54292"><ele>306.0</ele><time>2026-03-29T14:52:24.8Z</time></trkpt><trkpt lat="45.0985433" lon="7.5429417"><ele>306.1428571428571</ele><time>2026-03-29T14:52:26.904Z</time></trkpt><trkpt lat="45.09848" lon="7.5429467"><ele>306.2857142857143</ele><time>2026-03-29T14:52:28.793Z</time></trkpt><trkpt lat="45.098415" lon="7.54297"><ele>306.42857142857144</ele><time>2026-03-29T14:52:31.837Z</time></trkpt><trkpt lat="45.0983483" lon="7.5429967"><ele>306.57142857142856</ele><time>2026-03-29T14:52:34.825Z</time></trkpt><trkpt lat="45.0982833" lon="7.543005"><ele>306.7142857142857</ele><time>2026-03-29T14:52:37.835Z</time></trkpt><trkpt lat="45.0982233" lon="7.543045"><ele>306.85714285714283</ele><time>2026-03-29T14:52:40.801Z</time></trkpt><trkpt lat="45.0981567" lon="7.5430667"><ele>307.0</ele><time>2026-03-29T14:52:43.825Z</time></trkpt><trkpt lat="45.0980817" lon="7.5430917"><ele>306.2857142857143</ele><time>2026-03-29T14:52:46.834Z</time></trkpt><trkpt lat="45.098015" lon="7.5431283"><ele>305.57142857142856</ele><time>2026-03-29T14:52:49.799Z</time></trkpt><trkpt lat="45.0979467" lon="7.5431883"><ele>304.8571428571429</ele><time>2026-03-29T14:52:53.816Z</time></trkpt><trkpt lat="45.0978783" lon="7.543255"><ele>304.1428571428571</ele><time>2026-03-29T14:52:57.853Z</time></trkpt><trkpt lat="45.0978233" lon="7.5433067"><ele>303.42857142857144</ele><time>2026-03-29T14:53:00.799Z</time></trkpt><trkpt lat="45.0977717" lon="7.5433617"><ele>302.7142857142857</ele><time>2026-03-29T14:53:03.812Z</time></trkpt><trkpt lat="45.0977167" lon="7.5434317"><ele>302.0</ele><time>2026-03-29T14:53:06.869Z</time></trkpt><trkpt lat="45.09765" lon="7.54352"><ele>302.0</ele><time>2026-03-29T14:53:09.844Z</time></trkpt><trkpt lat="45.0975967" lon="7.5436117"><ele>302.0</ele><time>2026-03-29T14:53:12.831Z</time></trkpt><trkpt lat="45.09755" lon="7.5437067"><ele>302.0</ele><time>2026-03-29T14:53:15.839Z</time></trkpt><trkpt lat="45.097495" lon="7.5437883"><ele>302.0</ele><time>2026-03-29T14:53:18.832Z</time></trkpt><trkpt lat="45.0974417" lon="7.5438767"><ele>302.0</ele><time>2026-03-29T14:53:21.827Z</time></trkpt><trkpt lat="45.09739" lon="7.5439433"><ele>302.0</ele><time>2026-03-29T14:53:24.82Z</time></trkpt><trkpt lat="45.09733" lon="7.5439867"><ele>301.83333333333337</ele><time>2026-03-29T14:53:27.845Z</time></trkpt><trkpt lat="45.0972667" lon="7.5440567"><ele>301.6666666666667</ele><time>2026-03-29T14:53:30.867Z</time></trkpt><trkpt lat="45.0972083" lon="7.544155"><ele>301.5</ele><time>2026-03-29T14:53:33.833Z</time></trkpt><trkpt lat="45.0971467" lon="7.5442317"><ele>301.3333333333333</ele><time>2026-03-29T14:53:37.835Z</time></trkpt><trkpt lat="45.0970983" lon="7.5442933"><ele>301.16666666666663</ele><time>2026-03-29T14:53:40.835Z</time></trkpt><trkpt lat="45.09704" lon="7.5443783"><ele>301.0</ele><time>2026-03-29T14:53:43.832Z</time></trkpt><trkpt lat="45.09699" lon="7.5444417"><ele>301.0</ele><time>2026-03-29T14:53:46.793Z</time></trkpt><trkpt lat="45.09694" lon="7.5445183"><ele>301.0</ele><time>2026-03-29T14:53:50.88Z</time></trkpt><trkpt lat="45.0968917" lon="7.5445967"><ele>301.0</ele><time>2026-03-29T14:53:54.872Z</time></trkpt><trkpt lat="45.0968417" lon="7.5446733"><ele>301.0</ele><time>2026-03-29T14:53:58.798Z</time></trkpt><trkpt lat="45.0967967" lon="7.54476"><ele>301.0</ele><time>2026-03-29T14:54:02.853Z</time></trkpt><trkpt lat="45.096745" lon="7.5448367"><ele>301.0</ele><time>2026-03-29T14:54:06.846Z</time></trkpt><trkpt lat="45.09669" lon="7.5449133"><ele>301.0</ele><time>2026-03-29T14:54:09.843Z</time></trkpt><trkpt lat="45.0966367" lon="7.5449933"><ele>301.0</ele><time>2026-03-29T14:54:12.825Z</time></trkpt><trkpt lat="45.096585" lon="7.5450483"><ele>301.0</ele><time>2026-03-29T14:54:15.823Z</time></trkpt><trkpt lat="45.0965367" lon="7.5451067"><ele>301.0</ele><time>2026-03-29T14:54:18.862Z</time></trkpt><trkpt lat="45.096475" lon="7.54518"><ele>301.0</ele><time>2026-03-29T14:54:22.795Z</time></trkpt><trkpt lat="45.0964183" lon="7.5452533"><ele>301.0</ele><time>2026-03-29T14:54:25.809Z</time></trkpt><trkpt lat="45.0963517" lon="7.5453417"><ele>301.0</ele><time>2026-03-29T14:54:28.807Z</time></trkpt><trkpt lat="45.0962983" lon="7.5454283"><ele>301.14285714285717</ele><time>2026-03-29T14:54:31.809Z</time></trkpt><trkpt lat="45.09624" lon="7.5455"><ele>301.2857142857143</ele><time>2026-03-29T14:54:34.787Z</time></trkpt><trkpt lat="45.0961733" lon="7.5455383"><ele>301.42857142857144</ele><time>2026-03-29T14:55:27.848Z</time></trkpt><trkpt lat="45.096115" lon="7.5456017"><ele>301.57142857142856</ele><time>2026-03-29T14:55:32.873Z</time></trkpt><trkpt lat="45.0960583" lon="7.5456667"><ele>301.7142857142857</ele><time>2026-03-29T14:55:36.794Z</time></trkpt><trkpt lat="45.096" lon="7.5457117"><ele>301.8571428571429</ele><time>2026-03-29T14:55:39.831Z</time></trkpt><trkpt lat="45.095945" lon="7.5457667"><ele>302.0</ele><time>2026-03-29T14:55:44.9Z</time></trkpt><trkpt lat="45.0958883" lon="7.5458233"><ele>302.00000000000006</ele><time>2026-03-29T14:55:50.892Z</time></trkpt><trkpt lat="45.095835" lon="7.5458867"><ele>302.0</ele><time>2026-03-29T14:55:53.82Z</time></trkpt><trkpt lat="45.0957817" lon="7.5459667"><ele>302.0</ele><time>2026-03-29T14:55:56.866Z</time></trkpt><trkpt lat="45.0957333" lon="7.54604"><ele>302.0</ele><time>2026-03-29T14:55:59.832Z</time></trkpt><trkpt lat="45.095695" lon="7.5461217"><ele>302.0</ele><time>2026-03-29T14:56:03.882Z</time></trkpt><trkpt lat="45.09566" lon="7.5462083"><ele>302.00000000000006</ele><time>2026-03-29T14:56:06.848Z</time></trkpt><trkpt lat="45.0956417" lon="7.5463167"><ele>302.0</ele><time>2026-03-29T14:56:10.82Z</time></trkpt><trkpt lat="45.09563" lon="7.5464083"><ele>301.1666666666667</ele><time>2026-03-29T14:56:14.9Z</time></trkpt><trkpt lat="45.09559" lon="7.5464883"><ele>300.33333333333337</ele><time>2026-03-29T14:56:19.79Z</time></trkpt><trkpt lat="45.095525" lon="7.5465517"><ele>299.5</ele><time>2026-03-29T14:56:31.783Z</time></trkpt><trkpt lat="45.09547" lon="7.5465983"><ele>298.6666666666667</ele><time>2026-03-29T14:56:33.788Z</time></trkpt><trkpt lat="45.095405" lon="7.5466767"><ele>297.8333333333333</ele><time>2026-03-29T14:56:36.86Z</time></trkpt><trkpt lat="45.0953883" lon="7.5467767"><ele>297.0</ele><time>2026-03-29T14:56:39.857Z</time></trkpt><trkpt lat="45.0953867" lon="7.5469033"><ele>297.0</ele><time>2026-03-29T14:56:42.862Z</time></trkpt><trkpt lat="45.0953867" lon="7.5469967"><ele>297.0</ele><time>2026-03-29T14:56:44.877Z</time></trkpt><trkpt lat="45.0954083" lon="7.54712"><ele>297.0</ele><time>2026-03-29T14:56:47.834Z</time></trkpt><trkpt lat="45.0954183" lon="7.5472233"><ele>297.0</ele><time>2026-03-29T14:56:49.862Z</time></trkpt><trkpt lat="45.095435" lon="7.5473317"><ele>297.0</ele><time>2026-03-29T14:56:51.842Z</time></trkpt><trkpt lat="45.0954567" lon="7.547445"><ele>297.0</ele><time>2026-03-29T14:56:53.836Z</time></trkpt><trkpt lat="45.0954867" lon="7.54754"><ele>297.1666666666667</ele><time>2026-03-29T14:56:55.827Z</time></trkpt><trkpt lat="45.0955317" lon="7.5476383"><ele>297.3333333333333</ele><time>2026-03-29T14:56:57.842Z</time></trkpt><trkpt lat="45.0955733" lon="7.5477383"><ele>297.5</ele><time>2026-03-29T14:56:59.844Z</time></trkpt><trkpt lat="45.09561" lon="7.5478417"><ele>297.66666666666663</ele><time>2026-03-29T14:57:01.853Z</time></trkpt><trkpt lat="45.09565" lon="7.5479233"><ele>297.8333333333333</ele><time>2026-03-29T14:57:03.871Z</time></trkpt><trkpt lat="45.0956967" lon="7.5480067"><ele>298.0</ele><time>2026-03-29T14:57:06.824Z</time></trkpt><trkpt lat="45.09573" lon="7.548085"><ele>298.2857142857143</ele><time>2026-03-29T14:57:08.872Z</time></trkpt><trkpt lat="45.095775" lon="7.5481483"><ele>298.57142857142856</ele><time>2026-03-29T14:57:10.799Z</time></trkpt><trkpt lat="45.0958417" lon="7.5482317"><ele>298.85714285714283</ele><time>2026-03-29T14:57:13.827Z</time></trkpt><trkpt lat="45.0958933" lon="7.5482933"><ele>299.1428571428571</ele><time>2026-03-29T14:57:16.826Z</time></trkpt><trkpt lat="45.095945" lon="7.5483517"><ele>299.42857142857144</ele><time>2026-03-29T14:57:19.808Z</time></trkpt><trkpt lat="45.0960067" lon="7.5484417"><ele>299.71428571428567</ele><time>2026-03-29T14:57:22.809Z</time></trkpt><trkpt lat="45.09606" lon="7.5485033"><ele>300.0</ele><time>2026-03-29T14:57:24.825Z</time></trkpt><trkpt lat="45.09612" lon="7.548595"><ele>299.99999999999994</ele><time>2026-03-29T14:57:27.841Z</time></trkpt><trkpt lat="45.0961667" lon="7.5486567"><ele>300.0</ele><time>2026-03-29T14:57:29.827Z</time></trkpt><trkpt lat="45.0962183" lon="7.5487117"><ele>300.0</ele><time>2026-03-29T14:57:31.903Z</time></trkpt><trkpt lat="45.0962717" lon="7.5487767"><ele>300.0</ele><time>2026-03-29T14:57:33.836Z</time></trkpt><trkpt lat="45.096325" lon="7.5488467"><ele>300.0</ele><time>2026-03-29T14:57:35.811Z</time></trkpt><trkpt lat="45.0963767" lon="7.5489083"><ele>299.99999999999994</ele><time>2026-03-29T14:57:37.834Z</time></trkpt><trkpt lat="45.0964383" lon="7.54899"><ele>300.0</ele><time>2026-03-29T14:57:40.808Z</time></trkpt><trkpt lat="45.0965017" lon="7.5490317"><ele>299.71428571428567</ele><time>2026-03-29T14:57:43.836Z</time></trkpt><trkpt lat="45.096575" lon="7.549"><ele>299.42857142857144</ele><time>2026-03-29T14:57:46.83Z</time></trkpt><trkpt lat="45.0966433" lon="7.54898"><ele>299.1428571428571</ele><time>2026-03-29T14:57:50.849Z</time></trkpt><trkpt lat="45.0966917" lon="7.54904"><ele>298.85714285714283</ele><time>2026-03-29T14:57:53.856Z</time></trkpt><trkpt lat="45.0967183" lon="7.5491283"><ele>298.57142857142856</ele><time>2026-03-29T14:57:56.888Z</time></trkpt><trkpt lat="45.0967517" lon="7.5492317"><ele>298.2857142857143</ele><time>2026-03-29T14:57:59.855Z</time></trkpt><trkpt lat="45.096805" lon="7.5493033"><ele>298.0</ele><time>2026-03-29T14:58:02.872Z</time></trkpt><trkpt lat="45.0968433" lon="7.5493983"><ele>298.3333333333333</ele><time>2026-03-29T14:58:05.825Z</time></trkpt><trkpt lat="45.096875" lon="7.549495"><ele>298.66666666666663</ele><time>2026-03-29T14:58:08.859Z</time></trkpt><trkpt lat="45.09691" lon="7.5495967"><ele>299.0</ele><time>2026-03-29T14:58:11.808Z</time></trkpt><trkpt lat="45.0969417" lon="7.5496933"><ele>299.3333333333333</ele><time>2026-03-29T14:58:14.85Z</time></trkpt><trkpt lat="45.0969717" lon="7.5497917"><ele>299.6666666666667</ele><time>2026-03-29T14:58:17.825Z</time></trkpt><trkpt lat="45.0970083" lon="7.5498917"><ele>300.0</ele><time>2026-03-29T14:58:20.901Z</time></trkpt><trkpt lat="45.0970433" lon="7.5499933"><ele>300.0</ele><time>2026-03-29T14:58:23.85Z</time></trkpt><trkpt lat="45.09708" lon="7.5501033"><ele>300.0</ele><time>2026-03-29T14:58:26.869Z</time></trkpt><trkpt lat="45.0971067" lon="7.5501867"><ele>300.0</ele><time>2026-03-29T14:58:28.796Z</time></trkpt><trkpt lat="45.0971317" lon="7.550275"><ele>300.0</ele><time>2026-03-29T14:58:30.823Z</time></trkpt><trkpt lat="45.0971683" lon="7.55039"><ele>300.0</ele><time>2026-03-29T14:58:33.84Z</time></trkpt><trkpt lat="45.0971983" lon="7.5505033"><ele>300.0</ele><time>2026-03-29T14:58:36.818Z</time></trkpt><trkpt lat="45.09722" lon="7.5506017"><ele>300.4285714285714</ele><time>2026-03-29T14:58:39.844Z</time></trkpt><trkpt lat="45.097235" lon="7.5506917"><ele>300.85714285714283</ele><time>2026-03-29T14:58:42.818Z</time></trkpt><trkpt lat="45.0972433" lon="7.5507817"><ele>301.2857142857143</ele><time>2026-03-29T14:58:45.838Z</time></trkpt><trkpt lat="45.0972117" lon="7.5508783"><ele>301.71428571428567</ele><time>2026-03-29T14:58:49.787Z</time></trkpt><trkpt lat="45.09716" lon="7.5509633"><ele>302.1428571428571</ele><time>2026-03-29T14:58:52.834Z</time></trkpt><trkpt lat="45.097135" lon="7.551065"><ele>302.57142857142856</ele><time>2026-03-29T14:58:55.818Z</time></trkpt><trkpt lat="45.09709" lon="7.5511367"><ele>303.0</ele><time>2026-03-29T14:58:58.855Z</time></trkpt><trkpt lat="45.0970417" lon="7.5512317"><ele>305.0</ele><time>2026-03-29T14:59:02.877Z</time></trkpt><trkpt lat="45.0970033" lon="7.5513133"><ele>307.0</ele><time>2026-03-29T14:59:05.823Z</time></trkpt><trkpt lat="45.0969567" lon="7.5513933"><ele>309.0</ele><time>2026-03-29T14:59:08.865Z</time></trkpt><trkpt lat="45.0968883" lon="7.5514533"><ele>311.0</ele><time>2026-03-29T14:59:11.824Z</time></trkpt><trkpt lat="45.0968367" lon="7.5515083"><ele>313.0</ele><time>2026-03-29T14:59:14.877Z</time></trkpt><trkpt lat="45.0967467" lon="7.5515767"><ele>315.0</ele><time>2026-03-29T14:59:38.884Z</time></trkpt><trkpt lat="45.096685" lon="7.551595"><ele>315.0</ele><time>2026-03-29T14:59:41.815Z</time></trkpt><trkpt lat="45.096625" lon="7.5516383"><ele>315.0</ele><time>2026-03-29T14:59:46.794Z</time></trkpt><trkpt lat="45.0965867" lon="7.55171"><ele>315.0</ele><time>2026-03-29T14:59:50.893Z</time></trkpt><trkpt lat="45.09654" lon="7.5518083"><ele>315.0</ele><time>2026-03-29T14:59:55.84Z</time></trkpt><trkpt lat="45.0965167" lon="7.5518917"><ele>315.0</ele><time>2026-03-29T14:59:59.829Z</time></trkpt><trkpt lat="45.0964567" lon="7.551965"><ele>315.0</ele><time>2026-03-29T15:00:03.828Z</time></trkpt><trkpt lat="45.09641" lon="7.552055"><ele>315.0</ele><time>2026-03-29T15:00:07.795Z</time></trkpt><trkpt lat="45.0963567" lon="7.5521283"><ele>315.1666666666667</ele><time>2026-03-29T15:00:11.829Z</time></trkpt><trkpt lat="45.0962683" lon="7.552195"><ele>315.3333333333333</ele><time>2026-03-29T15:00:16.829Z</time></trkpt><trkpt lat="45.0962083" lon="7.5522267"><ele>315.5</ele><time>2026-03-29T15:00:19.849Z</time></trkpt><trkpt lat="45.09615" lon="7.5522883"><ele>315.66666666666663</ele><time>2026-03-29T15:00:23.788Z</time></trkpt><trkpt lat="45.0960783" lon="7.5523433"><ele>315.8333333333333</ele><time>2026-03-29T15:00:26.836Z</time></trkpt><trkpt lat="45.0959933" lon="7.5523883"><ele>316.0</ele><time>2026-03-29T15:00:30.786Z</time></trkpt><trkpt lat="45.0959383" lon="7.5524417"><ele>316.00000000000006</ele><time>2026-03-29T15:00:33.785Z</time></trkpt><trkpt lat="45.0958833" lon="7.55249"><ele>316.0</ele><time>2026-03-29T15:00:36.784Z</time></trkpt><trkpt lat="45.0958217" lon="7.552525"><ele>316.0</ele><time>2026-03-29T15:00:39.788Z</time></trkpt><trkpt lat="45.0957467" lon="7.5525517"><ele>316.0</ele><time>2026-03-29T15:00:42.79Z</time></trkpt><trkpt lat="45.095665" lon="7.5525333"><ele>316.0</ele><time>2026-03-29T15:00:44.835Z</time></trkpt><trkpt lat="45.0956017" lon="7.5525033"><ele>316.00000000000006</ele><time>2026-03-29T15:00:46.779Z</time></trkpt><trkpt lat="45.0955433" lon="7.552545"><ele>316.0</ele><time>2026-03-29T15:00:49.784Z</time></trkpt><trkpt lat="45.0954717" lon="7.5525733"><ele>316.28571428571433</ele><time>2026-03-29T15:00:52.796Z</time></trkpt><trkpt lat="45.0953933" lon="7.5525817"><ele>316.57142857142856</ele><time>2026-03-29T15:00:55.784Z</time></trkpt><trkpt lat="45.0953267" lon="7.5526367"><ele>316.8571428571429</ele><time>2026-03-29T15:01:00.783Z</time></trkpt><trkpt lat="45.095265" lon="7.552675"><ele>317.14285714285717</ele><time>2026-03-29T15:01:03.787Z</time></trkpt><trkpt lat="45.0952083" lon="7.5527383"><ele>317.42857142857144</ele><time>2026-03-29T15:01:07.782Z</time></trkpt><trkpt lat="45.09515" lon="7.552785"><ele>317.7142857142857</ele><time>2026-03-29T15:01:11.792Z</time></trkpt><trkpt lat="45.0950817" lon="7.552825"><ele>318.0</ele><time>2026-03-29T15:01:15.79Z</time></trkpt><trkpt lat="45.0950333" lon="7.5528833"><ele>318.0</ele><time>2026-03-29T15:01:31.793Z</time></trkpt><trkpt lat="45.0949567" lon="7.5529233"><ele>318.0</ele><time>2026-03-29T15:01:34.787Z</time></trkpt><trkpt lat="45.0948917" lon="7.552945"><ele>318.0</ele><time>2026-03-29T15:01:36.786Z</time></trkpt><trkpt lat="45.0948017" lon="7.5529767"><ele>318.0</ele><time>2026-03-29T15:01:39.784Z</time></trkpt><trkpt lat="45.0947233" lon="7.5529833"><ele>318.0</ele><time>2026-03-29T15:01:41.79Z</time></trkpt><trkpt lat="45.0946333" lon="7.5530033"><ele>318.0</ele><time>2026-03-29T15:01:44.83Z</time></trkpt><trkpt lat="45.0945533" lon="7.553035"><ele>316.1666666666667</ele><time>2026-03-29T15:01:47.785Z</time></trkpt><trkpt lat="45.0944817" lon="7.553075"><ele>314.3333333333333</ele><time>2026-03-29T15:01:50.866Z</time></trkpt><trkpt lat="45.094415" lon="7.553145"><ele>312.5</ele><time>2026-03-29T15:01:53.789Z</time></trkpt><trkpt lat="45.0943417" lon="7.5532033"><ele>310.66666666666663</ele><time>2026-03-29T15:01:56.836Z</time></trkpt><trkpt lat="45.09428" lon="7.5532317"><ele>308.8333333333333</ele><time>2026-03-29T15:01:58.786Z</time></trkpt><trkpt lat="45.0941933" lon="7.5532733"><ele>307.0</ele><time>2026-03-29T15:02:01.779Z</time></trkpt><trkpt lat="45.09411" lon="7.553325"><ele>306.6</ele><time>2026-03-29T15:02:04.781Z</time></trkpt><trkpt lat="45.0940217" lon="7.5533533"><ele>306.2</ele><time>2026-03-29T15:02:07.794Z</time></trkpt><trkpt lat="45.0939533" lon="7.553405"><ele>305.8</ele><time>2026-03-29T15:02:10.788Z</time></trkpt><trkpt lat="45.0938833" lon="7.5535067"><ele>305.4</ele><time>2026-03-29T15:02:13.793Z</time></trkpt><trkpt lat="45.093815" lon="7.5536"><ele>305.0</ele><time>2026-03-29T15:02:16.793Z</time></trkpt><trkpt lat="45.0937783" lon="7.5537133"><ele>305.0</ele><time>2026-03-29T15:02:19.793Z</time></trkpt><trkpt lat="45.093775" lon="7.5538083"><ele>305.0</ele><time>2026-03-29T15:02:22.806Z</time></trkpt><trkpt lat="45.0937817" lon="7.553905"><ele>305.0</ele><time>2026-03-29T15:02:25.786Z</time></trkpt><trkpt lat="45.093795" lon="7.5540217"><ele>305.0</ele><time>2026-03-29T15:02:28.784Z</time></trkpt><trkpt lat="45.0938067" lon="7.5541233"><ele>305.0</ele><time>2026-03-29T15:02:32.865Z</time></trkpt><trkpt lat="45.093825" lon="7.55424"><ele>305.0</ele><time>2026-03-29T15:02:35.789Z</time></trkpt><trkpt lat="45.0938383" lon="7.5543317"><ele>305.0</ele><time>2026-03-29T15:02:37.787Z</time></trkpt><trkpt lat="45.093845" lon="7.55444"><ele>305.0</ele><time>2026-03-29T15:02:40.78Z</time></trkpt><trkpt lat="45.0938533" lon="7.554545"><ele>305.0</ele><time>2026-03-29T15:02:43.827Z</time></trkpt><trkpt lat="45.0938617" lon="7.5546733"><ele>305.0</ele><time>2026-03-29T15:02:46.783Z</time></trkpt><trkpt lat="45.093875" lon="7.554765"><ele>305.0</ele><time>2026-03-29T15:02:48.788Z</time></trkpt><trkpt lat="45.0939" lon="7.5548867"><ele>305.0</ele><time>2026-03-29T15:02:51.783Z</time></trkpt><trkpt lat="45.0939167" lon="7.5549917"><ele>305.0</ele><time>2026-03-29T15:02:54.784Z</time></trkpt><trkpt lat="45.093935" lon="7.5550967"><ele>305.0</ele><time>2026-03-29T15:02:57.785Z</time></trkpt><trkpt lat="45.0939533" lon="7.55522"><ele>305.0</ele><time>2026-03-29T15:03:00.786Z</time></trkpt><trkpt lat="45.09398" lon="7.5553267"><ele>305.0</ele><time>2026-03-29T15:03:03.779Z</time></trkpt><trkpt lat="45.0939983" lon="7.5554417"><ele>305.0</ele><time>2026-03-29T15:03:06.784Z</time></trkpt><trkpt lat="45.094015" lon="7.55556"><ele>305.0</ele><time>2026-03-29T15:03:09.787Z</time></trkpt><trkpt lat="45.094025" lon="7.5556917"><ele>305.0</ele><time>2026-03-29T15:03:12.786Z</time></trkpt><trkpt lat="45.0940317" lon="7.5558217"><ele>304.5</ele><time>2026-03-29T15:03:15.791Z</time></trkpt><trkpt lat="45.0940483" lon="7.5559483"><ele>304.0</ele><time>2026-03-29T15:03:18.777Z</time></trkpt><trkpt lat="45.09406" lon="7.556065"><ele>303.5</ele><time>2026-03-29T15:03:21.786Z</time></trkpt><trkpt lat="45.09406" lon="7.556185"><ele>303.0</ele><time>2026-03-29T15:03:24.785Z</time></trkpt><trkpt lat="45.0940617" lon="7.5562867"><ele>302.5</ele><time>2026-03-29T15:03:26.847Z</time></trkpt><trkpt lat="45.0940633" lon="7.5563783"><ele>302.0</ele><time>2026-03-29T15:03:28.788Z</time></trkpt><trkpt lat="45.0940467" lon="7.556495"><ele>302.00000000000006</ele><time>2026-03-29T15:03:31.786Z</time></trkpt><trkpt lat="45.0940383" lon="7.556585"><ele>302.0</ele><time>2026-03-29T15:03:33.835Z</time></trkpt><trkpt lat="45.094025" lon="7.5566783"><ele>302.0</ele><time>2026-03-29T15:03:35.791Z</time></trkpt><trkpt lat="45.09401" lon="7.55677"><ele>302.0</ele><time>2026-03-29T15:03:37.785Z</time></trkpt><trkpt lat="45.093995" lon="7.5568683"><ele>302.0</ele><time>2026-03-29T15:03:40.789Z</time></trkpt><trkpt lat="45.0939817" lon="7.55698"><ele>302.00000000000006</ele><time>2026-03-29T15:03:45.786Z</time></trkpt><trkpt lat="45.0939483" lon="7.55708"><ele>302.0</ele><time>2026-03-29T15:03:48.782Z</time></trkpt><trkpt lat="45.09391" lon="7.5571917"><ele>302.5714285714286</ele><time>2026-03-29T15:03:51.785Z</time></trkpt><trkpt lat="45.0938817" lon="7.55731"><ele>303.14285714285717</ele><time>2026-03-29T15:03:54.783Z</time></trkpt><trkpt lat="45.093855" lon="7.5573933"><ele>303.7142857142857</ele><time>2026-03-29T15:03:56.839Z</time></trkpt><trkpt lat="45.0938383" lon="7.5574933"><ele>304.28571428571433</ele><time>2026-03-29T15:03:59.849Z</time></trkpt><trkpt lat="45.09381" lon="7.5575983"><ele>304.8571428571429</ele><time>2026-03-29T15:04:02.849Z</time></trkpt><trkpt lat="45.093785" lon="7.5576983"><ele>305.42857142857144</ele><time>2026-03-29T15:04:05.798Z</time></trkpt><trkpt lat="45.0937717" lon="7.5577933"><ele>306.0</ele><time>2026-03-29T15:04:08.828Z</time></trkpt><trkpt lat="45.0937383" lon="7.5579117"><ele>306.6666666666667</ele><time>2026-03-29T15:04:11.784Z</time></trkpt><trkpt lat="45.0937083" lon="7.5580033"><ele>307.3333333333333</ele><time>2026-03-29T15:04:13.795Z</time></trkpt><trkpt lat="45.0936783" lon="7.5580917"><ele>308.0</ele><time>2026-03-29T15:04:15.782Z</time></trkpt><trkpt lat="45.0936383" lon="7.55818"><ele>308.66666666666663</ele><time>2026-03-29T15:04:17.798Z</time></trkpt><trkpt lat="45.0936" lon="7.5582933"><ele>309.3333333333333</ele><time>2026-03-29T15:04:20.832Z</time></trkpt><trkpt lat="45.0935733" lon="7.5583883"><ele>310.0</ele><time>2026-03-29T15:04:22.792Z</time></trkpt><trkpt lat="45.093535" lon="7.55848"><ele>310.0</ele><time>2026-03-29T15:04:24.79Z</time></trkpt><trkpt lat="45.093495" lon="7.5585733"><ele>310.0</ele><time>2026-03-29T15:04:26.863Z</time></trkpt><trkpt lat="45.0934467" lon="7.558665"><ele>310.0</ele><time>2026-03-29T15:04:28.783Z</time></trkpt><trkpt lat="45.09339" lon="7.558755"><ele>310.0</ele><time>2026-03-29T15:04:30.855Z</time></trkpt><trkpt lat="45.0933383" lon="7.5588333"><ele>310.0</ele><time>2026-03-29T15:04:32.874Z</time></trkpt><trkpt lat="45.09329" lon="7.5589033"><ele>310.0</ele><time>2026-03-29T15:04:34.857Z</time></trkpt><trkpt lat="45.09325" lon="7.55898"><ele>308.5</ele><time>2026-03-29T15:04:36.862Z</time></trkpt><trkpt lat="45.0932033" lon="7.559065"><ele>307.0</ele><time>2026-03-29T15:04:38.885Z</time></trkpt><trkpt lat="45.0931467" lon="7.5591483"><ele>305.5</ele><time>2026-03-29T15:04:40.847Z</time></trkpt><trkpt lat="45.0930967" lon="7.559225"><ele>304.0</ele><time>2026-03-29T15:04:42.815Z</time></trkpt><trkpt lat="45.0930383" lon="7.5592983"><ele>302.5</ele><time>2026-03-29T15:04:44.873Z</time></trkpt><trkpt lat="45.092985" lon="7.559355"><ele>301.0</ele><time>2026-03-29T15:04:46.825Z</time></trkpt><trkpt lat="45.0929217" lon="7.5594333"><ele>301.0</ele><time>2026-03-29T15:04:49.849Z</time></trkpt><trkpt lat="45.0928733" lon="7.5595317"><ele>301.0</ele><time>2026-03-29T15:04:53.847Z</time></trkpt><trkpt lat="45.0928467" lon="7.5596167"><ele>301.0</ele><time>2026-03-29T15:04:56.926Z</time></trkpt><trkpt lat="45.0928483" lon="7.5597233"><ele>301.0</ele><time>2026-03-29T15:05:01.832Z</time></trkpt><trkpt lat="45.092855" lon="7.55984"><ele>301.0</ele><time>2026-03-29T15:05:05.822Z</time></trkpt><trkpt lat="45.0928583" lon="7.5599433"><ele>301.0</ele><time>2026-03-29T15:05:08.889Z</time></trkpt><trkpt lat="45.09286" lon="7.56004"><ele>301.5</ele><time>2026-03-29T15:05:11.826Z</time></trkpt><trkpt lat="45.09286" lon="7.5601667"><ele>302.0</ele><time>2026-03-29T15:05:14.881Z</time></trkpt><trkpt lat="45.0928517" lon="7.5602883"><ele>302.5</ele><time>2026-03-29T15:05:17.815Z</time></trkpt><trkpt lat="45.092855" lon="7.5603867"><ele>303.0</ele><time>2026-03-29T15:05:20.883Z</time></trkpt><trkpt lat="45.092875" lon="7.560505"><ele>303.5</ele><time>2026-03-29T15:05:24.82Z</time></trkpt><trkpt lat="45.0929033" lon="7.560625"><ele>304.0</ele><time>2026-03-29T15:05:27.83Z</time></trkpt><trkpt lat="45.092945" lon="7.5607383"><ele>304.0</ele><time>2026-03-29T15:05:30.827Z</time></trkpt><trkpt lat="45.093005" lon="7.5608467"><ele>304.0</ele><time>2026-03-29T15:05:33.83Z</time></trkpt><trkpt lat="45.0930467" lon="7.56092"><ele>304.0</ele><time>2026-03-29T15:05:35.948Z</time></trkpt><trkpt lat="45.0930867" lon="7.56099"><ele>304.0</ele><time>2026-03-29T15:05:37.853Z</time></trkpt><trkpt lat="45.0931383" lon="7.561105"><ele>304.0</ele><time>2026-03-29T15:05:40.849Z</time></trkpt><trkpt lat="45.0931733" lon="7.5611983"><ele>304.0</ele><time>2026-03-29T15:05:43.851Z</time></trkpt><trkpt lat="45.0932183" lon="7.5613017"><ele>304.16666666666663</ele><time>2026-03-29T15:05:46.824Z</time></trkpt><trkpt lat="45.0932533" lon="7.56138"><ele>304.3333333333333</ele><time>2026-03-29T15:05:50.878Z</time></trkpt><trkpt lat="45.0932517" lon="7.5614783"><ele>304.5</ele><time>2026-03-29T15:05:55.839Z</time></trkpt><trkpt lat="45.0932983" lon="7.5615933"><ele>304.6666666666667</ele><time>2026-03-29T15:05:59.931Z</time></trkpt><trkpt lat="45.0933583" lon="7.56164"><ele>304.83333333333337</ele><time>2026-03-29T15:06:01.828Z</time></trkpt><trkpt lat="45.0934683" lon="7.5616783"><ele>305.0</ele><time>2026-03-29T15:06:04.856Z</time></trkpt><trkpt lat="45.0935483" lon="7.5617217"><ele>305.0</ele><time>2026-03-29T15:06:08.862Z</time></trkpt><trkpt lat="45.0936183" lon="7.5617883"><ele>305.0</ele><time>2026-03-29T15:06:11.837Z</time></trkpt><trkpt lat="45.0936883" lon="7.5618417"><ele>305.0</ele><time>2026-03-29T15:06:13.82Z</time></trkpt><trkpt lat="45.0937767" lon="7.5618833"><ele>305.0</ele><time>2026-03-29T15:06:15.854Z</time></trkpt><trkpt lat="45.0938483" lon="7.5619167"><ele>305.0</ele><time>2026-03-29T15:06:17.822Z</time></trkpt><trkpt lat="45.0939433" lon="7.5619517"><ele>305.0</ele><time>2026-03-29T15:06:20.905Z</time></trkpt><trkpt lat="45.0940267" lon="7.5619783"><ele>305.0</ele><time>2026-03-29T15:06:23.833Z</time></trkpt><trkpt lat="45.0941033" lon="7.5620067"><ele>305.0</ele><time>2026-03-29T15:06:26.909Z</time></trkpt><trkpt lat="45.0941733" lon="7.5620317"><ele>305.0</ele><time>2026-03-29T15:06:29.889Z</time></trkpt><trkpt lat="45.0942133" lon="7.562135"><ele>305.0</ele><time>2026-03-29T15:06:33.862Z</time></trkpt><trkpt lat="45.0942067" lon="7.562225"><ele>305.0</ele><time>2026-03-29T15:06:35.841Z</time></trkpt><trkpt lat="45.0941967" lon="7.5623433"><ele>305.0</ele><time>2026-03-29T15:06:38.877Z</time></trkpt><trkpt lat="45.0941917" lon="7.5624567"><ele>304.83333333333337</ele><time>2026-03-29T15:06:41.842Z</time></trkpt><trkpt lat="45.0941833" lon="7.5625717"><ele>304.6666666666667</ele><time>2026-03-29T15:06:44.835Z</time></trkpt><trkpt lat="45.09422" lon="7.5626567"><ele>304.5</ele><time>2026-03-29T15:06:48.803Z</time></trkpt><trkpt lat="45.0942933" lon="7.5626517"><ele>304.3333333333333</ele><time>2026-03-29T15:06:51.819Z</time></trkpt><trkpt lat="45.09437" lon="7.5626483"><ele>304.16666666666663</ele><time>2026-03-29T15:06:54.838Z</time></trkpt><trkpt lat="45.0944583" lon="7.5626383"><ele>304.0</ele><time>2026-03-29T15:06:57.82Z</time></trkpt><trkpt lat="45.0945417" lon="7.562625"><ele>304.0</ele><time>2026-03-29T15:07:00.82Z</time></trkpt><trkpt lat="45.0946067" lon="7.562625"><ele>304.0</ele><time>2026-03-29T15:07:02.899Z</time></trkpt><trkpt lat="45.094685" lon="7.562635"><ele>304.0</ele><time>2026-03-29T15:07:05.822Z</time></trkpt><trkpt lat="45.0947667" lon="7.5626617"><ele>304.0</ele><time>2026-03-29T15:07:07.837Z</time></trkpt><trkpt lat="45.0948467" lon="7.5626817"><ele>304.0</ele><time>2026-03-29T15:07:09.875Z</time></trkpt><trkpt lat="45.09492" lon="7.5627033"><ele>304.0</ele><time>2026-03-29T15:07:11.867Z</time></trkpt><trkpt lat="45.095005" lon="7.562715"><ele>304.0</ele><time>2026-03-29T15:07:13.811Z</time></trkpt><trkpt lat="45.0950883" lon="7.5627083"><ele>304.0</ele><time>2026-03-29T15:07:15.846Z</time></trkpt><trkpt lat="45.0951267" lon="7.5627917"><ele>304.0</ele><time>2026-03-29T15:07:19.825Z</time></trkpt><trkpt lat="45.0951233" lon="7.5629167"><ele>304.0</ele><time>2026-03-29T15:07:22.788Z</time></trkpt><trkpt lat="45.09512" lon="7.5630067"><ele>304.0</ele><time>2026-03-29T15:07:24.855Z</time></trkpt><trkpt lat="45.095135" lon="7.5631217"><ele>304.0</ele><time>2026-03-29T15:07:27.853Z</time></trkpt><trkpt lat="45.0951517" lon="7.5632333"><ele>304.0</ele><time>2026-03-29T15:07:30.81Z</time></trkpt><trkpt lat="45.09516" lon="7.56333"><ele>304.0</ele><time>2026-03-29T15:07:32.904Z</time></trkpt><trkpt lat="45.095165" lon="7.5634267"><ele>304.0</ele><time>2026-03-29T15:07:34.81Z</time></trkpt><trkpt lat="45.0951467" lon="7.5635517"><ele>304.0</ele><time>2026-03-29T15:07:37.83Z</time></trkpt><trkpt lat="45.095155" lon="7.56366"><ele>304.0</ele><time>2026-03-29T15:07:40.824Z</time></trkpt><trkpt lat="45.09516" lon="7.5637717"><ele>304.0</ele><time>2026-03-29T15:07:44.889Z</time></trkpt><trkpt lat="45.09517" lon="7.5638683"><ele>304.0</ele><time>2026-03-29T15:07:47.839Z</time></trkpt><trkpt lat="45.0951667" lon="7.5639783"><ele>304.0</ele><time>2026-03-29T15:07:50.865Z</time></trkpt><trkpt lat="45.0951767" lon="7.5640683"><ele>304.0</ele><time>2026-03-29T15:07:52.825Z</time></trkpt><trkpt lat="45.0951883" lon="7.5641967"><ele>304.0</ele><time>2026-03-29T15:07:55.897Z</time></trkpt><trkpt lat="45.0951933" lon="7.5643283"><ele>304.0</ele><time>2026-03-29T15:07:58.816Z</time></trkpt><trkpt lat="45.0951883" lon="7.56442"><ele>304.0</ele><time>2026-03-29T15:08:00.818Z</time></trkpt><trkpt lat="45.0951883" lon="7.564515"><ele>303.66666666666663</ele><time>2026-03-29T15:08:02.963Z</time></trkpt><trkpt lat="45.095195" lon="7.564615"><ele>303.3333333333333</ele><time>2026-03-29T15:08:04.854Z</time></trkpt><trkpt lat="45.0951967" lon="7.5647133"><ele>303.0</ele><time>2026-03-29T15:08:06.853Z</time></trkpt><trkpt lat="45.0952033" lon="7.5648233"><ele>302.6666666666667</ele><time>2026-03-29T15:08:08.896Z</time></trkpt><trkpt lat="45.095215" lon="7.5649333"><ele>302.33333333333337</ele><time>2026-03-29T15:08:10.831Z</time></trkpt><trkpt lat="45.0952267" lon="7.5650483"><ele>302.0</ele><time>2026-03-29T15:08:12.843Z</time></trkpt><trkpt lat="45.0952383" lon="7.5651533"><ele>302.0</ele><time>2026-03-29T15:08:14.872Z</time></trkpt><trkpt lat="45.0952467" lon="7.565275"><ele>302.0</ele><time>2026-03-29T15:08:16.858Z</time></trkpt><trkpt lat="45.0952533" lon="7.5653917"><ele>302.0</ele><time>2026-03-29T15:08:18.83Z</time></trkpt><trkpt lat="45.0952617" lon="7.5655067"><ele>302.0</ele><time>2026-03-29T15:08:20.889Z</time></trkpt><trkpt lat="45.0952667" lon="7.5656217"><ele>302.0</ele><time>2026-03-29T15:08:22.862Z</time></trkpt><trkpt lat="45.0952733" lon="7.5657317"><ele>302.0</ele><time>2026-03-29T15:08:24.823Z</time></trkpt><trkpt lat="45.095275" lon="7.5658317"><ele>302.5</ele><time>2026-03-29T15:08:26.909Z</time></trkpt><trkpt lat="45.0952683" lon="7.565945"><ele>303.0</ele><time>2026-03-29T15:08:28.884Z</time></trkpt><trkpt lat="45.0952817" lon="7.56605"><ele>303.5</ele><time>2026-03-29T15:08:30.859Z</time></trkpt><trkpt lat="45.09529" lon="7.5661517"><ele>304.0</ele><time>2026-03-29T15:08:32.896Z</time></trkpt><trkpt lat="45.0952917" lon="7.5662517"><ele>304.5</ele><time>2026-03-29T15:08:34.814Z</time></trkpt><trkpt lat="45.0952967" lon="7.5663633"><ele>305.0</ele><time>2026-03-29T15:08:36.818Z</time></trkpt><trkpt lat="45.0953117" lon="7.56649"><ele>305.14285714285717</ele><time>2026-03-29T15:08:38.881Z</time></trkpt><trkpt lat="45.095325" lon="7.566605"><ele>305.2857142857143</ele><time>2026-03-29T15:08:40.784Z</time></trkpt><trkpt lat="45.0953383" lon="7.5667117"><ele>305.42857142857144</ele><time>2026-03-29T15:08:42.795Z</time></trkpt><trkpt lat="45.095355" lon="7.56682"><ele>305.57142857142856</ele><time>2026-03-29T15:08:44.878Z</time></trkpt><trkpt lat="45.095365" lon="7.5669217"><ele>305.7142857142857</ele><time>2026-03-29T15:08:46.85Z</time></trkpt><trkpt lat="45.0953617" lon="7.5670183"><ele>305.85714285714283</ele><time>2026-03-29T15:08:48.854Z</time></trkpt><trkpt lat="45.0953667" lon="7.5671133"><ele>306.0</ele><time>2026-03-29T15:08:50.879Z</time></trkpt><trkpt lat="45.095375" lon="7.5672033"><ele>305.42857142857144</ele><time>2026-03-29T15:08:52.831Z</time></trkpt><trkpt lat="45.095375" lon="7.5673033"><ele>304.8571428571429</ele><time>2026-03-29T15:08:54.824Z</time></trkpt><trkpt lat="45.0953833" lon="7.5673967"><ele>304.28571428571433</ele><time>2026-03-29T15:08:56.869Z</time></trkpt><trkpt lat="45.0953883" lon="7.56749"><ele>303.7142857142857</ele><time>2026-03-29T15:08:58.833Z</time></trkpt><trkpt lat="45.0954" lon="7.5675817"><ele>303.14285714285717</ele><time>2026-03-29T15:09:00.827Z</time></trkpt><trkpt lat="45.095415" lon="7.5676967"><ele>302.5714285714286</ele><time>2026-03-29T15:09:03.848Z</time></trkpt><trkpt lat="45.0954367" lon="7.56779"><ele>302.0</ele><time>2026-03-29T15:09:06.812Z</time></trkpt><trkpt lat="45.0954583" lon="7.567895"><ele>302.0</ele><time>2026-03-29T15:09:10.814Z</time></trkpt><trkpt lat="45.0954683" lon="7.5679867"><ele>302.0</ele><time>2026-03-29T15:09:13.816Z</time></trkpt><trkpt lat="45.0954667" lon="7.5680933"><ele>302.0</ele><time>2026-03-29T15:09:16.826Z</time></trkpt><trkpt lat="45.095455" lon="7.568225"><ele>302.0</ele><time>2026-03-29T15:09:19.788Z</time></trkpt><trkpt lat="45.095455" lon="7.5683233"><ele>302.0</ele><time>2026-03-29T15:09:22.823Z</time></trkpt><trkpt lat="45.0954517" lon="7.5684133"><ele>302.0</ele><time>2026-03-29T15:09:25.805Z</time></trkpt><trkpt lat="45.0954517" lon="7.5685433"><ele>302.0</ele><time>2026-03-29T15:09:29.825Z</time></trkpt><trkpt lat="45.0954683" lon="7.5686383"><ele>302.0</ele><time>2026-03-29T15:09:32.894Z</time></trkpt><trkpt lat="45.0954833" lon="7.5687283"><ele>302.0</ele><time>2026-03-29T15:09:34.836Z</time></trkpt><trkpt lat="45.09549" lon="7.5688483"><ele>302.0</ele><time>2026-03-29T15:09:36.807Z</time></trkpt><trkpt lat="45.095495" lon="7.5689633"><ele>302.0</ele><time>2026-03-29T15:09:38.892Z</time></trkpt><trkpt lat="45.0955017" lon="7.569055"><ele>302.0</ele><time>2026-03-29T15:09:40.845Z</time></trkpt><trkpt lat="45.0955083" lon="7.5691733"><ele>302.00000000000006</ele><time>2026-03-29T15:09:43.941Z</time></trkpt><trkpt lat="45.09552" lon="7.5692717"><ele>302.0</ele><time>2026-03-29T15:09:46.847Z</time></trkpt><trkpt lat="45.095545" lon="7.569355"><ele>302.0</ele><time>2026-03-29T15:09:49.86Z</time></trkpt><trkpt lat="45.095565" lon="7.56946"><ele>302.0</ele><time>2026-03-29T15:09:52.806Z</time></trkpt><trkpt lat="45.0955567" lon="7.5695683"><ele>302.0</ele><time>2026-03-29T15:09:55.815Z</time></trkpt><trkpt lat="45.0955583" lon="7.5696667"><ele>302.00000000000006</ele><time>2026-03-29T15:09:58.821Z</time></trkpt><trkpt lat="45.0956133" lon="7.56973"><ele>302.0</ele><time>2026-03-29T15:10:15.848Z</time></trkpt><trkpt lat="45.0956683" lon="7.5697967"><ele>302.00000000000006</ele><time>2026-03-29T15:10:18.838Z</time></trkpt><trkpt lat="45.0956783" lon="7.5698983"><ele>302.0</ele><time>2026-03-29T15:10:21.841Z</time></trkpt><trkpt lat="45.095695" lon="7.5700083"><ele>302.0</ele><time>2026-03-29T15:10:24.815Z</time></trkpt><trkpt lat="45.0957067" lon="7.5701367"><ele>302.0</ele><time>2026-03-29T15:10:27.864Z</time></trkpt><trkpt lat="45.0957183" lon="7.5702267"><ele>302.0</ele><time>2026-03-29T15:10:29.833Z</time></trkpt><trkpt lat="45.0957333" lon="7.5703233"><ele>302.00000000000006</ele><time>2026-03-29T15:10:31.827Z</time></trkpt><trkpt lat="45.0957433" lon="7.5704133"><ele>302.0</ele><time>2026-03-29T15:10:33.854Z</time></trkpt><trkpt lat="45.095755" lon="7.5705467"><ele>301.83333333333337</ele><time>2026-03-29T15:10:36.827Z</time></trkpt><trkpt lat="45.0957617" lon="7.5706383"><ele>301.6666666666667</ele><time>2026-03-29T15:10:38.876Z</time></trkpt><trkpt lat="45.095775" lon="7.5707683"><ele>301.5</ele><time>2026-03-29T15:10:41.858Z</time></trkpt><trkpt lat="45.095795" lon="7.5709"><ele>301.3333333333333</ele><time>2026-03-29T15:10:44.923Z</time></trkpt><trkpt lat="45.0958" lon="7.5710033"><ele>301.16666666666663</ele><time>2026-03-29T15:10:47.85Z</time></trkpt><trkpt lat="45.0957883" lon="7.5711183"><ele>301.0</ele><time>2026-03-29T15:10:50.858Z</time></trkpt><trkpt lat="45.0958033" lon="7.57124"><ele>300.7142857142857</ele><time>2026-03-29T15:10:53.829Z</time></trkpt><trkpt lat="45.0958283" lon="7.5713433"><ele>300.42857142857144</ele><time>2026-03-29T15:10:56.893Z</time></trkpt><trkpt lat="45.09585" lon="7.5714317"><ele>300.1428571428571</ele><time>2026-03-29T15:10:59.786Z</time></trkpt><trkpt lat="45.09588" lon="7.571515"><ele>299.8571428571429</ele><time>2026-03-29T15:11:03.794Z</time></trkpt><trkpt lat="45.0959" lon="7.5716317"><ele>299.57142857142856</ele><time>2026-03-29T15:11:06.784Z</time></trkpt><trkpt lat="45.0959133" lon="7.57172"><ele>299.2857142857143</ele><time>2026-03-29T15:11:08.844Z</time></trkpt><trkpt lat="45.09593" lon="7.5718467"><ele>299.0</ele><time>2026-03-29T15:11:11.787Z</time></trkpt><trkpt lat="45.0959617" lon="7.5719533"><ele>298.83333333333337</ele><time>2026-03-29T15:11:14.852Z</time></trkpt><trkpt lat="45.0960017" lon="7.57203"><ele>298.6666666666667</ele><time>2026-03-29T15:11:17.787Z</time></trkpt><trkpt lat="45.0960617" lon="7.5721167"><ele>298.5</ele><time>2026-03-29T15:11:20.866Z</time></trkpt><trkpt lat="45.0961267" lon="7.57219"><ele>298.3333333333333</ele><time>2026-03-29T15:11:23.807Z</time></trkpt><trkpt lat="45.0961867" lon="7.5722733"><ele>298.16666666666663</ele><time>2026-03-29T15:11:26.864Z</time></trkpt><trkpt lat="45.0962333" lon="7.572365"><ele>298.0</ele><time>2026-03-29T15:11:29.801Z</time></trkpt><trkpt lat="45.0962817" lon="7.57245"><ele>298.0</ele><time>2026-03-29T15:11:33.787Z</time></trkpt><trkpt lat="45.0963383" lon="7.5725333"><ele>298.0</ele><time>2026-03-29T15:11:36.788Z</time></trkpt><trkpt lat="45.0963967" lon="7.5725933"><ele>298.0</ele><time>2026-03-29T15:11:39.789Z</time></trkpt><trkpt lat="45.0964567" lon="7.5726767"><ele>298.0</ele><time>2026-03-29T15:11:42.789Z</time></trkpt><trkpt lat="45.096515" lon="7.5727533"><ele>298.0</ele><time>2026-03-29T15:11:45.781Z</time></trkpt><trkpt lat="45.0965733" lon="7.5728517"><ele>298.0</ele><time>2026-03-29T15:11:48.789Z</time></trkpt><trkpt lat="45.096635" lon="7.5729533"><ele>297.66666666666663</ele><time>2026-03-29T15:11:51.81Z</time></trkpt><trkpt lat="45.0966783" lon="7.57302"><ele>297.3333333333333</ele><time>2026-03-29T15:11:53.801Z</time></trkpt><trkpt lat="45.0967233" lon="7.5730867"><ele>297.0</ele><time>2026-03-29T15:11:55.78Z</time></trkpt><trkpt lat="45.0967883" lon="7.5731767"><ele>296.6666666666667</ele><time>2026-03-29T15:11:58.784Z</time></trkpt><trkpt lat="45.0968517" lon="7.57326"><ele>296.33333333333337</ele><time>2026-03-29T15:12:01.78Z</time></trkpt><trkpt lat="45.0969133" lon="7.573355"><ele>296.0</ele><time>2026-03-29T15:12:04.781Z</time></trkpt><trkpt lat="45.0969683" lon="7.5734483"><ele>296.0</ele><time>2026-03-29T15:12:07.783Z</time></trkpt><trkpt lat="45.09702" lon="7.5735367"><ele>296.0</ele><time>2026-03-29T15:12:10.782Z</time></trkpt><trkpt lat="45.0970633" lon="7.5736183"><ele>296.0</ele><time>2026-03-29T15:12:13.783Z</time></trkpt><trkpt lat="45.09712" lon="7.5737117"><ele>296.0</ele><time>2026-03-29T15:12:16.783Z</time></trkpt><trkpt lat="45.0971683" lon="7.573795"><ele>296.0</ele><time>2026-03-29T15:12:19.795Z</time></trkpt><trkpt lat="45.0972117" lon="7.5738817"><ele>296.0</ele><time>2026-03-29T15:12:22.818Z</time></trkpt><trkpt lat="45.0972717" lon="7.5739767"><ele>296.0</ele><time>2026-03-29T15:12:25.791Z</time></trkpt><trkpt lat="45.0973333" lon="7.5740417"><ele>296.0</ele><time>2026-03-29T15:12:28.784Z</time></trkpt><trkpt lat="45.0973733" lon="7.5741167"><ele>296.0</ele><time>2026-03-29T15:12:31.784Z</time></trkpt><trkpt lat="45.0974217" lon="7.5741933"><ele>296.0</ele><time>2026-03-29T15:12:34.785Z</time></trkpt><trkpt lat="45.0974733" lon="7.5742917"><ele>296.0</ele><time>2026-03-29T15:12:38.876Z</time></trkpt><trkpt lat="45.097535" lon="7.5743533"><ele>296.0</ele><time>2026-03-29T15:12:41.798Z</time></trkpt><trkpt lat="45.0976133" lon="7.574385"><ele>296.1666666666667</ele><time>2026-03-29T15:12:44.84Z</time></trkpt><trkpt lat="45.0976833" lon="7.57438"><ele>296.33333333333337</ele><time>2026-03-29T15:12:47.784Z</time></trkpt><trkpt lat="45.0977617" lon="7.5743533"><ele>296.5</ele><time>2026-03-29T15:12:52.781Z</time></trkpt><trkpt lat="45.09784" lon="7.5743467"><ele>296.6666666666667</ele><time>2026-03-29T15:12:56.843Z</time></trkpt><trkpt lat="45.097915" lon="7.574335"><ele>296.8333333333333</ele><time>2026-03-29T15:12:59.794Z</time></trkpt><trkpt lat="45.0980033" lon="7.574335"><ele>297.0</ele><time>2026-03-29T15:13:02.856Z</time></trkpt><trkpt lat="45.0980783" lon="7.574335"><ele>297.0</ele><time>2026-03-29T15:13:05.796Z</time></trkpt><trkpt lat="45.0981567" lon="7.57433"><ele>297.0</ele><time>2026-03-29T15:13:09.79Z</time></trkpt><trkpt lat="45.09822" lon="7.5743517"><ele>297.0</ele><time>2026-03-29T15:13:12.791Z</time></trkpt><trkpt lat="45.0982817" lon="7.5743717"><ele>297.0</ele><time>2026-03-29T15:13:15.787Z</time></trkpt><trkpt lat="45.0983583" lon="7.57439"><ele>297.0</ele><time>2026-03-29T15:13:19.782Z</time></trkpt><trkpt lat="45.0984233" lon="7.57441"><ele>297.0</ele><time>2026-03-29T15:13:22.784Z</time></trkpt><trkpt lat="45.098485" lon="7.57443"><ele>297.0</ele><time>2026-03-29T15:13:25.784Z</time></trkpt><trkpt lat="45.0985567" lon="7.5744417"><ele>296.8571428571429</ele><time>2026-03-29T15:13:28.78Z</time></trkpt><trkpt lat="45.0986317" lon="7.5744517"><ele>296.7142857142857</ele><time>2026-03-29T15:13:32.838Z</time></trkpt><trkpt lat="45.098695" lon="7.5744617"><ele>296.57142857142856</ele><time>2026-03-29T15:13:35.792Z</time></trkpt><trkpt lat="45.0987633" lon="7.5744617"><ele>296.42857142857144</ele><time>2026-03-29T15:13:38.875Z</time></trkpt><trkpt lat="45.098835" lon="7.5744783"><ele>296.2857142857143</ele><time>2026-03-29T15:13:42.818Z</time></trkpt><trkpt lat="45.0989133" lon="7.5744933"><ele>296.14285714285717</ele><time>2026-03-29T15:13:46.785Z</time></trkpt><trkpt lat="45.0989967" lon="7.574515"><ele>296.0</ele><time>2026-03-29T15:13:50.842Z</time></trkpt><trkpt lat="45.0990683" lon="7.574525"><ele>296.0</ele><time>2026-03-29T15:13:54.789Z</time></trkpt><trkpt lat="45.099135" lon="7.5745367"><ele>296.0</ele><time>2026-03-29T15:13:57.789Z</time></trkpt><trkpt lat="45.0992" lon="7.5745533"><ele>296.0</ele><time>2026-03-29T15:14:00.785Z</time></trkpt><trkpt lat="45.0992817" lon="7.57456"><ele>296.0</ele><time>2026-03-29T15:14:04.786Z</time></trkpt><trkpt lat="45.0993583" lon="7.5745667"><ele>296.0</ele><time>2026-03-29T15:14:07.779Z</time></trkpt><trkpt lat="45.099425" lon="7.574565"><ele>296.0</ele><time>2026-03-29T15:14:10.789Z</time></trkpt><trkpt lat="45.099505" lon="7.5745667"><ele>296.0</ele><time>2026-03-29T15:14:14.851Z</time></trkpt><trkpt lat="45.0995833" lon="7.5745517"><ele>296.0</ele><time>2026-03-29T15:14:18.796Z</time></trkpt><trkpt lat="45.09966" lon="7.5745533"><ele>296.0</ele><time>2026-03-29T15:14:22.783Z</time></trkpt><trkpt lat="45.0997333" lon="7.5745617"><ele>296.0</ele><time>2026-03-29T15:14:25.783Z</time></trkpt><trkpt lat="45.0998067" lon="7.5745717"><ele>296.0</ele><time>2026-03-29T15:14:28.783Z</time></trkpt><trkpt lat="45.099875" lon="7.57459"><ele>296.0</ele><time>2026-03-29T15:14:31.785Z</time></trkpt><trkpt lat="45.09995" lon="7.5746083"><ele>296.0</ele><time>2026-03-29T15:14:34.81Z</time></trkpt><trkpt lat="45.1000183" lon="7.5746167"><ele>296.0</ele><time>2026-03-29T15:14:37.789Z</time></trkpt><trkpt lat="45.1000917" lon="7.5746367"><ele>295.6666666666667</ele><time>2026-03-29T15:14:40.805Z</time></trkpt><trkpt lat="45.10016" lon="7.57465"><ele>295.33333333333337</ele><time>2026-03-29T15:14:42.798Z</time></trkpt><trkpt lat="45.100245" lon="7.5746683"><ele>295.0</ele><time>2026-03-29T15:14:45.779Z</time></trkpt><trkpt lat="45.1003133" lon="7.57471"><ele>294.6666666666667</ele><time>2026-03-29T15:14:49.8Z</time></trkpt><trkpt lat="45.1004" lon="7.5747383"><ele>294.3333333333333</ele><time>2026-03-29T15:14:53.795Z</time></trkpt><trkpt lat="45.100485" lon="7.5747733"><ele>294.0</ele><time>2026-03-29T15:14:56.858Z</time></trkpt><trkpt lat="45.1005467" lon="7.5747983"><ele>294.0</ele><time>2026-03-29T15:14:58.791Z</time></trkpt><trkpt lat="45.10062" lon="7.5748283"><ele>294.0</ele><time>2026-03-29T15:15:01.788Z</time></trkpt><trkpt lat="45.10069" lon="7.5748583"><ele>294.0</ele><time>2026-03-29T15:15:04.787Z</time></trkpt><trkpt lat="45.1007617" lon="7.5748867"><ele>294.0</ele><time>2026-03-29T15:15:07.783Z</time></trkpt><trkpt lat="45.1008417" lon="7.5749083"><ele>294.0</ele><time>2026-03-29T15:15:10.787Z</time></trkpt><trkpt lat="45.100915" lon="7.5749333"><ele>294.0</ele><time>2026-03-29T15:15:13.778Z</time></trkpt><trkpt lat="45.1009883" lon="7.574965"><ele>294.0</ele><time>2026-03-29T15:15:16.786Z</time></trkpt><trkpt lat="45.1010567" lon="7.5750033"><ele>294.0</ele><time>2026-03-29T15:15:19.785Z</time></trkpt><trkpt lat="45.1011333" lon="7.5750417"><ele>294.0</ele><time>2026-03-29T15:15:22.785Z</time></trkpt><trkpt lat="45.1012067" lon="7.5750783"><ele>294.0</ele><time>2026-03-29T15:15:25.786Z</time></trkpt><trkpt lat="45.1012667" lon="7.575115"><ele>294.0</ele><time>2026-03-29T15:15:28.783Z</time></trkpt><trkpt lat="45.1013367" lon="7.5751433"><ele>294.0</ele><time>2026-03-29T15:15:31.782Z</time></trkpt><trkpt lat="45.1014083" lon="7.5751783"><ele>294.0</ele><time>2026-03-29T15:15:34.782Z</time></trkpt><trkpt lat="45.1014883" lon="7.57521"><ele>294.0</ele><time>2026-03-29T15:15:37.783Z</time></trkpt><trkpt lat="45.1015583" lon="7.5752433"><ele>294.0</ele><time>2026-03-29T15:15:40.785Z</time></trkpt><trkpt lat="45.1016283" lon="7.5752717"><ele>294.0</ele><time>2026-03-29T15:15:43.778Z</time></trkpt><trkpt lat="45.1016917" lon="7.5753033"><ele>294.0</ele><time>2026-03-29T15:15:46.789Z</time></trkpt><trkpt lat="45.1017633" lon="7.5753383"><ele>294.0</ele><time>2026-03-29T15:15:49.782Z</time></trkpt><trkpt lat="45.10183" lon="7.57537"><ele>294.0</ele><time>2026-03-29T15:15:52.793Z</time></trkpt><trkpt lat="45.1018933" lon="7.5753617"><ele>294.0</ele><time>2026-03-29T15:15:55.797Z</time></trkpt><trkpt lat="45.1019667" lon="7.5753467"><ele>294.1666666666667</ele><time>2026-03-29T15:15:58.784Z</time></trkpt><trkpt lat="45.1020283" lon="7.5753133"><ele>294.3333333333333</ele><time>2026-03-29T15:16:01.795Z</time></trkpt><trkpt lat="45.1021017" lon="7.5752783"><ele>294.5</ele><time>2026-03-29T15:16:04.784Z</time></trkpt><trkpt lat="45.1021783" lon="7.5752233"><ele>294.66666666666663</ele><time>2026-03-29T15:16:07.806Z</time></trkpt><trkpt lat="45.10225" lon="7.5751667"><ele>294.8333333333333</ele><time>2026-03-29T15:16:10.79Z</time></trkpt><trkpt lat="45.1023333" lon="7.5751183"><ele>295.0</ele><time>2026-03-29T15:16:13.788Z</time></trkpt><trkpt lat="45.1024117" lon="7.57507"><ele>294.8571428571429</ele><time>2026-03-29T15:16:16.784Z</time></trkpt><trkpt lat="45.1024883" lon="7.5750283"><ele>294.7142857142857</ele><time>2026-03-29T15:16:19.786Z</time></trkpt><trkpt lat="45.10255" lon="7.5750067"><ele>294.57142857142856</ele><time>2026-03-29T15:16:21.79Z</time></trkpt><trkpt lat="45.1026133" lon="7.5749733"><ele>294.42857142857144</ele><time>2026-03-29T15:16:23.79Z</time></trkpt><trkpt lat="45.1026833" lon="7.5749333"><ele>294.2857142857143</ele><time>2026-03-29T15:16:25.782Z</time></trkpt><trkpt lat="45.1027583" lon="7.5748933"><ele>294.14285714285717</ele><time>2026-03-29T15:16:27.789Z</time></trkpt><trkpt lat="45.1028283" lon="7.5748517"><ele>294.0</ele><time>2026-03-29T15:16:29.796Z</time></trkpt><trkpt lat="45.1028917" lon="7.574815"><ele>294.0</ele><time>2026-03-29T15:16:31.79Z</time></trkpt><trkpt lat="45.1029533" lon="7.57478"><ele>294.0</ele><time>2026-03-29T15:16:33.799Z</time></trkpt><trkpt lat="45.1030333" lon="7.5747283"><ele>294.0</ele><time>2026-03-29T15:16:36.777Z</time></trkpt><trkpt lat="45.1031133" lon="7.5746683"><ele>294.0</ele><time>2026-03-29T15:16:39.802Z</time></trkpt><trkpt lat="45.1031767" lon="7.5746233"><ele>294.0</ele><time>2026-03-29T15:16:41.795Z</time></trkpt><trkpt lat="45.1032467" lon="7.5745867"><ele>294.0</ele><time>2026-03-29T15:16:43.784Z</time></trkpt><trkpt lat="45.10331" lon="7.57455"><ele>293.6666666666667</ele><time>2026-03-29T15:16:45.787Z</time></trkpt><trkpt lat="45.1033917" lon="7.5744883"><ele>293.3333333333333</ele><time>2026-03-29T15:16:48.79Z</time></trkpt><trkpt lat="45.103475" lon="7.5744383"><ele>293.0</ele><time>2026-03-29T15:16:51.795Z</time></trkpt><trkpt lat="45.1035633" lon="7.5743967"><ele>292.66666666666663</ele><time>2026-03-29T15:16:54.796Z</time></trkpt><trkpt lat="45.1036483" lon="7.5743567"><ele>292.3333333333333</ele><time>2026-03-29T15:16:57.778Z</time></trkpt><trkpt lat="45.1037267" lon="7.5743183"><ele>292.0</ele><time>2026-03-29T15:17:00.785Z</time></trkpt><trkpt lat="45.1038133" lon="7.5742883"><ele>292.0</ele><time>2026-03-29T15:17:03.785Z</time></trkpt><trkpt lat="45.1038983" lon="7.5742317"><ele>292.0</ele><time>2026-03-29T15:17:06.784Z</time></trkpt><trkpt lat="45.1039733" lon="7.5741717"><ele>292.0</ele><time>2026-03-29T15:17:09.778Z</time></trkpt><trkpt lat="45.104035" lon="7.5741267"><ele>292.0</ele><time>2026-03-29T15:17:12.785Z</time></trkpt><trkpt lat="45.104105" lon="7.5740833"><ele>292.0</ele><time>2026-03-29T15:17:16.789Z</time></trkpt><trkpt lat="45.104165" lon="7.5740367"><ele>292.0</ele><time>2026-03-29T15:17:20.845Z</time></trkpt><trkpt lat="45.1041467" lon="7.5739283"><ele>292.3333333333333</ele><time>2026-03-29T15:17:24.783Z</time></trkpt><trkpt lat="45.1041167" lon="7.5738267"><ele>292.66666666666663</ele><time>2026-03-29T15:17:28.789Z</time></trkpt><trkpt lat="45.104165" lon="7.573745"><ele>293.0</ele><time>2026-03-29T15:17:32.854Z</time></trkpt><trkpt lat="45.10423" lon="7.5737033"><ele>293.3333333333333</ele><time>2026-03-29T15:17:35.783Z</time></trkpt><trkpt lat="45.1043067" lon="7.573655"><ele>293.6666666666667</ele><time>2026-03-29T15:17:39.782Z</time></trkpt><trkpt lat="45.1043817" lon="7.5736083"><ele>294.0</ele><time>2026-03-29T15:17:42.785Z</time></trkpt><trkpt lat="45.1044417" lon="7.57356"><ele>294.3333333333333</ele><time>2026-03-29T15:17:45.787Z</time></trkpt><trkpt lat="45.104515" lon="7.573525"><ele>294.6666666666667</ele><time>2026-03-29T15:17:48.79Z</time></trkpt><trkpt lat="45.104585" lon="7.5734933"><ele>295.0</ele><time>2026-03-29T15:17:51.775Z</time></trkpt><trkpt lat="45.1046517" lon="7.5734467"><ele>295.33333333333337</ele><time>2026-03-29T15:17:54.789Z</time></trkpt><trkpt lat="45.1047217" lon="7.573405"><ele>295.6666666666667</ele><time>2026-03-29T15:17:57.787Z</time></trkpt><trkpt lat="45.1047967" lon="7.57336"><ele>296.0</ele><time>2026-03-29T15:18:00.778Z</time></trkpt><trkpt lat="45.1048633" lon="7.5733217"><ele>295.5</ele><time>2026-03-29T15:18:03.783Z</time></trkpt><trkpt lat="45.1049483" lon="7.5733583"><ele>295.0</ele><time>2026-03-29T15:18:06.818Z</time></trkpt><trkpt lat="45.10499" lon="7.57347"><ele>294.5</ele><time>2026-03-29T15:18:09.887Z</time></trkpt><trkpt lat="45.1050533" lon="7.573545"><ele>294.0</ele><time>2026-03-29T15:18:12.809Z</time></trkpt><trkpt lat="45.1051183" lon="7.5735467"><ele>293.5</ele><time>2026-03-29T15:18:15.858Z</time></trkpt><trkpt lat="45.1051783" lon="7.5735017"><ele>293.0</ele><time>2026-03-29T15:18:18.831Z</time></trkpt><trkpt lat="45.1052417" lon="7.5734667"><ele>293.0</ele><time>2026-03-29T15:18:21.805Z</time></trkpt><trkpt lat="45.105305" lon="7.5734217"><ele>293.0</ele><time>2026-03-29T15:18:24.81Z</time></trkpt><trkpt lat="45.105375" lon="7.5733867"><ele>293.0</ele><time>2026-03-29T15:18:27.819Z</time></trkpt><trkpt lat="45.1054517" lon="7.573335"><ele>293.0</ele><time>2026-03-29T15:18:31.827Z</time></trkpt><trkpt lat="45.105525" lon="7.5732983"><ele>293.0</ele><time>2026-03-29T15:18:34.81Z</time></trkpt><trkpt lat="45.105595" lon="7.5732583"><ele>293.0</ele><time>2026-03-29T15:18:37.795Z</time></trkpt><trkpt lat="45.1056717" lon="7.5732117"><ele>292.99999999999994</ele><time>2026-03-29T15:18:40.799Z</time></trkpt><trkpt lat="45.1057233" lon="7.5731583"><ele>293.0</ele><time>2026-03-29T15:18:43.81Z</time></trkpt><trkpt lat="45.1057667" lon="7.573075"><ele>293.0</ele><time>2026-03-29T15:18:47.849Z</time></trkpt><trkpt lat="45.1057617" lon="7.5729783"><ele>293.0</ele><time>2026-03-29T15:18:50.876Z</time></trkpt><trkpt lat="45.105755" lon="7.572885"><ele>293.0</ele><time>2026-03-29T15:18:54.832Z</time></trkpt><trkpt lat="45.1057117" lon="7.5728017"><ele>292.99999999999994</ele><time>2026-03-29T15:19:15.861Z</time></trkpt><trkpt lat="45.1056617" lon="7.5727283"><ele>293.0</ele><time>2026-03-29T15:19:19.812Z</time></trkpt><trkpt lat="45.1056167" lon="7.572655"><ele>293.6666666666667</ele><time>2026-03-29T15:19:22.845Z</time></trkpt><trkpt lat="45.1055833" lon="7.5725617"><ele>294.33333333333337</ele><time>2026-03-29T15:19:25.828Z</time></trkpt><trkpt lat="45.1055467" lon="7.5724667"><ele>295.0</ele><time>2026-03-29T15:19:28.847Z</time></trkpt><trkpt lat="45.1055" lon="7.5723833"><ele>295.6666666666667</ele><time>2026-03-29T15:19:31.84Z</time></trkpt><trkpt lat="45.1054433" lon="7.5723217"><ele>296.3333333333333</ele><time>2026-03-29T15:19:34.81Z</time></trkpt><trkpt lat="45.1053967" lon="7.5722333"><ele>297.0</ele><time>2026-03-29T15:19:37.82Z</time></trkpt><trkpt lat="45.1053433" lon="7.5721433"><ele>297.0</ele><time>2026-03-29T15:19:40.833Z</time></trkpt><trkpt lat="45.1053017" lon="7.572045"><ele>297.0</ele><time>2026-03-29T15:19:43.827Z</time></trkpt><trkpt lat="45.1052633" lon="7.571945"><ele>297.0</ele><time>2026-03-29T15:19:46.798Z</time></trkpt><trkpt lat="45.1052283" lon="7.57184"><ele>297.0</ele><time>2026-03-29T15:19:49.814Z</time></trkpt><trkpt lat="45.1051833" lon="7.5717483"><ele>297.0</ele><time>2026-03-29T15:19:52.835Z</time></trkpt><trkpt lat="45.10514" lon="7.5716633"><ele>297.0</ele><time>2026-03-29T15:19:55.822Z</time></trkpt><trkpt lat="45.105115" lon="7.5715667"><ele>297.0</ele><time>2026-03-29T15:19:58.785Z</time></trkpt><trkpt lat="45.105135" lon="7.57148"><ele>297.0</ele><time>2026-03-29T15:20:02.86Z</time></trkpt><trkpt lat="45.1051967" lon="7.5715133"><ele>297.0</ele><time>2026-03-29T15:20:05.796Z</time></trkpt><trkpt lat="45.1052583" lon="7.5715617"><ele>297.0</ele><time>2026-03-29T15:20:08.871Z</time></trkpt><trkpt lat="45.1053317" lon="7.571595"><ele>297.0</ele><time>2026-03-29T15:20:12.794Z</time></trkpt><trkpt lat="45.105395" lon="7.5716067"><ele>297.0</ele><time>2026-03-29T15:20:16.783Z</time></trkpt><trkpt lat="45.1054717" lon="7.571565"><ele>297.0</ele><time>2026-03-29T15:20:20.874Z</time></trkpt><trkpt lat="45.1055317" lon="7.57151"><ele>297.0</ele><time>2026-03-29T15:20:23.796Z</time></trkpt><trkpt lat="45.1055967" lon="7.57147"><ele>297.0</ele><time>2026-03-29T15:20:26.848Z</time></trkpt><trkpt lat="45.105665" lon="7.5714383"><ele>297.0</ele><time>2026-03-29T15:20:29.798Z</time></trkpt><trkpt lat="45.10577" lon="7.57141"><ele>297.0</ele><time>2026-03-29T15:20:33.785Z</time></trkpt><trkpt lat="45.1058617" lon="7.5714017"><ele>297.0</ele><time>2026-03-29T15:20:36.785Z</time></trkpt><trkpt lat="45.105955" lon="7.5713833"><ele>297.0</ele><time>2026-03-29T15:20:39.799Z</time></trkpt><trkpt lat="45.1060217" lon="7.5713667"><ele>296.8571428571429</ele><time>2026-03-29T15:20:41.796Z</time></trkpt><trkpt lat="45.10609" lon="7.5713517"><ele>296.7142857142857</ele><time>2026-03-29T15:20:43.824Z</time></trkpt><trkpt lat="45.1061533" lon="7.5713433"><ele>296.57142857142856</ele><time>2026-03-29T15:20:45.794Z</time></trkpt><trkpt lat="45.1062167" lon="7.5713233"><ele>296.42857142857144</ele><time>2026-03-29T15:20:47.796Z</time></trkpt><trkpt lat="45.1062967" lon="7.5712967"><ele>296.2857142857143</ele><time>2026-03-29T15:20:50.864Z</time></trkpt><trkpt lat="45.1063783" lon="7.57127"><ele>296.14285714285717</ele><time>2026-03-29T15:20:53.795Z</time></trkpt><trkpt lat="45.1064617" lon="7.5712567"><ele>296.0</ele><time>2026-03-29T15:20:56.833Z</time></trkpt><trkpt lat="45.106555" lon="7.571245"><ele>296.0</ele><time>2026-03-29T15:20:59.798Z</time></trkpt><trkpt lat="45.10662" lon="7.5712367"><ele>296.0</ele><time>2026-03-29T15:21:01.799Z</time></trkpt><trkpt lat="45.10671" lon="7.571225"><ele>296.0</ele><time>2026-03-29T15:21:04.798Z</time></trkpt><trkpt lat="45.1067883" lon="7.5712233"><ele>296.0</ele><time>2026-03-29T15:21:07.791Z</time></trkpt><trkpt lat="45.10688" lon="7.5712317"><ele>296.0</ele><time>2026-03-29T15:21:10.783Z</time></trkpt><trkpt lat="45.1069617" lon="7.57125"><ele>296.0</ele><time>2026-03-29T15:21:13.783Z</time></trkpt><trkpt lat="45.10705" lon="7.5712667"><ele>296.0</ele><time>2026-03-29T15:21:16.794Z</time></trkpt><trkpt lat="45.1071367" lon="7.5712883"><ele>296.0</ele><time>2026-03-29T15:21:19.801Z</time></trkpt><trkpt lat="45.10722" lon="7.5712917"><ele>296.0</ele><time>2026-03-29T15:21:22.784Z</time></trkpt><trkpt lat="45.107305" lon="7.5712983"><ele>296.0</ele><time>2026-03-29T15:21:25.786Z</time></trkpt><trkpt lat="45.1073917" lon="7.571295"><ele>296.0</ele><time>2026-03-29T15:21:28.791Z</time></trkpt><trkpt lat="45.1074833" lon="7.5712917"><ele>296.0</ele><time>2026-03-29T15:21:31.792Z</time></trkpt><trkpt lat="45.1075483" lon="7.5712967"><ele>295.83333333333337</ele><time>2026-03-29T15:21:33.796Z</time></trkpt><trkpt lat="45.1076333" lon="7.5712967"><ele>295.6666666666667</ele><time>2026-03-29T15:21:36.794Z</time></trkpt><trkpt lat="45.1077167" lon="7.5713117"><ele>295.5</ele><time>2026-03-29T15:21:39.81Z</time></trkpt><trkpt lat="45.1077833" lon="7.5713583"><ele>295.3333333333333</ele><time>2026-03-29T15:21:42.787Z</time></trkpt><trkpt lat="45.1078617" lon="7.5713967"><ele>295.16666666666663</ele><time>2026-03-29T15:21:45.793Z</time></trkpt><trkpt lat="45.1079283" lon="7.57143"><ele>295.0</ele><time>2026-03-29T15:21:48.847Z</time></trkpt><trkpt lat="45.108015" lon="7.5714717"><ele>295.0</ele><time>2026-03-29T15:21:52.78Z</time></trkpt><trkpt lat="45.1080917" lon="7.5715117"><ele>295.0</ele><time>2026-03-29T15:21:55.785Z</time></trkpt><trkpt lat="45.1081817" lon="7.571555"><ele>295.0</ele><time>2026-03-29T15:21:58.784Z</time></trkpt><trkpt lat="45.10826" lon="7.5716033"><ele>295.0</ele><time>2026-03-29T15:22:01.79Z</time></trkpt><trkpt lat="45.108335" lon="7.5716383"><ele>295.0</ele><time>2026-03-29T15:22:04.782Z</time></trkpt><trkpt lat="45.10839" lon="7.5716817"><ele>295.0</ele><time>2026-03-29T15:22:07.786Z</time></trkpt><trkpt lat="45.1084383" lon="7.571745"><ele>294.8333333333333</ele><time>2026-03-29T15:22:10.793Z</time></trkpt><trkpt lat="45.1085083" lon="7.5718117"><ele>294.66666666666663</ele><time>2026-03-29T15:22:13.794Z</time></trkpt><trkpt lat="45.1085783" lon="7.57188"><ele>294.5</ele><time>2026-03-29T15:22:16.799Z</time></trkpt><trkpt lat="45.1086533" lon="7.5719433"><ele>294.3333333333333</ele><time>2026-03-29T15:22:19.81Z</time></trkpt><trkpt lat="45.1087283" lon="7.5720133"><ele>294.1666666666667</ele><time>2026-03-29T15:22:22.784Z</time></trkpt><trkpt lat="45.1087867" lon="7.5720617"><ele>294.0</ele><time>2026-03-29T15:22:24.794Z</time></trkpt><trkpt lat="45.1088483" lon="7.5721133"><ele>294.3333333333333</ele><time>2026-03-29T15:22:26.861Z</time></trkpt><trkpt lat="45.1089117" lon="7.5721617"><ele>294.6666666666667</ele><time>2026-03-29T15:22:28.784Z</time></trkpt><trkpt lat="45.1089733" lon="7.5722133"><ele>295.0</ele><time>2026-03-29T15:22:30.789Z</time></trkpt><trkpt lat="45.1090333" lon="7.57226"><ele>295.33333333333337</ele><time>2026-03-29T15:22:32.832Z</time></trkpt><trkpt lat="45.1091083" lon="7.5723033"><ele>295.6666666666667</ele><time>2026-03-29T15:22:34.825Z</time></trkpt><trkpt lat="45.1091883" lon="7.57234"><ele>296.0</ele><time>2026-03-29T15:22:36.787Z</time></trkpt><trkpt lat="45.1092783" lon="7.5723683"><ele>295.0</ele><time>2026-03-29T15:22:38.844Z</time></trkpt><trkpt lat="45.1093683" lon="7.5723917"><ele>294.0</ele><time>2026-03-29T15:22:40.8Z</time></trkpt><trkpt lat="45.1094483" lon="7.57242"><ele>293.0</ele><time>2026-03-29T15:22:42.803Z</time></trkpt><trkpt lat="45.1095333" lon="7.5724433"><ele>292.0</ele><time>2026-03-29T15:22:44.843Z</time></trkpt><trkpt lat="45.1096283" lon="7.5724667"><ele>291.0</ele><time>2026-03-29T15:22:46.777Z</time></trkpt><trkpt lat="45.10972" lon="7.572495"><ele>291.0</ele><time>2026-03-29T15:22:48.797Z</time></trkpt><trkpt lat="45.1098067" lon="7.572525"><ele>291.0</ele><time>2026-03-29T15:22:50.87Z</time></trkpt><trkpt lat="45.1098833" lon="7.5725583"><ele>291.0</ele><time>2026-03-29T15:22:52.784Z</time></trkpt><trkpt lat="45.1099567" lon="7.5725967"><ele>291.0</ele><time>2026-03-29T15:22:54.784Z</time></trkpt><trkpt lat="45.1100283" lon="7.5726317"><ele>291.0</ele><time>2026-03-29T15:22:56.833Z</time></trkpt><trkpt lat="45.110095" lon="7.57267"><ele>291.0</ele><time>2026-03-29T15:22:58.796Z</time></trkpt><trkpt lat="45.110185" lon="7.572705"><ele>290.8333333333333</ele><time>2026-03-29T15:23:01.808Z</time></trkpt><trkpt lat="45.11027" lon="7.5727483"><ele>290.6666666666667</ele><time>2026-03-29T15:23:04.802Z</time></trkpt><trkpt lat="45.1103567" lon="7.5728033"><ele>290.5</ele><time>2026-03-29T15:23:07.807Z</time></trkpt><trkpt lat="45.110425" lon="7.5728433"><ele>290.33333333333337</ele><time>2026-03-29T15:23:09.788Z</time></trkpt><trkpt lat="45.11049" lon="7.57288"><ele>290.1666666666667</ele><time>2026-03-29T15:23:11.802Z</time></trkpt><trkpt lat="45.11055" lon="7.572915"><ele>290.0</ele><time>2026-03-29T15:23:13.795Z</time></trkpt><trkpt lat="45.11062" lon="7.57295"><ele>290.0</ele><time>2026-03-29T15:23:15.785Z</time></trkpt><trkpt lat="45.1106833" lon="7.57299"><ele>290.0</ele><time>2026-03-29T15:23:17.796Z</time></trkpt><trkpt lat="45.1107417" lon="7.5730267"><ele>290.0</ele><time>2026-03-29T15:23:19.795Z</time></trkpt><trkpt lat="45.1108117" lon="7.5730583"><ele>290.0</ele><time>2026-03-29T15:23:21.796Z</time></trkpt><trkpt lat="45.1108833" lon="7.5730717"><ele>290.0</ele><time>2026-03-29T15:23:23.793Z</time></trkpt><trkpt lat="45.1109517" lon="7.5730717"><ele>290.0</ele><time>2026-03-29T15:23:25.813Z</time></trkpt><trkpt lat="45.1110217" lon="7.5730633"><ele>290.0</ele><time>2026-03-29T15:23:27.788Z</time></trkpt><trkpt lat="45.1111117" lon="7.5730333"><ele>289.83333333333337</ele><time>2026-03-29T15:23:30.777Z</time></trkpt><trkpt lat="45.1111833" lon="7.5730133"><ele>289.6666666666667</ele><time>2026-03-29T15:23:32.828Z</time></trkpt><trkpt lat="45.1112517" lon="7.572995"><ele>289.5</ele><time>2026-03-29T15:23:34.796Z</time></trkpt><trkpt lat="45.1113367" lon="7.5729833"><ele>289.3333333333333</ele><time>2026-03-29T15:23:37.79Z</time></trkpt><trkpt lat="45.1113967" lon="7.5729417"><ele>289.16666666666663</ele><time>2026-03-29T15:23:41.808Z</time></trkpt><trkpt lat="45.1114717" lon="7.5728833"><ele>289.0</ele><time>2026-03-29T15:23:51.787Z</time></trkpt><trkpt lat="45.11154" lon="7.5728217"><ele>289.16666666666663</ele><time>2026-03-29T15:23:54.78Z</time></trkpt><trkpt lat="45.1116233" lon="7.5727683"><ele>289.3333333333333</ele><time>2026-03-29T15:23:57.788Z</time></trkpt><trkpt lat="45.1117" lon="7.5727283"><ele>289.5</ele><time>2026-03-29T15:24:00.797Z</time></trkpt><trkpt lat="45.1117767" lon="7.5726833"><ele>289.6666666666667</ele><time>2026-03-29T15:24:03.801Z</time></trkpt><trkpt lat="45.11186" lon="7.5726467"><ele>289.83333333333337</ele><time>2026-03-29T15:24:06.789Z</time></trkpt><trkpt lat="45.1119467" lon="7.572615"><ele>290.0</ele><time>2026-03-29T15:24:09.79Z</time></trkpt><trkpt lat="45.11203" lon="7.5725783"><ele>290.0</ele><time>2026-03-29T15:24:12.787Z</time></trkpt><trkpt lat="45.112095" lon="7.5725533"><ele>290.0</ele><time>2026-03-29T15:24:14.844Z</time></trkpt><trkpt lat="45.1121567" lon="7.5725317"><ele>290.0</ele><time>2026-03-29T15:24:16.784Z</time></trkpt><trkpt lat="45.1122233" lon="7.572515"><ele>290.0</ele><time>2026-03-29T15:24:18.801Z</time></trkpt><trkpt lat="45.1122883" lon="7.5725017"><ele>290.0</ele><time>2026-03-29T15:24:20.843Z</time></trkpt><trkpt lat="45.11238" lon="7.5724817"><ele>290.0</ele><time>2026-03-29T15:24:23.802Z</time></trkpt><trkpt lat="45.11246" lon="7.5724667"><ele>290.0</ele><time>2026-03-29T15:24:26.846Z</time></trkpt><trkpt lat="45.11254" lon="7.5724517"><ele>290.33333333333337</ele><time>2026-03-29T15:24:29.789Z</time></trkpt><trkpt lat="45.112635" lon="7.57244"><ele>290.6666666666667</ele><time>2026-03-29T15:24:32.857Z</time></trkpt><trkpt lat="45.1127233" lon="7.5724317"><ele>291.0</ele><time>2026-03-29T15:24:35.798Z</time></trkpt><trkpt lat="45.1128083" lon="7.5724367"><ele>291.3333333333333</ele><time>2026-03-29T15:24:38.865Z</time></trkpt><trkpt lat="45.1128767" lon="7.5724383"><ele>291.66666666666663</ele><time>2026-03-29T15:24:40.786Z</time></trkpt><trkpt lat="45.1129467" lon="7.5724383"><ele>292.0</ele><time>2026-03-29T15:24:42.794Z</time></trkpt><trkpt lat="45.1130317" lon="7.5724283"><ele>292.0</ele><time>2026-03-29T15:24:45.785Z</time></trkpt><trkpt lat="45.113095" lon="7.5724283"><ele>292.0</ele><time>2026-03-29T15:24:47.79Z</time></trkpt><trkpt lat="45.1131633" lon="7.5724383"><ele>292.0</ele><time>2026-03-29T15:24:49.835Z</time></trkpt><trkpt lat="45.1132567" lon="7.5724383"><ele>292.0</ele><time>2026-03-29T15:24:52.819Z</time></trkpt><trkpt lat="45.1133483" lon="7.5724467"><ele>292.0</ele><time>2026-03-29T15:24:55.842Z</time></trkpt><trkpt lat="45.1134183" lon="7.57245"><ele>292.0</ele><time>2026-03-29T15:24:57.903Z</time></trkpt><trkpt lat="45.11349" lon="7.5724567"><ele>291.85714285714283</ele><time>2026-03-29T15:24:59.826Z</time></trkpt><trkpt lat="45.1135533" lon="7.572455"><ele>291.7142857142857</ele><time>2026-03-29T15:25:01.851Z</time></trkpt><trkpt lat="45.1136167" lon="7.5724533"><ele>291.57142857142856</ele><time>2026-03-29T15:25:03.836Z</time></trkpt><trkpt lat="45.1137" lon="7.572445"><ele>291.42857142857144</ele><time>2026-03-29T15:25:06.832Z</time></trkpt><trkpt lat="45.1137683" lon="7.5724417"><ele>291.2857142857143</ele><time>2026-03-29T15:25:08.901Z</time></trkpt><trkpt lat="45.1138333" lon="7.5724383"><ele>291.1428571428571</ele><time>2026-03-29T15:25:10.805Z</time></trkpt><trkpt lat="45.1139017" lon="7.5724333"><ele>291.0</ele><time>2026-03-29T15:25:12.802Z</time></trkpt><trkpt lat="45.11397" lon="7.5724233"><ele>291.0</ele><time>2026-03-29T15:25:14.883Z</time></trkpt><trkpt lat="45.1140333" lon="7.5724133"><ele>291.0</ele><time>2026-03-29T15:25:16.843Z</time></trkpt><trkpt lat="45.1140967" lon="7.57239"><ele>291.0</ele><time>2026-03-29T15:25:18.842Z</time></trkpt><trkpt lat="45.1141617" lon="7.57236"><ele>291.0</ele><time>2026-03-29T15:25:20.877Z</time></trkpt><trkpt lat="45.1142217" lon="7.57232"><ele>291.0</ele><time>2026-03-29T15:25:22.806Z</time></trkpt><trkpt lat="45.1143033" lon="7.5722617"><ele>291.0</ele><time>2026-03-29T15:25:25.823Z</time></trkpt><trkpt lat="45.11436" lon="7.5722217"><ele>291.0</ele><time>2026-03-29T15:25:27.857Z</time></trkpt><trkpt lat="45.1144217" lon="7.572185"><ele>291.0</ele><time>2026-03-29T15:25:29.848Z</time></trkpt><trkpt lat="45.114485" lon="7.5721533"><ele>291.0</ele><time>2026-03-29T15:25:31.825Z</time></trkpt><trkpt lat="45.1145733" lon="7.5721267"><ele>291.0</ele><time>2026-03-29T15:25:34.835Z</time></trkpt><trkpt lat="45.114665" lon="7.57212"><ele>291.0</ele><time>2026-03-29T15:25:37.822Z</time></trkpt><trkpt lat="45.1147317" lon="7.57212"><ele>291.0</ele><time>2026-03-29T15:25:39.828Z</time></trkpt><trkpt lat="45.1147967" lon="7.5721317"><ele>291.0</ele><time>2026-03-29T15:25:42.875Z</time></trkpt><trkpt lat="45.1148667" lon="7.57212"><ele>291.5</ele><time>2026-03-29T15:25:45.891Z</time></trkpt><trkpt lat="45.11493" lon="7.57206"><ele>292.0</ele><time>2026-03-29T15:25:48.852Z</time></trkpt><trkpt lat="45.1149933" lon="7.5719867"><ele>292.5</ele><time>2026-03-29T15:25:52.844Z</time></trkpt><trkpt lat="45.1150583" lon="7.5719217"><ele>293.0</ele><time>2026-03-29T15:25:55.828Z</time></trkpt><trkpt lat="45.1151167" lon="7.5718517"><ele>293.5</ele><time>2026-03-29T15:25:58.825Z</time></trkpt><trkpt lat="45.1151733" lon="7.571785"><ele>294.0</ele><time>2026-03-29T15:26:01.814Z</time></trkpt><trkpt lat="45.1152333" lon="7.5717367"><ele>294.0</ele><time>2026-03-29T15:26:06.785Z</time></trkpt><trkpt lat="45.1152833" lon="7.571795"><ele>294.0</ele><time>2026-03-29T15:26:11.786Z</time></trkpt><trkpt lat="45.1153433" lon="7.5718783"><ele>294.0</ele><time>2026-03-29T15:26:15.795Z</time></trkpt><trkpt lat="45.1153883" lon="7.5719583"><ele>294.0</ele><time>2026-03-29T15:26:18.784Z</time></trkpt><trkpt lat="45.1154533" lon="7.5720217"><ele>294.0</ele><time>2026-03-29T15:26:22.795Z</time></trkpt><trkpt lat="45.1155133" lon="7.5720567"><ele>294.0</ele><time>2026-03-29T15:26:26.803Z</time></trkpt><trkpt lat="45.115585" lon="7.5721"><ele>294.0</ele><time>2026-03-29T15:26:30.789Z</time></trkpt><trkpt lat="45.115655" lon="7.5721583"><ele>294.0</ele><time>2026-03-29T15:26:34.783Z</time></trkpt><trkpt lat="45.1157133" lon="7.572205"><ele>294.0</ele><time>2026-03-29T15:26:37.786Z</time></trkpt><trkpt lat="45.11579" lon="7.5722283"><ele>294.0</ele><time>2026-03-29T15:26:43.79Z</time></trkpt><trkpt lat="45.1158633" lon="7.5722517"><ele>294.0</ele><time>2026-03-29T15:26:46.782Z</time></trkpt><trkpt lat="45.1159417" lon="7.5722583"><ele>294.0</ele><time>2026-03-29T15:26:50.864Z</time></trkpt><trkpt lat="45.1160183" lon="7.5722783"><ele>294.0</ele><time>2026-03-29T15:26:54.78Z</time></trkpt><trkpt lat="45.116095" lon="7.5722883"><ele>293.85714285714283</ele><time>2026-03-29T15:26:58.824Z</time></trkpt><trkpt lat="45.1161583" lon="7.5722983"><ele>293.7142857142857</ele><time>2026-03-29T15:27:01.797Z</time></trkpt><trkpt lat="45.1162317" lon="7.5723083"><ele>293.57142857142856</ele><time>2026-03-29T15:27:04.803Z</time></trkpt><trkpt lat="45.1163" lon="7.5723317"><ele>293.42857142857144</ele><time>2026-03-29T15:27:07.79Z</time></trkpt><trkpt lat="45.1163767" lon="7.57237"><ele>293.2857142857143</ele><time>2026-03-29T15:27:11.788Z</time></trkpt><trkpt lat="45.1164417" lon="7.5724117"><ele>293.1428571428571</ele><time>2026-03-29T15:27:14.861Z</time></trkpt><trkpt lat="45.1165083" lon="7.5724267"><ele>293.0</ele><time>2026-03-29T15:27:17.789Z</time></trkpt><trkpt lat="45.1165767" lon="7.572435"><ele>292.85714285714283</ele><time>2026-03-29T15:27:20.887Z</time></trkpt><trkpt lat="45.1166517" lon="7.5724467"><ele>292.7142857142857</ele><time>2026-03-29T15:27:24.785Z</time></trkpt><trkpt lat="45.1167233" lon="7.5724817"><ele>292.57142857142856</ele><time>2026-03-29T15:28:33.791Z</time></trkpt><trkpt lat="45.1167967" lon="7.5725217"><ele>292.42857142857144</ele><time>2026-03-29T15:28:37.783Z</time></trkpt><trkpt lat="45.1168667" lon="7.57256"><ele>292.2857142857143</ele><time>2026-03-29T15:28:42.787Z</time></trkpt><trkpt lat="45.1169317" lon="7.5725883"><ele>292.1428571428571</ele><time>2026-03-29T15:28:46.798Z</time></trkpt><trkpt lat="45.1170017" lon="7.5726267"><ele>292.0</ele><time>2026-03-29T15:28:50.837Z</time></trkpt><trkpt lat="45.1170767" lon="7.5726633"><ele>292.0</ele><time>2026-03-29T15:28:54.789Z</time></trkpt><trkpt lat="45.1171533" lon="7.5726967"><ele>292.0</ele><time>2026-03-29T15:28:58.795Z</time></trkpt><trkpt lat="45.117225" lon="7.57275"><ele>292.0</ele><time>2026-03-29T15:29:02.803Z</time></trkpt><trkpt lat="45.1172833" lon="7.5727883"><ele>292.0</ele><time>2026-03-29T15:29:05.788Z</time></trkpt><trkpt lat="45.1173567" lon="7.5728433"><ele>292.0</ele><time>2026-03-29T15:29:09.802Z</time></trkpt><trkpt lat="45.1174183" lon="7.572895"><ele>292.0</ele><time>2026-03-29T15:29:12.788Z</time></trkpt><trkpt lat="45.1174883" lon="7.5729483"><ele>291.7142857142857</ele><time>2026-03-29T15:29:15.781Z</time></trkpt><trkpt lat="45.117555" lon="7.5729883"><ele>291.42857142857144</ele><time>2026-03-29T15:29:18.785Z</time></trkpt><trkpt lat="45.1176233" lon="7.573025"><ele>291.14285714285717</ele><time>2026-03-29T15:29:21.785Z</time></trkpt><trkpt lat="45.117685" lon="7.5730583"><ele>290.8571428571429</ele><time>2026-03-29T15:29:24.796Z</time></trkpt><trkpt lat="45.1177483" lon="7.5730883"><ele>290.5714285714286</ele><time>2026-03-29T15:29:27.81Z</time></trkpt><trkpt lat="45.1178267" lon="7.573115"><ele>290.2857142857143</ele><time>2026-03-29T15:29:31.785Z</time></trkpt><trkpt lat="45.1178917" lon="7.5731383"><ele>290.0</ele><time>2026-03-29T15:29:34.785Z</time></trkpt><trkpt lat="45.1179617" lon="7.573155"><ele>290.0</ele><time>2026-03-29T15:29:37.787Z</time></trkpt><trkpt lat="45.118035" lon="7.573175"><ele>290.0</ele><time>2026-03-29T15:29:40.791Z</time></trkpt><trkpt lat="45.11811" lon="7.5731833"><ele>290.0</ele><time>2026-03-29T15:29:43.778Z</time></trkpt><trkpt lat="45.1181967" lon="7.573185"><ele>290.0</ele><time>2026-03-29T15:29:46.786Z</time></trkpt><trkpt lat="45.1182683" lon="7.5732017"><ele>290.0</ele><time>2026-03-29T15:29:49.784Z</time></trkpt><trkpt lat="45.118335" lon="7.5732133"><ele>290.0</ele><time>2026-03-29T15:29:52.785Z</time></trkpt><trkpt lat="45.1184167" lon="7.5732233"><ele>290.2857142857143</ele><time>2026-03-29T15:29:56.839Z</time></trkpt><trkpt lat="45.1184933" lon="7.5732283"><ele>290.5714285714286</ele><time>2026-03-29T15:30:00.792Z</time></trkpt><trkpt lat="45.1185567" lon="7.5732333"><ele>290.8571428571429</ele><time>2026-03-29T15:30:03.785Z</time></trkpt><trkpt lat="45.1186317" lon="7.5732433"><ele>291.14285714285717</ele><time>2026-03-29T15:30:07.798Z</time></trkpt><trkpt lat="45.1186983" lon="7.5732583"><ele>291.42857142857144</ele><time>2026-03-29T15:30:10.794Z</time></trkpt><trkpt lat="45.1187633" lon="7.5732883"><ele>291.7142857142857</ele><time>2026-03-29T15:30:13.791Z</time></trkpt><trkpt lat="45.1188333" lon="7.573295"><ele>292.0</ele><time>2026-03-29T15:30:16.803Z</time></trkpt><trkpt lat="45.1189" lon="7.5733067"><ele>292.0</ele><time>2026-03-29T15:30:19.785Z</time></trkpt><trkpt lat="45.11897" lon="7.5733217"><ele>292.0</ele><time>2026-03-29T15:30:22.787Z</time></trkpt><trkpt lat="45.1190433" lon="7.573335"><ele>292.0</ele><time>2026-03-29T15:30:25.78Z</time></trkpt><trkpt lat="45.1191083" lon="7.5733467"><ele>292.0</ele><time>2026-03-29T15:30:28.795Z</time></trkpt><trkpt lat="45.11918" lon="7.5733583"><ele>292.0</ele><time>2026-03-29T15:30:31.78Z</time></trkpt><trkpt lat="45.1192667" lon="7.5733683"><ele>292.0</ele><time>2026-03-29T15:30:35.8Z</time></trkpt><trkpt lat="45.119345" lon="7.57337"><ele>292.0</ele><time>2026-03-29T15:30:38.841Z</time></trkpt><trkpt lat="45.1194083" lon="7.5733833"><ele>292.16666666666663</ele><time>2026-03-29T15:30:41.802Z</time></trkpt><trkpt lat="45.1194867" lon="7.573375"><ele>292.3333333333333</ele><time>2026-03-29T15:30:44.855Z</time></trkpt><trkpt lat="45.1195767" lon="7.573365"><ele>292.5</ele><time>2026-03-29T15:30:47.794Z</time></trkpt><trkpt lat="45.1196433" lon="7.573355"><ele>292.6666666666667</ele><time>2026-03-29T15:30:49.803Z</time></trkpt><trkpt lat="45.11971" lon="7.5733483"><ele>292.83333333333337</ele><time>2026-03-29T15:30:51.813Z</time></trkpt><trkpt lat="45.1197933" lon="7.57336"><ele>293.0</ele><time>2026-03-29T15:30:54.792Z</time></trkpt><trkpt lat="45.119885" lon="7.5733567"><ele>292.71428571428567</ele><time>2026-03-29T15:30:57.785Z</time></trkpt><trkpt lat="45.1199467" lon="7.5733383"><ele>292.42857142857144</ele><time>2026-03-29T15:30:59.79Z</time></trkpt><trkpt lat="45.1200117" lon="7.573315"><ele>292.1428571428571</ele><time>2026-03-29T15:31:01.784Z</time></trkpt><trkpt lat="45.1200967" lon="7.5733133"><ele>291.85714285714283</ele><time>2026-03-29T15:31:04.786Z</time></trkpt><trkpt lat="45.1201683" lon="7.5733067"><ele>291.57142857142856</ele><time>2026-03-29T15:31:07.779Z</time></trkpt><trkpt lat="45.1202517" lon="7.573305"><ele>291.2857142857143</ele><time>2026-03-29T15:31:10.783Z</time></trkpt><trkpt lat="45.12033" lon="7.573305"><ele>291.0</ele><time>2026-03-29T15:31:13.793Z</time></trkpt><trkpt lat="45.1204067" lon="7.5733083"><ele>291.0</ele><time>2026-03-29T15:31:16.795Z</time></trkpt><trkpt lat="45.1204783" lon="7.573295"><ele>291.0</ele><time>2026-03-29T15:31:19.803Z</time></trkpt><trkpt lat="45.1205433" lon="7.5732833"><ele>291.0</ele><time>2026-03-29T15:31:22.794Z</time></trkpt><trkpt lat="45.12062" lon="7.5732517"><ele>291.0</ele><time>2026-03-29T15:31:26.851Z</time></trkpt><trkpt lat="45.1206867" lon="7.5732267"><ele>291.0</ele><time>2026-03-29T15:31:29.791Z</time></trkpt><trkpt lat="45.12075" lon="7.573215"><ele>291.0</ele><time>2026-03-29T15:31:32.814Z</time></trkpt><trkpt lat="45.1208267" lon="7.5732133"><ele>291.0</ele><time>2026-03-29T15:31:36.789Z</time></trkpt><trkpt lat="45.12091" lon="7.5732317"><ele>290.85714285714283</ele><time>2026-03-29T15:31:40.808Z</time></trkpt><trkpt lat="45.1209767" lon="7.5732367"><ele>290.71428571428567</ele><time>2026-03-29T15:31:43.797Z</time></trkpt><trkpt lat="45.1210433" lon="7.5732517"><ele>290.57142857142856</ele><time>2026-03-29T15:31:46.784Z</time></trkpt><trkpt lat="45.1211083" lon="7.5732617"><ele>290.42857142857144</ele><time>2026-03-29T15:31:49.787Z</time></trkpt><trkpt lat="45.121195" lon="7.5732783"><ele>290.28571428571433</ele><time>2026-03-29T15:31:53.794Z</time></trkpt><trkpt lat="45.1212633" lon="7.573295"><ele>290.14285714285717</ele><time>2026-03-29T15:31:56.846Z</time></trkpt><trkpt lat="45.1213333" lon="7.573315"><ele>290.0</ele><time>2026-03-29T15:32:00.792Z</time></trkpt><trkpt lat="45.1214067" lon="7.573345"><ele>290.0</ele><time>2026-03-29T15:32:04.784Z</time></trkpt><trkpt lat="45.12148" lon="7.5733517"><ele>290.0</ele><time>2026-03-29T15:32:08.848Z</time></trkpt><trkpt lat="45.12156" lon="7.5733567"><ele>290.0</ele><time>2026-03-29T15:32:12.787Z</time></trkpt><trkpt lat="45.121635" lon="7.5733783"><ele>290.0</ele><time>2026-03-29T15:32:15.787Z</time></trkpt><trkpt lat="45.1216983" lon="7.5734017"><ele>290.0</ele><time>2026-03-29T15:32:18.783Z</time></trkpt><trkpt lat="45.12177" lon="7.57343"><ele>290.0</ele><time>2026-03-29T15:32:21.799Z</time></trkpt><trkpt lat="45.1218333" lon="7.5734617"><ele>290.0</ele><time>2026-03-29T15:32:24.79Z</time></trkpt><trkpt lat="45.12192" lon="7.5734967"><ele>289.83333333333337</ele><time>2026-03-29T15:32:27.784Z</time></trkpt><trkpt lat="45.1220083" lon="7.5735383"><ele>289.6666666666667</ele><time>2026-03-29T15:32:30.787Z</time></trkpt><trkpt lat="45.1220833" lon="7.5735783"><ele>289.5</ele><time>2026-03-29T15:32:33.785Z</time></trkpt><trkpt lat="45.122145" lon="7.5736167"><ele>289.3333333333333</ele><time>2026-03-29T15:32:36.786Z</time></trkpt><trkpt lat="45.1222183" lon="7.5736617"><ele>289.16666666666663</ele><time>2026-03-29T15:32:39.779Z</time></trkpt><trkpt lat="45.1222767" lon="7.5736967"><ele>289.0</ele><time>2026-03-29T15:32:41.793Z</time></trkpt><trkpt lat="45.1223467" lon="7.5737317"><ele>289.16666666666663</ele><time>2026-03-29T15:32:44.833Z</time></trkpt><trkpt lat="45.12241" lon="7.573775"><ele>289.3333333333333</ele><time>2026-03-29T15:32:47.784Z</time></trkpt><trkpt lat="45.1224833" lon="7.5738133"><ele>289.5</ele><time>2026-03-29T15:32:50.848Z</time></trkpt><trkpt lat="45.1225567" lon="7.5738333"><ele>289.6666666666667</ele><time>2026-03-29T15:32:53.788Z</time></trkpt><trkpt lat="45.1226267" lon="7.5738533"><ele>289.83333333333337</ele><time>2026-03-29T15:32:56.841Z</time></trkpt><trkpt lat="45.1227083" lon="7.5738783"><ele>290.0</ele><time>2026-03-29T15:32:59.797Z</time></trkpt><trkpt lat="45.122795" lon="7.5739017"><ele>290.0</ele><time>2026-03-29T15:33:02.813Z</time></trkpt><trkpt lat="45.1228833" lon="7.573935"><ele>290.0</ele><time>2026-03-29T15:33:05.784Z</time></trkpt><trkpt lat="45.1229533" lon="7.5739483"><ele>290.0</ele><time>2026-03-29T15:33:08.834Z</time></trkpt><trkpt lat="45.1230233" lon="7.5739633"><ele>290.0</ele><time>2026-03-29T15:33:12.782Z</time></trkpt><trkpt lat="45.1230917" lon="7.5739767"><ele>290.0</ele><time>2026-03-29T15:33:15.785Z</time></trkpt><trkpt lat="45.1231767" lon="7.5739967"><ele>290.0</ele><time>2026-03-29T15:33:18.805Z</time></trkpt><trkpt lat="45.1232567" lon="7.5740367"><ele>289.5</ele><time>2026-03-29T15:33:21.789Z</time></trkpt><trkpt lat="45.1233333" lon="7.5740717"><ele>289.0</ele><time>2026-03-29T15:33:24.793Z</time></trkpt><trkpt lat="45.1234" lon="7.574085"><ele>288.5</ele><time>2026-03-29T15:33:27.797Z</time></trkpt><trkpt lat="45.12348" lon="7.574115"><ele>288.0</ele><time>2026-03-29T15:33:30.793Z</time></trkpt><trkpt lat="45.12356" lon="7.5741483"><ele>287.5</ele><time>2026-03-29T15:33:33.802Z</time></trkpt><trkpt lat="45.12365" lon="7.57418"><ele>287.0</ele><time>2026-03-29T15:33:36.79Z</time></trkpt><trkpt lat="45.1237167" lon="7.574205"><ele>287.0</ele><time>2026-03-29T15:33:38.861Z</time></trkpt><trkpt lat="45.12379" lon="7.5742317"><ele>287.0</ele><time>2026-03-29T15:33:40.787Z</time></trkpt><trkpt lat="45.1238617" lon="7.5742633"><ele>287.0</ele><time>2026-03-29T15:33:42.794Z</time></trkpt><trkpt lat="45.1239283" lon="7.574285"><ele>287.0</ele><time>2026-03-29T15:33:44.836Z</time></trkpt><trkpt lat="45.1239917" lon="7.5743067"><ele>287.0</ele><time>2026-03-29T15:33:46.794Z</time></trkpt><trkpt lat="45.1240817" lon="7.5743433"><ele>287.0</ele><time>2026-03-29T15:33:49.802Z</time></trkpt><trkpt lat="45.1241433" lon="7.574365"><ele>287.0</ele><time>2026-03-29T15:33:51.786Z</time></trkpt><trkpt lat="45.124205" lon="7.5743867"><ele>287.0</ele><time>2026-03-29T15:33:53.792Z</time></trkpt><trkpt lat="45.1242733" lon="7.5744067"><ele>287.0</ele><time>2026-03-29T15:33:55.786Z</time></trkpt><trkpt lat="45.1243417" lon="7.5744317"><ele>287.0</ele><time>2026-03-29T15:33:57.788Z</time></trkpt><trkpt lat="45.1244067" lon="7.57446"><ele>287.0</ele><time>2026-03-29T15:33:59.791Z</time></trkpt><trkpt lat="45.1244717" lon="7.5744883"><ele>287.0</ele><time>2026-03-29T15:34:01.785Z</time></trkpt><trkpt lat="45.1245383" lon="7.5745183"><ele>287.0</ele><time>2026-03-29T15:34:03.817Z</time></trkpt><trkpt lat="45.1246017" lon="7.5745467"><ele>287.0</ele><time>2026-03-29T15:34:05.803Z</time></trkpt><trkpt lat="45.124665" lon="7.5745683"><ele>287.0</ele><time>2026-03-29T15:34:07.786Z</time></trkpt><trkpt lat="45.1247317" lon="7.57459"><ele>287.0</ele><time>2026-03-29T15:34:09.783Z</time></trkpt><trkpt lat="45.1247983" lon="7.5746067"><ele>287.0</ele><time>2026-03-29T15:34:11.795Z</time></trkpt><trkpt lat="45.1248667" lon="7.5746167"><ele>287.0</ele><time>2026-03-29T15:34:13.803Z</time></trkpt><trkpt lat="45.124935" lon="7.5746417"><ele>287.0</ele><time>2026-03-29T15:34:15.783Z</time></trkpt><trkpt lat="45.125" lon="7.5746567"><ele>287.0</ele><time>2026-03-29T15:34:17.787Z</time></trkpt><trkpt lat="45.1250867" lon="7.5746567"><ele>287.0</ele><time>2026-03-29T15:34:20.835Z</time></trkpt><trkpt lat="45.1251533" lon="7.5746583"><ele>287.0</ele><time>2026-03-29T15:34:23.79Z</time></trkpt><trkpt lat="45.1252433" lon="7.5746533"><ele>287.0</ele><time>2026-03-29T15:34:26.864Z</time></trkpt><trkpt lat="45.1253383" lon="7.57465"><ele>287.0</ele><time>2026-03-29T15:34:29.793Z</time></trkpt><trkpt lat="45.125405" lon="7.5746483"><ele>287.0</ele><time>2026-03-29T15:34:31.8Z</time></trkpt><trkpt lat="45.12547" lon="7.5746417"><ele>287.0</ele><time>2026-03-29T15:34:33.797Z</time></trkpt><trkpt lat="45.1255433" lon="7.5746333"><ele>287.0</ele><time>2026-03-29T15:34:35.783Z</time></trkpt><trkpt lat="45.1256067" lon="7.5746267"><ele>287.0</ele><time>2026-03-29T15:34:37.799Z</time></trkpt><trkpt lat="45.1256917" lon="7.5746233"><ele>287.0</ele><time>2026-03-29T15:34:40.781Z</time></trkpt><trkpt lat="45.12576" lon="7.5746283"><ele>287.0</ele><time>2026-03-29T15:34:43.784Z</time></trkpt><trkpt lat="45.1258467" lon="7.5746267"><ele>287.0</ele><time>2026-03-29T15:34:47.8Z</time></trkpt><trkpt lat="45.1259267" lon="7.574615"><ele>287.0</ele><time>2026-03-29T15:34:50.854Z</time></trkpt><trkpt lat="45.1260017" lon="7.5746133"><ele>287.0</ele><time>2026-03-29T15:34:53.792Z</time></trkpt><trkpt lat="45.1260783" lon="7.5746183"><ele>287.0</ele><time>2026-03-29T15:34:56.85Z</time></trkpt><trkpt lat="45.1261483" lon="7.5746283"><ele>287.0</ele><time>2026-03-29T15:34:59.79Z</time></trkpt><trkpt lat="45.126235" lon="7.57465"><ele>287.0</ele><time>2026-03-29T15:35:02.818Z</time></trkpt><trkpt lat="45.1263217" lon="7.5746783"><ele>287.0</ele><time>2026-03-29T15:35:05.786Z</time></trkpt><trkpt lat="45.1264033" lon="7.5747033"><ele>287.0</ele><time>2026-03-29T15:35:08.844Z</time></trkpt><trkpt lat="45.1264983" lon="7.5747217"><ele>287.0</ele><time>2026-03-29T15:35:11.791Z</time></trkpt><trkpt lat="45.1265667" lon="7.574735"><ele>287.0</ele><time>2026-03-29T15:35:13.919Z</time></trkpt><trkpt lat="45.1266333" lon="7.5747383"><ele>287.0</ele><time>2026-03-29T15:35:15.833Z</time></trkpt><trkpt lat="45.1266983" lon="7.57474"><ele>287.0</ele><time>2026-03-29T15:35:17.851Z</time></trkpt><trkpt lat="45.1267667" lon="7.5747333"><ele>287.0</ele><time>2026-03-29T15:35:19.832Z</time></trkpt><trkpt lat="45.1268383" lon="7.5747267"><ele>287.0</ele><time>2026-03-29T15:35:21.828Z</time></trkpt><trkpt lat="45.1269367" lon="7.57471"><ele>287.0</ele><time>2026-03-29T15:35:24.809Z</time></trkpt><trkpt lat="45.127005" lon="7.57471"><ele>287.0</ele><time>2026-03-29T15:35:26.882Z</time></trkpt><trkpt lat="45.1270767" lon="7.5747067"><ele>287.0</ele><time>2026-03-29T15:35:28.846Z</time></trkpt><trkpt lat="45.12715" lon="7.5747117"><ele>287.0</ele><time>2026-03-29T15:35:30.853Z</time></trkpt><trkpt lat="45.12722" lon="7.5747133"><ele>287.0</ele><time>2026-03-29T15:35:32.86Z</time></trkpt><trkpt lat="45.1272883" lon="7.5747267"><ele>287.0</ele><time>2026-03-29T15:35:34.821Z</time></trkpt><trkpt lat="45.12736" lon="7.5747383"><ele>287.0</ele><time>2026-03-29T15:35:36.865Z</time></trkpt><trkpt lat="45.1274333" lon="7.574745"><ele>287.0</ele><time>2026-03-29T15:35:38.905Z</time></trkpt><trkpt lat="45.127505" lon="7.574755"><ele>287.0</ele><time>2026-03-29T15:35:40.835Z</time></trkpt><trkpt lat="45.1275767" lon="7.5747633"><ele>286.7142857142857</ele><time>2026-03-29T15:35:42.801Z</time></trkpt><trkpt lat="45.1276433" lon="7.574775"><ele>286.42857142857144</ele><time>2026-03-29T15:35:44.872Z</time></trkpt><trkpt lat="45.1277067" lon="7.5747833"><ele>286.1428571428571</ele><time>2026-03-29T15:35:46.835Z</time></trkpt><trkpt lat="45.1277733" lon="7.5747983"><ele>285.8571428571429</ele><time>2026-03-29T15:35:48.803Z</time></trkpt><trkpt lat="45.1278383" lon="7.574815"><ele>285.57142857142856</ele><time>2026-03-29T15:35:50.88Z</time></trkpt><trkpt lat="45.1279067" lon="7.5748317"><ele>285.2857142857143</ele><time>2026-03-29T15:35:52.79Z</time></trkpt><trkpt lat="45.1279733" lon="7.5748483"><ele>285.0</ele><time>2026-03-29T15:35:54.836Z</time></trkpt><trkpt lat="45.12805" lon="7.574875"><ele>285.0</ele><time>2026-03-29T15:35:57.818Z</time></trkpt><trkpt lat="45.1281233" lon="7.5749117"><ele>285.0</ele><time>2026-03-29T15:36:00.838Z</time></trkpt><trkpt lat="45.12819" lon="7.5749233"><ele>285.0</ele><time>2026-03-29T15:36:02.833Z</time></trkpt><trkpt lat="45.1282767" lon="7.5749317"><ele>285.0</ele><time>2026-03-29T15:36:05.831Z</time></trkpt><trkpt lat="45.1283583" lon="7.5749383"><ele>285.0</ele><time>2026-03-29T15:36:08.872Z</time></trkpt><trkpt lat="45.1284367" lon="7.5749383"><ele>285.0</ele><time>2026-03-29T15:36:11.836Z</time></trkpt><trkpt lat="45.12851" lon="7.5749517"><ele>285.1428571428571</ele><time>2026-03-29T15:36:14.909Z</time></trkpt><trkpt lat="45.128575" lon="7.57496"><ele>285.2857142857143</ele><time>2026-03-29T15:36:17.809Z</time></trkpt><trkpt lat="45.1286383" lon="7.5749617"><ele>285.42857142857144</ele><time>2026-03-29T15:36:22.81Z</time></trkpt><trkpt lat="45.1287117" lon="7.5749517"><ele>285.57142857142856</ele><time>2026-03-29T15:36:26.873Z</time></trkpt><trkpt lat="45.1287817" lon="7.5749167"><ele>285.7142857142857</ele><time>2026-03-29T15:36:30.791Z</time></trkpt><trkpt lat="45.1288617" lon="7.57493"><ele>285.85714285714283</ele><time>2026-03-29T15:36:35.782Z</time></trkpt><trkpt lat="45.128925" lon="7.57493"><ele>286.0</ele><time>2026-03-29T15:36:38.845Z</time></trkpt><trkpt lat="45.12901" lon="7.5749333"><ele>286.0</ele><time>2026-03-29T15:36:41.786Z</time></trkpt><trkpt lat="45.129075" lon="7.5749233"><ele>286.0</ele><time>2026-03-29T15:36:43.785Z</time></trkpt><trkpt lat="45.1291683" lon="7.5749133"><ele>286.0</ele><time>2026-03-29T15:36:46.778Z</time></trkpt><trkpt lat="45.1292567" lon="7.5749067"><ele>286.0</ele><time>2026-03-29T15:36:49.815Z</time></trkpt><trkpt lat="45.129335" lon="7.5748983"><ele>286.0</ele><time>2026-03-29T15:36:52.805Z</time></trkpt><trkpt lat="45.1294217" lon="7.5748783"><ele>286.0</ele><time>2026-03-29T15:36:55.79Z</time></trkpt><trkpt lat="45.129515" lon="7.5748567"><ele>285.99999999999994</ele><time>2026-03-29T15:36:58.802Z</time></trkpt><trkpt lat="45.1295817" lon="7.5748517"><ele>286.0</ele><time>2026-03-29T15:37:00.844Z</time></trkpt><trkpt lat="45.12965" lon="7.574845"><ele>286.0</ele><time>2026-03-29T15:37:02.864Z</time></trkpt><trkpt lat="45.1297167" lon="7.5748333"><ele>286.0</ele><time>2026-03-29T15:37:04.8Z</time></trkpt><trkpt lat="45.129785" lon="7.5748267"><ele>286.0</ele><time>2026-03-29T15:37:06.886Z</time></trkpt><trkpt lat="45.12985" lon="7.57483"><ele>285.99999999999994</ele><time>2026-03-29T15:37:09.085Z</time></trkpt><trkpt lat="45.129945" lon="7.5748383"><ele>286.0</ele><time>2026-03-29T15:37:11.808Z</time></trkpt><trkpt lat="45.1300167" lon="7.5748183"><ele>286.16666666666663</ele><time>2026-03-29T15:37:13.846Z</time></trkpt><trkpt lat="45.1300833" lon="7.5747917"><ele>286.3333333333333</ele><time>2026-03-29T15:37:15.887Z</time></trkpt><trkpt lat="45.130165" lon="7.5747667"><ele>286.5</ele><time>2026-03-29T15:37:18.826Z</time></trkpt><trkpt lat="45.1302567" lon="7.57478"><ele>286.6666666666667</ele><time>2026-03-29T15:37:21.838Z</time></trkpt><trkpt lat="45.1303217" lon="7.5748467"><ele>286.83333333333337</ele><time>2026-03-29T15:37:24.85Z</time></trkpt><trkpt lat="45.13035" lon="7.5749517"><ele>287.0</ele><time>2026-03-29T15:37:28.829Z</time></trkpt><trkpt lat="45.1303833" lon="7.5750617"><ele>287.0</ele><time>2026-03-29T15:37:31.848Z</time></trkpt><trkpt lat="45.1304333" lon="7.5751183"><ele>287.0</ele><time>2026-03-29T15:37:33.846Z</time></trkpt><trkpt lat="45.1305083" lon="7.5751533"><ele>287.0</ele><time>2026-03-29T15:37:36.813Z</time></trkpt><trkpt lat="45.1305817" lon="7.5751217"><ele>287.0</ele><time>2026-03-29T15:37:39.829Z</time></trkpt><trkpt lat="45.130655" lon="7.5750833"><ele>287.0</ele><time>2026-03-29T15:37:42.816Z</time></trkpt><trkpt lat="45.1307333" lon="7.57505"><ele>287.0</ele><time>2026-03-29T15:37:45.833Z</time></trkpt><trkpt lat="45.1308117" lon="7.5750483"><ele>286.83333333333337</ele><time>2026-03-29T15:37:48.802Z</time></trkpt><trkpt lat="45.1308833" lon="7.5750733"><ele>286.6666666666667</ele><time>2026-03-29T15:37:51.82Z</time></trkpt><trkpt lat="45.130965" lon="7.575085"><ele>286.5</ele><time>2026-03-29T15:37:54.862Z</time></trkpt><trkpt lat="45.1310317" lon="7.57512"><ele>286.3333333333333</ele><time>2026-03-29T15:37:56.846Z</time></trkpt><trkpt lat="45.1311217" lon="7.575155"><ele>286.16666666666663</ele><time>2026-03-29T15:37:59.814Z</time></trkpt><trkpt lat="45.131185" lon="7.5751733"><ele>286.0</ele><time>2026-03-29T15:38:01.808Z</time></trkpt><trkpt lat="45.1312617" lon="7.5751917"><ele>286.0</ele><time>2026-03-29T15:38:04.787Z</time></trkpt><trkpt lat="45.1313517" lon="7.5751867"><ele>286.0</ele><time>2026-03-29T15:38:07.812Z</time></trkpt><trkpt lat="45.131435" lon="7.57519"><ele>286.0</ele><time>2026-03-29T15:38:10.837Z</time></trkpt><trkpt lat="45.131505" lon="7.5751983"><ele>286.0</ele><time>2026-03-29T15:38:13.828Z</time></trkpt><trkpt lat="45.131575" lon="7.57521"><ele>286.0</ele><time>2026-03-29T15:38:15.796Z</time></trkpt><trkpt lat="45.13164" lon="7.5752567"><ele>286.0</ele><time>2026-03-29T15:38:17.81Z</time></trkpt><trkpt lat="45.1316833" lon="7.5753333"><ele>285.8333333333333</ele><time>2026-03-29T15:38:19.8Z</time></trkpt><trkpt lat="45.131735" lon="7.5754017"><ele>285.66666666666663</ele><time>2026-03-29T15:38:23.843Z</time></trkpt><trkpt lat="45.131815" lon="7.575455"><ele>285.5</ele><time>2026-03-29T15:38:27.808Z</time></trkpt><trkpt lat="45.1318833" lon="7.5755033"><ele>285.3333333333333</ele><time>2026-03-29T15:38:29.834Z</time></trkpt><trkpt lat="45.1319633" lon="7.5755717"><ele>285.1666666666667</ele><time>2026-03-29T15:38:32.868Z</time></trkpt><trkpt lat="45.1320267" lon="7.5756083"><ele>285.0</ele><time>2026-03-29T15:38:34.796Z</time></trkpt><trkpt lat="45.132085" lon="7.57565"><ele>285.0</ele><time>2026-03-29T15:38:36.825Z</time></trkpt><trkpt lat="45.1321617" lon="7.5757033"><ele>285.0</ele><time>2026-03-29T15:38:39.831Z</time></trkpt><trkpt lat="45.1322267" lon="7.575745"><ele>285.0</ele><time>2026-03-29T15:38:42.799Z</time></trkpt><trkpt lat="45.132285" lon="7.575785"><ele>285.0</ele><time>2026-03-29T15:38:44.853Z</time></trkpt><trkpt lat="45.1323517" lon="7.575825"><ele>285.0</ele><time>2026-03-29T15:38:47.81Z</time></trkpt><trkpt lat="45.13242" lon="7.575845"><ele>285.0</ele><time>2026-03-29T15:38:50.855Z</time></trkpt><trkpt lat="45.1324783" lon="7.5758867"><ele>285.0</ele><time>2026-03-29T15:38:54.865Z</time></trkpt><trkpt lat="45.1325367" lon="7.5759217"><ele>284.8333333333333</ele><time>2026-03-29T15:38:56.842Z</time></trkpt><trkpt lat="45.1326" lon="7.5759717"><ele>284.6666666666667</ele><time>2026-03-29T15:38:59.801Z</time></trkpt><trkpt lat="45.13268" lon="7.5759917"><ele>284.5</ele><time>2026-03-29T15:39:03.809Z</time></trkpt><trkpt lat="45.13275" lon="7.576015"><ele>284.33333333333337</ele><time>2026-03-29T15:39:06.826Z</time></trkpt><trkpt lat="45.132825" lon="7.5760483"><ele>284.1666666666667</ele><time>2026-03-29T15:39:10.8Z</time></trkpt><trkpt lat="45.1329133" lon="7.5760983"><ele>284.0</ele><time>2026-03-29T15:39:14.877Z</time></trkpt><trkpt lat="45.1329817" lon="7.576155"><ele>283.83333333333337</ele><time>2026-03-29T15:39:16.804Z</time></trkpt><trkpt lat="45.1330683" lon="7.5762167"><ele>283.6666666666667</ele><time>2026-03-29T15:39:19.815Z</time></trkpt><trkpt lat="45.133155" lon="7.5762383"><ele>283.5</ele><time>2026-03-29T15:39:21.818Z</time></trkpt><trkpt lat="45.133215" lon="7.576275"><ele>283.3333333333333</ele><time>2026-03-29T15:39:23.842Z</time></trkpt><trkpt lat="45.1332783" lon="7.57633"><ele>283.16666666666663</ele><time>2026-03-29T15:39:25.817Z</time></trkpt><trkpt lat="45.1333383" lon="7.57636"><ele>283.0</ele><time>2026-03-29T15:39:28.798Z</time></trkpt><trkpt lat="45.1334" lon="7.5763967"><ele>283.0</ele><time>2026-03-29T15:39:33.818Z</time></trkpt><trkpt lat="45.1334717" lon="7.5764167"><ele>283.0</ele><time>2026-03-29T15:39:37.812Z</time></trkpt><trkpt lat="45.13355" lon="7.5764217"><ele>283.0</ele><time>2026-03-29T15:39:40.807Z</time></trkpt><trkpt lat="45.1336383" lon="7.57643"><ele>283.0</ele><time>2026-03-29T15:39:43.799Z</time></trkpt><trkpt lat="45.1337033" lon="7.5764367"><ele>283.0</ele><time>2026-03-29T15:39:46.807Z</time></trkpt><trkpt lat="45.1337883" lon="7.576425"><ele>283.0</ele><time>2026-03-29T15:39:50.864Z</time></trkpt><trkpt lat="45.1338633" lon="7.57641"><ele>283.0</ele><time>2026-03-29T15:39:53.822Z</time></trkpt><trkpt lat="45.1339517" lon="7.5763883"><ele>283.0</ele><time>2026-03-29T15:39:56.859Z</time></trkpt><trkpt lat="45.134015" lon="7.5763733"><ele>283.0</ele><time>2026-03-29T15:39:58.806Z</time></trkpt><trkpt lat="45.1340883" lon="7.5763717"><ele>283.0</ele><time>2026-03-29T15:40:00.813Z</time></trkpt><trkpt lat="45.1341767" lon="7.5763833"><ele>283.0</ele><time>2026-03-29T15:40:02.842Z</time></trkpt><trkpt lat="45.1342633" lon="7.5763867"><ele>283.0</ele><time>2026-03-29T15:40:04.803Z</time></trkpt><trkpt lat="45.1343383" lon="7.5763767"><ele>282.7142857142857</ele><time>2026-03-29T15:40:06.802Z</time></trkpt><trkpt lat="45.1344067" lon="7.5763383"><ele>282.42857142857144</ele><time>2026-03-29T15:40:08.864Z</time></trkpt><trkpt lat="45.13448" lon="7.5763117"><ele>282.14285714285717</ele><time>2026-03-29T15:40:10.813Z</time></trkpt><trkpt lat="45.134565" lon="7.5763417"><ele>281.8571428571429</ele><time>2026-03-29T15:40:13.803Z</time></trkpt><trkpt lat="45.1346283" lon="7.5763717"><ele>281.57142857142856</ele><time>2026-03-29T15:40:14.869Z</time></trkpt><trkpt lat="45.1346833" lon="7.5764167"><ele>281.28571428571433</ele><time>2026-03-29T15:40:15.822Z</time></trkpt><trkpt lat="45.1347383" lon="7.5764683"><ele>281.0</ele><time>2026-03-29T15:40:16.791Z</time></trkpt><trkpt lat="45.134815" lon="7.5765067"><ele>280.6666666666667</ele><time>2026-03-29T15:40:18.887Z</time></trkpt><trkpt lat="45.1349133" lon="7.576555"><ele>280.33333333333337</ele><time>2026-03-29T15:40:20.928Z</time></trkpt><trkpt lat="45.135025" lon="7.576595"><ele>280.0</ele><time>2026-03-29T15:40:22.812Z</time></trkpt><trkpt lat="45.1350883" lon="7.5766217"><ele>279.6666666666667</ele><time>2026-03-29T15:40:23.821Z</time></trkpt><trkpt lat="45.1351533" lon="7.5766367"><ele>279.3333333333333</ele><time>2026-03-29T15:40:24.805Z</time></trkpt><trkpt lat="45.1352183" lon="7.5766433"><ele>279.0</ele><time>2026-03-29T15:40:25.806Z</time></trkpt><trkpt lat="45.1353067" lon="7.5766483"><ele>278.99999999999994</ele><time>2026-03-29T15:40:27.825Z</time></trkpt><trkpt lat="45.1353717" lon="7.576675"><ele>279.0</ele><time>2026-03-29T15:40:29.828Z</time></trkpt><trkpt lat="45.135435" lon="7.5766983"><ele>279.0</ele><time>2026-03-29T15:40:31.802Z</time></trkpt><trkpt lat="45.1354933" lon="7.576735"><ele>279.0</ele><time>2026-03-29T15:40:33.814Z</time></trkpt><trkpt lat="45.135555" lon="7.5767633"><ele>279.0</ele><time>2026-03-29T15:40:35.821Z</time></trkpt><trkpt lat="45.1356283" lon="7.576775"><ele>278.99999999999994</ele><time>2026-03-29T15:40:37.835Z</time></trkpt><trkpt lat="45.135695" lon="7.57678"><ele>279.0</ele><time>2026-03-29T15:40:39.823Z</time></trkpt><trkpt lat="45.13576" lon="7.5767783"><ele>278.2857142857143</ele><time>2026-03-29T15:40:41.816Z</time></trkpt><trkpt lat="45.1358533" lon="7.576775"><ele>277.57142857142856</ele><time>2026-03-29T15:40:44.862Z</time></trkpt><trkpt lat="45.13592" lon="7.5767717"><ele>276.8571428571429</ele><time>2026-03-29T15:40:46.817Z</time></trkpt><trkpt lat="45.1359917" lon="7.57679"><ele>276.1428571428571</ele><time>2026-03-29T15:40:48.833Z</time></trkpt><trkpt lat="45.1360617" lon="7.5767967"><ele>275.42857142857144</ele><time>2026-03-29T15:40:50.851Z</time></trkpt><trkpt lat="45.136125" lon="7.576785"><ele>274.7142857142857</ele><time>2026-03-29T15:40:52.79Z</time></trkpt><trkpt lat="45.136185" lon="7.5767533"><ele>274.0</ele><time>2026-03-29T15:40:54.813Z</time></trkpt><trkpt lat="45.1362333" lon="7.576695"><ele>274.0</ele><time>2026-03-29T15:40:56.828Z</time></trkpt><trkpt lat="45.1362733" lon="7.5766217"><ele>274.0</ele><time>2026-03-29T15:40:58.798Z</time></trkpt><trkpt lat="45.1362917" lon="7.5765017"><ele>274.0</ele><time>2026-03-29T15:41:01.789Z</time></trkpt><trkpt lat="45.1363233" lon="7.5763833"><ele>274.0</ele><time>2026-03-29T15:41:04.868Z</time></trkpt><trkpt lat="45.1363817" lon="7.5762833"><ele>274.0</ele><time>2026-03-29T15:41:07.821Z</time></trkpt><trkpt lat="45.1364283" lon="7.5762133"><ele>274.0</ele><time>2026-03-29T15:41:09.83Z</time></trkpt><trkpt lat="45.1365" lon="7.5761383"><ele>274.0</ele><time>2026-03-29T15:41:12.811Z</time></trkpt><trkpt lat="45.1365667" lon="7.57608"><ele>274.0</ele><time>2026-03-29T15:41:14.858Z</time></trkpt><trkpt lat="45.13663" lon="7.5760267"><ele>274.0</ele><time>2026-03-29T15:41:16.788Z</time></trkpt><trkpt lat="45.1367017" lon="7.5759783"><ele>274.0</ele><time>2026-03-29T15:41:19.828Z</time></trkpt><trkpt lat="45.1367633" lon="7.575935"><ele>274.0</ele><time>2026-03-29T15:41:22.793Z</time></trkpt><trkpt lat="45.136825" lon="7.5758767"><ele>274.0</ele><time>2026-03-29T15:41:25.845Z</time></trkpt><trkpt lat="45.1368617" lon="7.5757817"><ele>274.0</ele><time>2026-03-29T15:41:28.826Z</time></trkpt><trkpt lat="45.1369333" lon="7.575705"><ele>274.0</ele><time>2026-03-29T15:41:31.814Z</time></trkpt><trkpt lat="45.1370167" lon="7.57564"><ele>274.0</ele><time>2026-03-29T15:41:34.807Z</time></trkpt><trkpt lat="45.1370783" lon="7.5755967"><ele>274.0</ele><time>2026-03-29T15:41:36.831Z</time></trkpt><trkpt lat="45.1371317" lon="7.5755433"><ele>274.0</ele><time>2026-03-29T15:41:38.868Z</time></trkpt><trkpt lat="45.137185" lon="7.57548"><ele>274.0</ele><time>2026-03-29T15:41:40.841Z</time></trkpt><trkpt lat="45.1372583" lon="7.5754283"><ele>274.00000000000006</ele><time>2026-03-29T15:41:42.902Z</time></trkpt><trkpt lat="45.1373317" lon="7.5753917"><ele>274.0</ele><time>2026-03-29T15:41:44.869Z</time></trkpt><trkpt lat="45.1373917" lon="7.57534"><ele>274.0</ele><time>2026-03-29T15:41:46.827Z</time></trkpt><trkpt lat="45.1374467" lon="7.5752867"><ele>274.0</ele><time>2026-03-29T15:41:48.824Z</time></trkpt><trkpt lat="45.1375017" lon="7.5752217"><ele>274.0</ele><time>2026-03-29T15:41:50.836Z</time></trkpt><trkpt lat="45.1375583" lon="7.57516"><ele>274.00000000000006</ele><time>2026-03-29T15:41:52.804Z</time></trkpt><trkpt lat="45.1376267" lon="7.5751083"><ele>274.0</ele><time>2026-03-29T15:41:54.822Z</time></trkpt><trkpt lat="45.1376833" lon="7.5750633"><ele>273.5714285714286</ele><time>2026-03-29T15:41:56.822Z</time></trkpt><trkpt lat="45.1377317" lon="7.5750017"><ele>273.14285714285717</ele><time>2026-03-29T15:41:58.803Z</time></trkpt><trkpt lat="45.1377867" lon="7.574945"><ele>272.7142857142857</ele><time>2026-03-29T15:42:00.837Z</time></trkpt><trkpt lat="45.1378467" lon="7.5749033"><ele>272.28571428571433</ele><time>2026-03-29T15:42:02.835Z</time></trkpt><trkpt lat="45.1379133" lon="7.5748517"><ele>271.8571428571429</ele><time>2026-03-29T15:42:04.812Z</time></trkpt><trkpt lat="45.137965" lon="7.5747933"><ele>271.42857142857144</ele><time>2026-03-29T15:42:06.812Z</time></trkpt><trkpt lat="45.1380367" lon="7.5747267"><ele>271.0</ele><time>2026-03-29T15:42:09.79Z</time></trkpt><trkpt lat="45.1380817" lon="7.574645"><ele>271.0</ele><time>2026-03-29T15:42:12.839Z</time></trkpt><trkpt lat="45.1381" lon="7.5745583"><ele>271.0</ele><time>2026-03-29T15:42:14.846Z</time></trkpt><trkpt lat="45.1381417" lon="7.5744817"><ele>271.0</ele><time>2026-03-29T15:42:16.814Z</time></trkpt><trkpt lat="45.1381967" lon="7.5743833"><ele>271.0</ele><time>2026-03-29T15:42:19.801Z</time></trkpt><trkpt lat="45.1382517" lon="7.5742967"><ele>271.0</ele><time>2026-03-29T15:42:22.844Z</time></trkpt><trkpt lat="45.1383033" lon="7.5742"><ele>271.0</ele><time>2026-03-29T15:42:25.79Z</time></trkpt><trkpt lat="45.13834" lon="7.5740783"><ele>271.16666666666663</ele><time>2026-03-29T15:42:28.79Z</time></trkpt><trkpt lat="45.138375" lon="7.57399"><ele>271.3333333333333</ele><time>2026-03-29T15:42:30.812Z</time></trkpt><trkpt lat="45.1384167" lon="7.5739183"><ele>271.5</ele><time>2026-03-29T15:42:32.829Z</time></trkpt><trkpt lat="45.1384817" lon="7.57383"><ele>271.6666666666667</ele><time>2026-03-29T15:42:35.861Z</time></trkpt><trkpt lat="45.1385517" lon="7.573745"><ele>271.83333333333337</ele><time>2026-03-29T15:42:38.863Z</time></trkpt><trkpt lat="45.138605" lon="7.5736433"><ele>272.0</ele><time>2026-03-29T15:42:41.834Z</time></trkpt><trkpt lat="45.138635" lon="7.5735617"><ele>272.2857142857143</ele><time>2026-03-29T15:42:43.814Z</time></trkpt><trkpt lat="45.1386617" lon="7.5734733"><ele>272.57142857142856</ele><time>2026-03-29T15:42:45.833Z</time></trkpt><trkpt lat="45.1386767" lon="7.57338"><ele>272.8571428571429</ele><time>2026-03-29T15:42:47.795Z</time></trkpt><trkpt lat="45.1386967" lon="7.5732867"><ele>273.1428571428571</ele><time>2026-03-29T15:42:49.802Z</time></trkpt><trkpt lat="45.138725" lon="7.5732033"><ele>273.42857142857144</ele><time>2026-03-29T15:42:51.822Z</time></trkpt><trkpt lat="45.1387783" lon="7.573095"><ele>273.7142857142857</ele><time>2026-03-29T15:42:54.796Z</time></trkpt><trkpt lat="45.138825" lon="7.5730267"><ele>274.0</ele><time>2026-03-29T15:42:56.847Z</time></trkpt><trkpt lat="45.13887" lon="7.5729583"><ele>274.00000000000006</ele><time>2026-03-29T15:42:58.815Z</time></trkpt><trkpt lat="45.1389133" lon="7.572885"><ele>274.0</ele><time>2026-03-29T15:43:00.799Z</time></trkpt><trkpt lat="45.1389483" lon="7.572805"><ele>274.0</ele><time>2026-03-29T15:43:02.831Z</time></trkpt><trkpt lat="45.1389783" lon="7.5727183"><ele>274.0</ele><time>2026-03-29T15:43:04.844Z</time></trkpt><trkpt lat="45.1390133" lon="7.572625"><ele>274.0</ele><time>2026-03-29T15:43:06.823Z</time></trkpt><trkpt lat="45.1390383" lon="7.5725317"><ele>274.00000000000006</ele><time>2026-03-29T15:43:08.845Z</time></trkpt><trkpt lat="45.1390567" lon="7.5724433"><ele>274.0</ele><time>2026-03-29T15:43:10.808Z</time></trkpt><trkpt lat="45.1390667" lon="7.572315"><ele>273.8333333333333</ele><time>2026-03-29T15:43:13.815Z</time></trkpt><trkpt lat="45.1390833" lon="7.5721867"><ele>273.66666666666663</ele><time>2026-03-29T15:43:16.836Z</time></trkpt><trkpt lat="45.1391067" lon="7.5720583"><ele>273.5</ele><time>2026-03-29T15:43:19.828Z</time></trkpt><trkpt lat="45.139125" lon="7.5719333"><ele>273.3333333333333</ele><time>2026-03-29T15:43:22.815Z</time></trkpt><trkpt lat="45.1391333" lon="7.571805"><ele>273.1666666666667</ele><time>2026-03-29T15:43:25.825Z</time></trkpt><trkpt lat="45.139135" lon="7.5716967"><ele>273.0</ele><time>2026-03-29T15:43:28.793Z</time></trkpt><trkpt lat="45.13915" lon="7.5715733"><ele>273.57142857142856</ele><time>2026-03-29T15:43:41.787Z</time></trkpt><trkpt lat="45.1391583" lon="7.5714783"><ele>274.1428571428571</ele><time>2026-03-29T15:43:43.856Z</time></trkpt><trkpt lat="45.13917" lon="7.571375"><ele>274.7142857142857</ele><time>2026-03-29T15:43:45.814Z</time></trkpt><trkpt lat="45.1391817" lon="7.571275"><ele>275.2857142857143</ele><time>2026-03-29T15:43:47.812Z</time></trkpt><trkpt lat="45.1391967" lon="7.5711783"><ele>275.85714285714283</ele><time>2026-03-29T15:43:49.822Z</time></trkpt><trkpt lat="45.1392117" lon="7.5710783"><ele>276.42857142857144</ele><time>2026-03-29T15:43:51.839Z</time></trkpt><trkpt lat="45.1392167" lon="7.5709733"><ele>277.0</ele><time>2026-03-29T15:43:53.802Z</time></trkpt><trkpt lat="45.1392183" lon="7.5708767"><ele>277.0</ele><time>2026-03-29T15:43:55.812Z</time></trkpt><trkpt lat="45.1392317" lon="7.5707733"><ele>277.0</ele><time>2026-03-29T15:43:57.833Z</time></trkpt><trkpt lat="45.1392433" lon="7.5706633"><ele>277.0</ele><time>2026-03-29T15:43:59.938Z</time></trkpt><trkpt lat="45.139265" lon="7.5704817"><ele>277.0</ele><time>2026-03-29T15:44:02.824Z</time></trkpt><trkpt lat="45.1392783" lon="7.57036"><ele>277.0</ele><time>2026-03-29T15:44:04.828Z</time></trkpt><trkpt lat="45.139285" lon="7.570255"><ele>277.0</ele><time>2026-03-29T15:44:06.837Z</time></trkpt><trkpt lat="45.13929" lon="7.570155"><ele>277.0</ele><time>2026-03-29T15:44:08.864Z</time></trkpt><trkpt lat="45.1392983" lon="7.5700483"><ele>277.0</ele><time>2026-03-29T15:44:10.807Z</time></trkpt><trkpt lat="45.1393117" lon="7.5699417"><ele>277.0</ele><time>2026-03-29T15:44:12.814Z</time></trkpt><trkpt lat="45.13932" lon="7.5698283"><ele>277.0</ele><time>2026-03-29T15:44:14.872Z</time></trkpt><trkpt lat="45.1393283" lon="7.5697083"><ele>277.0</ele><time>2026-03-29T15:44:16.813Z</time></trkpt><trkpt lat="45.13934" lon="7.5696083"><ele>277.0</ele><time>2026-03-29T15:44:18.815Z</time></trkpt><trkpt lat="45.1393383" lon="7.5694967"><ele>277.3333333333333</ele><time>2026-03-29T15:44:21.792Z</time></trkpt><trkpt lat="45.1393417" lon="7.5693717"><ele>277.66666666666663</ele><time>2026-03-29T15:44:24.804Z</time></trkpt><trkpt lat="45.13934" lon="7.5692533"><ele>278.0</ele><time>2026-03-29T15:44:27.827Z</time></trkpt><trkpt lat="45.13935" lon="7.5691633"><ele>278.3333333333333</ele><time>2026-03-29T15:44:29.789Z</time></trkpt><trkpt lat="45.1393567" lon="7.569065"><ele>278.6666666666667</ele><time>2026-03-29T15:44:31.814Z</time></trkpt><trkpt lat="45.1393483" lon="7.5689367"><ele>279.0</ele><time>2026-03-29T15:44:34.808Z</time></trkpt><trkpt lat="45.1393433" lon="7.5688233"><ele>279.0</ele><time>2026-03-29T15:44:37.792Z</time></trkpt><trkpt lat="45.1393383" lon="7.5686967"><ele>279.0</ele><time>2026-03-29T15:44:40.804Z</time></trkpt><trkpt lat="45.139335" lon="7.5686033"><ele>279.0</ele><time>2026-03-29T15:44:42.783Z</time></trkpt><trkpt lat="45.1393333" lon="7.5685083"><ele>279.0</ele><time>2026-03-29T15:44:44.848Z</time></trkpt><trkpt lat="45.1393333" lon="7.5683967"><ele>279.0</ele><time>2026-03-29T15:44:46.827Z</time></trkpt><trkpt lat="45.1393283" lon="7.5682733"><ele>279.0</ele><time>2026-03-29T15:44:48.836Z</time></trkpt><trkpt lat="45.1393267" lon="7.5681483"><ele>278.8</ele><time>2026-03-29T15:44:50.834Z</time></trkpt><trkpt lat="45.13932" lon="7.568015"><ele>278.59999999999997</ele><time>2026-03-29T15:44:52.813Z</time></trkpt><trkpt lat="45.1393133" lon="7.56789"><ele>278.4</ele><time>2026-03-29T15:44:54.823Z</time></trkpt><trkpt lat="45.1393083" lon="7.56779"><ele>278.2</ele><time>2026-03-29T15:44:56.932Z</time></trkpt><trkpt lat="45.1393083" lon="7.56766"><ele>278.0</ele><time>2026-03-29T15:44:59.788Z</time></trkpt><trkpt lat="45.13929" lon="7.5674967"><ele>278.4</ele><time>2026-03-29T15:45:02.806Z</time></trkpt><trkpt lat="45.1392917" lon="7.5673717"><ele>278.8</ele><time>2026-03-29T15:45:04.785Z</time></trkpt><trkpt lat="45.1392867" lon="7.567245"><ele>279.2</ele><time>2026-03-29T15:45:06.817Z</time></trkpt><trkpt lat="45.1392817" lon="7.56711"><ele>279.6</ele><time>2026-03-29T15:45:08.834Z</time></trkpt><trkpt lat="45.1392733" lon="7.5669733"><ele>280.0</ele><time>2026-03-29T15:45:10.784Z</time></trkpt><trkpt lat="45.1392617" lon="7.5668417"><ele>280.3333333333333</ele><time>2026-03-29T15:45:12.79Z</time></trkpt><trkpt lat="45.1392533" lon="7.5667233"><ele>280.66666666666663</ele><time>2026-03-29T15:45:14.859Z</time></trkpt><trkpt lat="45.139255" lon="7.56662"><ele>281.0</ele><time>2026-03-29T15:45:16.784Z</time></trkpt><trkpt lat="45.1392633" lon="7.5665117"><ele>281.3333333333333</ele><time>2026-03-29T15:45:18.793Z</time></trkpt><trkpt lat="45.13927" lon="7.5663983"><ele>281.6666666666667</ele><time>2026-03-29T15:45:20.866Z</time></trkpt><trkpt lat="45.1392783" lon="7.5662417"><ele>282.0</ele><time>2026-03-29T15:45:23.785Z</time></trkpt><trkpt lat="45.1392817" lon="7.56615"><ele>282.3333333333333</ele><time>2026-03-29T15:45:25.786Z</time></trkpt><trkpt lat="45.1392783" lon="7.566055"><ele>282.6666666666667</ele><time>2026-03-29T15:45:27.786Z</time></trkpt><trkpt lat="45.1393017" lon="7.565935"><ele>283.0</ele><time>2026-03-29T15:45:30.785Z</time></trkpt><trkpt lat="45.1393367" lon="7.5658233"><ele>283.33333333333337</ele><time>2026-03-29T15:45:33.788Z</time></trkpt><trkpt lat="45.1393517" lon="7.5657133"><ele>283.6666666666667</ele><time>2026-03-29T15:45:36.785Z</time></trkpt><trkpt lat="45.1393683" lon="7.5656033"><ele>284.0</ele><time>2026-03-29T15:45:39.785Z</time></trkpt><trkpt lat="45.1394067" lon="7.565515"><ele>284.0</ele><time>2026-03-29T15:45:42.79Z</time></trkpt><trkpt lat="45.1394467" lon="7.56543"><ele>284.0</ele><time>2026-03-29T15:45:45.785Z</time></trkpt><trkpt lat="45.139505" lon="7.5653383"><ele>284.0</ele><time>2026-03-29T15:45:49.817Z</time></trkpt><trkpt lat="45.139555" lon="7.5652333"><ele>284.0</ele><time>2026-03-29T15:45:52.788Z</time></trkpt><trkpt lat="45.1396083" lon="7.5651567"><ele>284.0</ele><time>2026-03-29T15:45:54.783Z</time></trkpt><trkpt lat="45.13966" lon="7.56508"><ele>284.0</ele><time>2026-03-29T15:45:56.884Z</time></trkpt><trkpt lat="45.1397067" lon="7.56501"><ele>284.1428571428571</ele><time>2026-03-29T15:45:58.84Z</time></trkpt><trkpt lat="45.1397733" lon="7.5649183"><ele>284.2857142857143</ele><time>2026-03-29T15:46:01.857Z</time></trkpt><trkpt lat="45.1398167" lon="7.5648533"><ele>284.42857142857144</ele><time>2026-03-29T15:46:03.833Z</time></trkpt><trkpt lat="45.1398617" lon="7.5647867"><ele>284.57142857142856</ele><time>2026-03-29T15:46:05.844Z</time></trkpt><trkpt lat="45.1399167" lon="7.5647217"><ele>284.7142857142857</ele><time>2026-03-29T15:46:07.807Z</time></trkpt><trkpt lat="45.1399667" lon="7.5646567"><ele>284.85714285714283</ele><time>2026-03-29T15:46:09.84Z</time></trkpt><trkpt lat="45.1400267" lon="7.564575"><ele>285.0</ele><time>2026-03-29T15:46:12.819Z</time></trkpt><trkpt lat="45.1400817" lon="7.5644917"><ele>285.1666666666667</ele><time>2026-03-29T15:46:15.867Z</time></trkpt><trkpt lat="45.140145" lon="7.5644033"><ele>285.3333333333333</ele><time>2026-03-29T15:46:18.818Z</time></trkpt><trkpt lat="45.1401983" lon="7.56434"><ele>285.5</ele><time>2026-03-29T15:46:20.861Z</time></trkpt><trkpt lat="45.1402633" lon="7.5642767"><ele>285.66666666666663</ele><time>2026-03-29T15:46:23.844Z</time></trkpt><trkpt lat="45.1403083" lon="7.564195"><ele>285.8333333333333</ele><time>2026-03-29T15:46:26.854Z</time></trkpt><trkpt lat="45.140355" lon="7.5641117"><ele>286.0</ele><time>2026-03-29T15:46:31.836Z</time></trkpt><trkpt lat="45.1404233" lon="7.564025"><ele>285.99999999999994</ele><time>2026-03-29T15:46:34.832Z</time></trkpt><trkpt lat="45.1404683" lon="7.563955"><ele>286.0</ele><time>2026-03-29T15:46:36.828Z</time></trkpt><trkpt lat="45.14052" lon="7.5638833"><ele>286.0</ele><time>2026-03-29T15:46:38.893Z</time></trkpt><trkpt lat="45.1405717" lon="7.5638133"><ele>286.0</ele><time>2026-03-29T15:46:40.801Z</time></trkpt><trkpt lat="45.1406233" lon="7.5637383"><ele>286.0</ele><time>2026-03-29T15:46:42.826Z</time></trkpt><trkpt lat="45.1406717" lon="7.5636667"><ele>285.99999999999994</ele><time>2026-03-29T15:46:44.906Z</time></trkpt><trkpt lat="45.1407233" lon="7.563575"><ele>286.0</ele><time>2026-03-29T15:46:47.843Z</time></trkpt><trkpt lat="45.1407667" lon="7.56349"><ele>285.85714285714283</ele><time>2026-03-29T15:46:49.879Z</time></trkpt><trkpt lat="45.14081" lon="7.5634217"><ele>285.7142857142857</ele><time>2026-03-29T15:46:51.84Z</time></trkpt><trkpt lat="45.1408517" lon="7.5633533"><ele>285.57142857142856</ele><time>2026-03-29T15:46:53.87Z</time></trkpt><trkpt lat="45.1408983" lon="7.5632817"><ele>285.42857142857144</ele><time>2026-03-29T15:46:55.838Z</time></trkpt><trkpt lat="45.1409417" lon="7.5632067"><ele>285.2857142857143</ele><time>2026-03-29T15:46:57.83Z</time></trkpt><trkpt lat="45.1409883" lon="7.5630967"><ele>285.1428571428571</ele><time>2026-03-29T15:47:00.861Z</time></trkpt><trkpt lat="45.1410267" lon="7.5629883"><ele>285.0</ele><time>2026-03-29T15:47:03.85Z</time></trkpt><trkpt lat="45.1410333" lon="7.56288"><ele>285.3333333333333</ele><time>2026-03-29T15:47:06.879Z</time></trkpt><trkpt lat="45.1410117" lon="7.562765"><ele>285.6666666666667</ele><time>2026-03-29T15:47:09.853Z</time></trkpt><trkpt lat="45.1409983" lon="7.5626533"><ele>286.0</ele><time>2026-03-29T15:47:12.819Z</time></trkpt><trkpt lat="45.1410017" lon="7.5625417"><ele>286.33333333333337</ele><time>2026-03-29T15:47:15.842Z</time></trkpt><trkpt lat="45.141" lon="7.562415"><ele>286.6666666666667</ele><time>2026-03-29T15:47:18.855Z</time></trkpt><trkpt lat="45.1409967" lon="7.56232"><ele>287.0</ele><time>2026-03-29T15:47:20.879Z</time></trkpt><trkpt lat="45.1409933" lon="7.562215"><ele>287.0</ele><time>2026-03-29T15:47:22.831Z</time></trkpt><trkpt lat="45.140985" lon="7.5621133"><ele>287.0</ele><time>2026-03-29T15:47:24.809Z</time></trkpt><trkpt lat="45.1409633" lon="7.561985"><ele>287.0</ele><time>2026-03-29T15:47:27.853Z</time></trkpt><trkpt lat="45.14096" lon="7.5618867"><ele>287.0</ele><time>2026-03-29T15:47:29.836Z</time></trkpt><trkpt lat="45.14095" lon="7.56175"><ele>287.0</ele><time>2026-03-29T15:47:32.849Z</time></trkpt><trkpt lat="45.1409517" lon="7.561645"><ele>287.0</ele><time>2026-03-29T15:47:34.84Z</time></trkpt><trkpt lat="45.1409617" lon="7.56153"><ele>287.14285714285717</ele><time>2026-03-29T15:47:36.862Z</time></trkpt><trkpt lat="45.1409667" lon="7.5614167"><ele>287.2857142857143</ele><time>2026-03-29T15:47:38.879Z</time></trkpt><trkpt lat="45.1409583" lon="7.5613133"><ele>287.42857142857144</ele><time>2026-03-29T15:47:40.806Z</time></trkpt><trkpt lat="45.1409567" lon="7.5612083"><ele>287.57142857142856</ele><time>2026-03-29T15:47:42.802Z</time></trkpt><trkpt lat="45.140965" lon="7.5610867"><ele>287.7142857142857</ele><time>2026-03-29T15:47:45.789Z</time></trkpt><trkpt lat="45.1409" lon="7.5610917"><ele>287.8571428571429</ele><time>2026-03-29T15:48:31.796Z</time></trkpt><trkpt lat="45.1408333" lon="7.561075"><ele>288.0</ele><time>2026-03-29T15:48:38.841Z</time></trkpt><trkpt lat="45.1407667" lon="7.561055"><ele>288.5714285714286</ele><time>2026-03-29T15:48:47.881Z</time></trkpt><trkpt lat="45.140695" lon="7.56103"><ele>289.14285714285717</ele><time>2026-03-29T15:48:54.779Z</time></trkpt><trkpt lat="45.1406317" lon="7.5610417"><ele>289.7142857142857</ele><time>2026-03-29T15:49:00.794Z</time></trkpt><trkpt lat="45.14062" lon="7.5609483"><ele>290.28571428571433</ele><time>2026-03-29T15:51:46.788Z</time></trkpt><trkpt lat="45.1406667" lon="7.5608867"><ele>290.8571428571429</ele><time>2026-03-29T15:51:58.794Z</time></trkpt><trkpt lat="45.1407067" lon="7.5608067"><ele>291.42857142857144</ele><time>2026-03-29T15:52:11.799Z</time></trkpt><trkpt lat="45.1406967" lon="7.5607117"><ele>292.0</ele><time>2026-03-29T15:52:28.822Z</time></trkpt><trkpt lat="45.1406517" lon="7.5608267"><ele>292.0</ele><time>2026-03-29T15:52:32.834Z</time></trkpt><trkpt lat="45.140645" lon="7.5609317"><ele>292.0</ele><time>2026-03-29T15:52:35.875Z</time></trkpt></trkseg></trk></gpx>